<?xml version="1.0" encoding="UTF-8" standalone="no" ?>
<gpx xmlns="http://www.topografix.com/GPX/1/1" xmlns:xsi="http://www.w3.org/2001/XMLSchema-instance" xsi:schemaLocation="http://www.topografix.com/GPX/1/1 http://www.topografix.com/GPX/1/1/gpx.xsd" version="1.1" creator="VisuGPX - https://www.visugpx.com">
  <metadata>
    <name>volvic sentier du renard</name>
    <desc><![CDATA[depart de volvic pour une boucle avec un final trois etoiles]]></desc>
  </metadata>
  <wpt lat="45.82105" lon="2.94846">
    <ele>975.79</ele>
    <name><![CDATA[WPT_0000109]]></name>
    <desc><![CDATA[]]></desc>
    <type><![CDATA[Photo]]></type>
  </wpt>
  <wpt lat="45.82202" lon="2.94648">
    <ele>982.8</ele>
    <name><![CDATA[WPT_0000110]]></name>
    <desc><![CDATA[]]></desc>
    <type><![CDATA[Photo]]></type>
  </wpt>
  <trk>
    <name><![CDATA[2013-06-01 13:14]]></name>
    <desc><![CDATA[<h1>OruxMaps</h1><br /><hr align="center" width="480" style="height: 2px; width: 517px"/><h2>Nom: 2013-06-01 13:14</h2><br /><p>Temps de départ: 06/01/2013 13:15</p><p>Temps d'arrivée: 06/01/2013 17:36</p><p>Distance: 41,4 km (04:21)</p><p>Temps déplacement: 02:23</p><p>Vitesse moyenne: 9,5 km/h</p><p>Vitesse moyenne: 17,3 km/h</p><p>Vitess Max.: 46 km/h</p><p>Altitude minimale: 443 m</p><p>Altitude maximale: 1022 m</p><p>Vitesse d'élévation: 503,9 m/h</p><p>Vitesse de descente: -892,6 m/h</p><p>Gain Altitude: 1072 m</p><p>Perte Altitude: -1063 m</p><p>Temps d'élévation: 02:07</p><p>Temps de descente: 01:11</p><hr align="center" width="480" style="height: 2px; width: 517px"/>]]></desc>
    <trkseg>
      <trkpt lat="45.8711" lon="3.02738">
        <ele>548.81</ele>
        <time>2013-06-01T11:15:36Z</time>
      </trkpt>
      <trkpt lat="45.87126" lon="3.02725">
        <ele>555.72</ele>
        <time>2013-06-01T11:16:01Z</time>
      </trkpt>
      <trkpt lat="45.87129" lon="3.02699">
        <ele>560.69</ele>
        <time>2013-06-01T11:16:48Z</time>
      </trkpt>
      <trkpt lat="45.87125" lon="3.02673">
        <ele>560.79</ele>
        <time>2013-06-01T11:16:58Z</time>
      </trkpt>
      <trkpt lat="45.87128" lon="3.02648">
        <ele>561.7</ele>
        <time>2013-06-01T11:17:08Z</time>
      </trkpt>
      <trkpt lat="45.87132" lon="3.0262">
        <ele>561.8</ele>
        <time>2013-06-01T11:17:20Z</time>
      </trkpt>
      <trkpt lat="45.87133" lon="3.02594">
        <ele>561.8</ele>
        <time>2013-06-01T11:17:31Z</time>
      </trkpt>
      <trkpt lat="45.87132" lon="3.02568">
        <ele>561.8</ele>
        <time>2013-06-01T11:17:42Z</time>
      </trkpt>
      <trkpt lat="45.87131" lon="3.02542">
        <ele>561.8</ele>
        <time>2013-06-01T11:17:51Z</time>
      </trkpt>
      <trkpt lat="45.87132" lon="3.02517">
        <ele>561.8</ele>
        <time>2013-06-01T11:18:04Z</time>
      </trkpt>
      <trkpt lat="45.87133" lon="3.02491">
        <ele>561.8</ele>
        <time>2013-06-01T11:18:17Z</time>
      </trkpt>
      <trkpt lat="45.87136" lon="3.02465">
        <ele>563.1</ele>
        <time>2013-06-01T11:18:28Z</time>
      </trkpt>
      <trkpt lat="45.87146" lon="3.02442">
        <ele>567.06</ele>
        <time>2013-06-01T11:18:37Z</time>
      </trkpt>
      <trkpt lat="45.8716" lon="3.02424">
        <ele>571.47</ele>
        <time>2013-06-01T11:18:45Z</time>
      </trkpt>
      <trkpt lat="45.87174" lon="3.02407">
        <ele>575.69</ele>
        <time>2013-06-01T11:18:54Z</time>
      </trkpt>
      <trkpt lat="45.87186" lon="3.02386">
        <ele>580.04</ele>
        <time>2013-06-01T11:19:05Z</time>
      </trkpt>
      <trkpt lat="45.87198" lon="3.02364">
        <ele>583.66</ele>
        <time>2013-06-01T11:19:17Z</time>
      </trkpt>
      <trkpt lat="45.8721" lon="3.02343">
        <ele>587.87</ele>
        <time>2013-06-01T11:19:28Z</time>
      </trkpt>
      <trkpt lat="45.87223" lon="3.02321">
        <ele>591.95</ele>
        <time>2013-06-01T11:19:35Z</time>
      </trkpt>
      <trkpt lat="45.87232" lon="3.02298">
        <ele>594.24</ele>
        <time>2013-06-01T11:19:42Z</time>
      </trkpt>
      <trkpt lat="45.87233" lon="3.02268">
        <ele>594.42</ele>
        <time>2013-06-01T11:19:47Z</time>
      </trkpt>
      <trkpt lat="45.8723" lon="3.0224">
        <ele>592.68</ele>
        <time>2013-06-01T11:19:52Z</time>
      </trkpt>
      <trkpt lat="45.87224" lon="3.02212">
        <ele>590.42</ele>
        <time>2013-06-01T11:19:57Z</time>
      </trkpt>
      <trkpt lat="45.87219" lon="3.02182">
        <ele>589.09</ele>
        <time>2013-06-01T11:20:03Z</time>
      </trkpt>
      <trkpt lat="45.87213" lon="3.02148">
        <ele>587.53</ele>
        <time>2013-06-01T11:20:08Z</time>
      </trkpt>
      <trkpt lat="45.87209" lon="3.02118">
        <ele>585.33</ele>
        <time>2013-06-01T11:20:12Z</time>
      </trkpt>
      <trkpt lat="45.87209" lon="3.02088">
        <ele>585.03</ele>
        <time>2013-06-01T11:20:16Z</time>
      </trkpt>
      <trkpt lat="45.87216" lon="3.02058">
        <ele>591.1</ele>
        <time>2013-06-01T11:20:20Z</time>
      </trkpt>
      <trkpt lat="45.87217" lon="3.02025">
        <ele>599.97</ele>
        <time>2013-06-01T11:20:28Z</time>
      </trkpt>
      <trkpt lat="45.87198" lon="3.02015">
        <ele>601.3</ele>
        <time>2013-06-01T11:20:35Z</time>
      </trkpt>
      <trkpt lat="45.87184" lon="3.01995">
        <ele>600.64</ele>
        <time>2013-06-01T11:20:41Z</time>
      </trkpt>
      <trkpt lat="45.87175" lon="3.01967">
        <ele>597.61</ele>
        <time>2013-06-01T11:20:51Z</time>
      </trkpt>
      <trkpt lat="45.87187" lon="3.01937">
        <ele>599.52</ele>
        <time>2013-06-01T11:21:23Z</time>
      </trkpt>
      <trkpt lat="45.87202" lon="3.01916">
        <ele>603.89</ele>
        <time>2013-06-01T11:21:28Z</time>
      </trkpt>
      <trkpt lat="45.87216" lon="3.0189">
        <ele>609.6</ele>
        <time>2013-06-01T11:21:38Z</time>
      </trkpt>
      <trkpt lat="45.87231" lon="3.01871">
        <ele>612.94</ele>
        <time>2013-06-01T11:21:48Z</time>
      </trkpt>
      <trkpt lat="45.87242" lon="3.01845">
        <ele>615.4</ele>
        <time>2013-06-01T11:21:54Z</time>
      </trkpt>
      <trkpt lat="45.87257" lon="3.01821">
        <ele>617.4</ele>
        <time>2013-06-01T11:21:59Z</time>
      </trkpt>
      <trkpt lat="45.8727" lon="3.01787">
        <ele>620.91</ele>
        <time>2013-06-01T11:22:15Z</time>
      </trkpt>
      <trkpt lat="45.8727" lon="3.01759">
        <ele>621.48</ele>
        <time>2013-06-01T11:22:24Z</time>
      </trkpt>
      <trkpt lat="45.87279" lon="3.01733">
        <ele>621.44</ele>
        <time>2013-06-01T11:22:35Z</time>
      </trkpt>
      <trkpt lat="45.8729" lon="3.0171">
        <ele>622.19</ele>
        <time>2013-06-01T11:22:46Z</time>
      </trkpt>
      <trkpt lat="45.87301" lon="3.01686">
        <ele>624.93</ele>
        <time>2013-06-01T11:23:01Z</time>
      </trkpt>
      <trkpt lat="45.87308" lon="3.01661">
        <ele>627.67</ele>
        <time>2013-06-01T11:23:13Z</time>
      </trkpt>
      <trkpt lat="45.87313" lon="3.0163">
        <ele>629.33</ele>
        <time>2013-06-01T11:23:20Z</time>
      </trkpt>
      <trkpt lat="45.87312" lon="3.01603">
        <ele>629.72</ele>
        <time>2013-06-01T11:23:26Z</time>
      </trkpt>
      <trkpt lat="45.87299" lon="3.01579">
        <ele>629.78</ele>
        <time>2013-06-01T11:23:32Z</time>
      </trkpt>
      <trkpt lat="45.87287" lon="3.0156">
        <ele>629.8</ele>
        <time>2013-06-01T11:23:39Z</time>
      </trkpt>
      <trkpt lat="45.87279" lon="3.01534">
        <ele>630.56</ele>
        <time>2013-06-01T11:23:47Z</time>
      </trkpt>
      <trkpt lat="45.87274" lon="3.01508">
        <ele>633.23</ele>
        <time>2013-06-01T11:23:55Z</time>
      </trkpt>
      <trkpt lat="45.87272" lon="3.01482">
        <ele>637.74</ele>
        <time>2013-06-01T11:24:03Z</time>
      </trkpt>
      <trkpt lat="45.87274" lon="3.01455">
        <ele>643.07</ele>
        <time>2013-06-01T11:24:13Z</time>
      </trkpt>
      <trkpt lat="45.87275" lon="3.01429">
        <ele>648.21</ele>
        <time>2013-06-01T11:24:22Z</time>
      </trkpt>
      <trkpt lat="45.87267" lon="3.01405">
        <ele>651.46</ele>
        <time>2013-06-01T11:24:28Z</time>
      </trkpt>
      <trkpt lat="45.87258" lon="3.01382">
        <ele>653.68</ele>
        <time>2013-06-01T11:24:33Z</time>
      </trkpt>
      <trkpt lat="45.87251" lon="3.01352">
        <ele>654.53</ele>
        <time>2013-06-01T11:24:38Z</time>
      </trkpt>
      <trkpt lat="45.87248" lon="3.01324">
        <ele>654.03</ele>
        <time>2013-06-01T11:24:42Z</time>
      </trkpt>
      <trkpt lat="45.8725" lon="3.01296">
        <ele>653.85</ele>
        <time>2013-06-01T11:24:47Z</time>
      </trkpt>
      <trkpt lat="45.87257" lon="3.0127">
        <ele>652.98</ele>
        <time>2013-06-01T11:24:54Z</time>
      </trkpt>
      <trkpt lat="45.87254" lon="3.01244">
        <ele>652.84</ele>
        <time>2013-06-01T11:24:59Z</time>
      </trkpt>
      <trkpt lat="45.87238" lon="3.01221">
        <ele>653.07</ele>
        <time>2013-06-01T11:25:02Z</time>
      </trkpt>
      <trkpt lat="45.87219" lon="3.01199">
        <ele>653.49</ele>
        <time>2013-06-01T11:25:05Z</time>
      </trkpt>
      <trkpt lat="45.87204" lon="3.01182">
        <ele>654.11</ele>
        <time>2013-06-01T11:25:08Z</time>
      </trkpt>
      <trkpt lat="45.87191" lon="3.01163">
        <ele>655.25</ele>
        <time>2013-06-01T11:25:14Z</time>
      </trkpt>
      <trkpt lat="45.87185" lon="3.01135">
        <ele>657.17</ele>
        <time>2013-06-01T11:25:21Z</time>
      </trkpt>
      <trkpt lat="45.87184" lon="3.01107">
        <ele>658.97</ele>
        <time>2013-06-01T11:25:28Z</time>
      </trkpt>
      <trkpt lat="45.87184" lon="3.01079">
        <ele>660.45</ele>
        <time>2013-06-01T11:25:35Z</time>
      </trkpt>
      <trkpt lat="45.87178" lon="3.01053">
        <ele>660.75</ele>
        <time>2013-06-01T11:25:42Z</time>
      </trkpt>
      <trkpt lat="45.87185" lon="3.01028">
        <ele>662.3</ele>
        <time>2013-06-01T11:25:52Z</time>
      </trkpt>
      <trkpt lat="45.87192" lon="3.01">
        <ele>663.62</ele>
        <time>2013-06-01T11:26:00Z</time>
      </trkpt>
      <trkpt lat="45.87186" lon="3.00967">
        <ele>663.74</ele>
        <time>2013-06-01T11:26:04Z</time>
      </trkpt>
      <trkpt lat="45.87178" lon="3.00937">
        <ele>663.78</ele>
        <time>2013-06-01T11:26:08Z</time>
      </trkpt>
      <trkpt lat="45.87176" lon="3.00912">
        <ele>664.92</ele>
        <time>2013-06-01T11:26:13Z</time>
      </trkpt>
      <trkpt lat="45.87174" lon="3.00884">
        <ele>668.77</ele>
        <time>2013-06-01T11:26:21Z</time>
      </trkpt>
      <trkpt lat="45.87175" lon="3.00856">
        <ele>672.49</ele>
        <time>2013-06-01T11:26:31Z</time>
      </trkpt>
      <trkpt lat="45.87171" lon="3.0083">
        <ele>674.77</ele>
        <time>2013-06-01T11:26:37Z</time>
      </trkpt>
      <trkpt lat="45.87159" lon="3.00807">
        <ele>676.48</ele>
        <time>2013-06-01T11:26:44Z</time>
      </trkpt>
      <trkpt lat="45.87141" lon="3.00796">
        <ele>677.44</ele>
        <time>2013-06-01T11:26:51Z</time>
      </trkpt>
      <trkpt lat="45.87124" lon="3.00781">
        <ele>678.89</ele>
        <time>2013-06-01T11:27:00Z</time>
      </trkpt>
      <trkpt lat="45.87105" lon="3.0077">
        <ele>679.73</ele>
        <time>2013-06-01T11:27:09Z</time>
      </trkpt>
      <trkpt lat="45.87087" lon="3.00766">
        <ele>679.8</ele>
        <time>2013-06-01T11:27:23Z</time>
      </trkpt>
      <trkpt lat="45.87069" lon="3.00768">
        <ele>681.23</ele>
        <time>2013-06-01T11:28:00Z</time>
      </trkpt>
      <trkpt lat="45.8707" lon="3.00742">
        <ele>683.13</ele>
        <time>2013-06-01T11:28:15Z</time>
      </trkpt>
      <trkpt lat="45.8707" lon="3.00714">
        <ele>684.42</ele>
        <time>2013-06-01T11:28:23Z</time>
      </trkpt>
      <trkpt lat="45.87065" lon="3.00689">
        <ele>685.33</ele>
        <time>2013-06-01T11:28:30Z</time>
      </trkpt>
      <trkpt lat="45.87065" lon="3.00658">
        <ele>687.06</ele>
        <time>2013-06-01T11:28:38Z</time>
      </trkpt>
      <trkpt lat="45.8707" lon="3.00633">
        <ele>689.02</ele>
        <time>2013-06-01T11:28:48Z</time>
      </trkpt>
      <trkpt lat="45.87081" lon="3.00609">
        <ele>691.52</ele>
        <time>2013-06-01T11:28:56Z</time>
      </trkpt>
      <trkpt lat="45.8709" lon="3.00586">
        <ele>694.84</ele>
        <time>2013-06-01T11:29:09Z</time>
      </trkpt>
      <trkpt lat="45.87105" lon="3.00568">
        <ele>697.69</ele>
        <time>2013-06-01T11:29:22Z</time>
      </trkpt>
      <trkpt lat="45.87115" lon="3.00545">
        <ele>701.62</ele>
        <time>2013-06-01T11:29:33Z</time>
      </trkpt>
      <trkpt lat="45.87125" lon="3.00521">
        <ele>707.6</ele>
        <time>2013-06-01T11:29:48Z</time>
      </trkpt>
      <trkpt lat="45.8713" lon="3.00495">
        <ele>711.68</ele>
        <time>2013-06-01T11:29:59Z</time>
      </trkpt>
      <trkpt lat="45.8714" lon="3.00472">
        <ele>713.73</ele>
        <time>2013-06-01T11:30:12Z</time>
      </trkpt>
      <trkpt lat="45.87143" lon="3.00444">
        <ele>713.54</ele>
        <time>2013-06-01T11:30:20Z</time>
      </trkpt>
      <trkpt lat="45.8714" lon="3.00414">
        <ele>712.98</ele>
        <time>2013-06-01T11:30:25Z</time>
      </trkpt>
      <trkpt lat="45.87133" lon="3.00386">
        <ele>713.6</ele>
        <time>2013-06-01T11:30:30Z</time>
      </trkpt>
      <trkpt lat="45.87125" lon="3.00362">
        <ele>714.21</ele>
        <time>2013-06-01T11:30:37Z</time>
      </trkpt>
      <trkpt lat="45.87121" lon="3.00337">
        <ele>714.77</ele>
        <time>2013-06-01T11:30:47Z</time>
      </trkpt>
      <trkpt lat="45.8712" lon="3.00311">
        <ele>715.7</ele>
        <time>2013-06-01T11:30:58Z</time>
      </trkpt>
      <trkpt lat="45.8712" lon="3.00283">
        <ele>715.79</ele>
        <time>2013-06-01T11:31:09Z</time>
      </trkpt>
      <trkpt lat="45.87116" lon="3.00253">
        <ele>714.9</ele>
        <time>2013-06-01T11:31:17Z</time>
      </trkpt>
      <trkpt lat="45.8711" lon="3.00225">
        <ele>714.06</ele>
        <time>2013-06-01T11:31:22Z</time>
      </trkpt>
      <trkpt lat="45.87106" lon="3.00197">
        <ele>714.32</ele>
        <time>2013-06-01T11:31:26Z</time>
      </trkpt>
      <trkpt lat="45.87101" lon="3.00171">
        <ele>714.9</ele>
        <time>2013-06-01T11:31:30Z</time>
      </trkpt>
      <trkpt lat="45.87093" lon="3.00148">
        <ele>715.58</ele>
        <time>2013-06-01T11:31:35Z</time>
      </trkpt>
      <trkpt lat="45.87087" lon="3.00122">
        <ele>716.68</ele>
        <time>2013-06-01T11:31:44Z</time>
      </trkpt>
      <trkpt lat="45.8709" lon="3.00096">
        <ele>716.79</ele>
        <time>2013-06-01T11:31:53Z</time>
      </trkpt>
      <trkpt lat="45.87093" lon="3.00068">
        <ele>717.24</ele>
        <time>2013-06-01T11:32:02Z</time>
      </trkpt>
      <trkpt lat="45.8709" lon="3.0004">
        <ele>718.43</ele>
        <time>2013-06-01T11:32:10Z</time>
      </trkpt>
      <trkpt lat="45.8709" lon="3.0001">
        <ele>721.54</ele>
        <time>2013-06-01T11:32:21Z</time>
      </trkpt>
      <trkpt lat="45.87092" lon="2.99985">
        <ele>724.25</ele>
        <time>2013-06-01T11:32:30Z</time>
      </trkpt>
      <trkpt lat="45.87097" lon="2.99959">
        <ele>726.26</ele>
        <time>2013-06-01T11:32:39Z</time>
      </trkpt>
      <trkpt lat="45.871" lon="2.99933">
        <ele>728.07</ele>
        <time>2013-06-01T11:32:49Z</time>
      </trkpt>
      <trkpt lat="45.87097" lon="2.99907">
        <ele>729.99</ele>
        <time>2013-06-01T11:32:57Z</time>
      </trkpt>
      <trkpt lat="45.87096" lon="2.9988">
        <ele>730.76</ele>
        <time>2013-06-01T11:33:08Z</time>
      </trkpt>
      <trkpt lat="45.8709" lon="2.99854">
        <ele>731.72</ele>
        <time>2013-06-01T11:33:17Z</time>
      </trkpt>
      <trkpt lat="45.87083" lon="2.99828">
        <ele>732.8</ele>
        <time>2013-06-01T11:33:24Z</time>
      </trkpt>
      <trkpt lat="45.87081" lon="2.99802">
        <ele>734.38</ele>
        <time>2013-06-01T11:33:32Z</time>
      </trkpt>
      <trkpt lat="45.87086" lon="2.99777">
        <ele>735.54</ele>
        <time>2013-06-01T11:33:42Z</time>
      </trkpt>
      <trkpt lat="45.87087" lon="2.99751">
        <ele>736.45</ele>
        <time>2013-06-01T11:33:49Z</time>
      </trkpt>
      <trkpt lat="45.8709" lon="2.99725">
        <ele>738.35</ele>
        <time>2013-06-01T11:33:57Z</time>
      </trkpt>
      <trkpt lat="45.87092" lon="2.99697">
        <ele>740.18</ele>
        <time>2013-06-01T11:34:04Z</time>
      </trkpt>
      <trkpt lat="45.87096" lon="2.99669">
        <ele>742.24</ele>
        <time>2013-06-01T11:34:14Z</time>
      </trkpt>
      <trkpt lat="45.87095" lon="2.99644">
        <ele>743.34</ele>
        <time>2013-06-01T11:34:23Z</time>
      </trkpt>
      <trkpt lat="45.8709" lon="2.99616">
        <ele>744.82</ele>
        <time>2013-06-01T11:34:31Z</time>
      </trkpt>
      <trkpt lat="45.8709" lon="2.99586">
        <ele>747.03</ele>
        <time>2013-06-01T11:34:40Z</time>
      </trkpt>
      <trkpt lat="45.87091" lon="2.9956">
        <ele>748.56</ele>
        <time>2013-06-01T11:34:49Z</time>
      </trkpt>
      <trkpt lat="45.87092" lon="2.99534">
        <ele>749.64</ele>
        <time>2013-06-01T11:34:57Z</time>
      </trkpt>
      <trkpt lat="45.87092" lon="2.99506">
        <ele>750.68</ele>
        <time>2013-06-01T11:35:05Z</time>
      </trkpt>
      <trkpt lat="45.87095" lon="2.9948">
        <ele>751.65</ele>
        <time>2013-06-01T11:35:12Z</time>
      </trkpt>
      <trkpt lat="45.87102" lon="2.99455">
        <ele>752.69</ele>
        <time>2013-06-01T11:35:21Z</time>
      </trkpt>
      <trkpt lat="45.87106" lon="2.99427">
        <ele>754.3</ele>
        <time>2013-06-01T11:35:34Z</time>
      </trkpt>
      <trkpt lat="45.87104" lon="2.99401">
        <ele>756.49</ele>
        <time>2013-06-01T11:35:46Z</time>
      </trkpt>
      <trkpt lat="45.87088" lon="2.99414">
        <ele>758.76</ele>
        <time>2013-06-01T11:36:07Z</time>
      </trkpt>
      <trkpt lat="45.87069" lon="2.99423">
        <ele>758.79</ele>
        <time>2013-06-01T11:36:13Z</time>
      </trkpt>
      <trkpt lat="45.87051" lon="2.99427">
        <ele>757.98</ele>
        <time>2013-06-01T11:36:21Z</time>
      </trkpt>
      <trkpt lat="45.8707" lon="2.99427">
        <ele>755.7</ele>
        <time>2013-06-01T11:36:30Z</time>
      </trkpt>
      <trkpt lat="45.87091" lon="2.99418">
        <ele>751.77</ele>
        <time>2013-06-01T11:36:34Z</time>
      </trkpt>
      <trkpt lat="45.8711" lon="2.9941">
        <ele>748.89</ele>
        <time>2013-06-01T11:36:40Z</time>
      </trkpt>
      <trkpt lat="45.87128" lon="2.99399">
        <ele>747.99</ele>
        <time>2013-06-01T11:36:46Z</time>
      </trkpt>
      <trkpt lat="45.87142" lon="2.9938">
        <ele>747.82</ele>
        <time>2013-06-01T11:36:53Z</time>
      </trkpt>
      <trkpt lat="45.87154" lon="2.99356">
        <ele>747.8</ele>
        <time>2013-06-01T11:37:02Z</time>
      </trkpt>
      <trkpt lat="45.8716" lon="2.9933">
        <ele>748.24</ele>
        <time>2013-06-01T11:37:09Z</time>
      </trkpt>
      <trkpt lat="45.87158" lon="2.99304">
        <ele>749.9</ele>
        <time>2013-06-01T11:37:15Z</time>
      </trkpt>
      <trkpt lat="45.87155" lon="2.99279">
        <ele>752.48</ele>
        <time>2013-06-01T11:37:22Z</time>
      </trkpt>
      <trkpt lat="45.87147" lon="2.99253">
        <ele>754.99</ele>
        <time>2013-06-01T11:37:30Z</time>
      </trkpt>
      <trkpt lat="45.87129" lon="2.99227">
        <ele>759.84</ele>
        <time>2013-06-01T11:37:43Z</time>
      </trkpt>
      <trkpt lat="45.87118" lon="2.99204">
        <ele>763.86</ele>
        <time>2013-06-01T11:37:54Z</time>
      </trkpt>
      <trkpt lat="45.87111" lon="2.99176">
        <ele>766.79</ele>
        <time>2013-06-01T11:38:05Z</time>
      </trkpt>
      <trkpt lat="45.87114" lon="2.9915">
        <ele>767.56</ele>
        <time>2013-06-01T11:38:10Z</time>
      </trkpt>
      <trkpt lat="45.87129" lon="2.99124">
        <ele>768.67</ele>
        <time>2013-06-01T11:38:18Z</time>
      </trkpt>
      <trkpt lat="45.87142" lon="2.99105">
        <ele>769.8</ele>
        <time>2013-06-01T11:38:25Z</time>
      </trkpt>
      <trkpt lat="45.87156" lon="2.99081">
        <ele>773.15</ele>
        <time>2013-06-01T11:38:39Z</time>
      </trkpt>
      <trkpt lat="45.87174" lon="2.99056">
        <ele>777.16</ele>
        <time>2013-06-01T11:38:57Z</time>
      </trkpt>
      <trkpt lat="45.87193" lon="2.99041">
        <ele>780.44</ele>
        <time>2013-06-01T11:39:02Z</time>
      </trkpt>
      <trkpt lat="45.8721" lon="2.99028">
        <ele>782.3</ele>
        <time>2013-06-01T11:39:06Z</time>
      </trkpt>
      <trkpt lat="45.87228" lon="2.99017">
        <ele>782.2</ele>
        <time>2013-06-01T11:39:10Z</time>
      </trkpt>
      <trkpt lat="45.87246" lon="2.99026">
        <ele>779.98</ele>
        <time>2013-06-01T11:39:14Z</time>
      </trkpt>
      <trkpt lat="45.87261" lon="2.99011">
        <ele>776.46</ele>
        <time>2013-06-01T11:39:21Z</time>
      </trkpt>
      <trkpt lat="45.87257" lon="2.98974">
        <ele>776.07</ele>
        <time>2013-06-01T11:39:33Z</time>
      </trkpt>
      <trkpt lat="45.87255" lon="2.98944">
        <ele>776.78</ele>
        <time>2013-06-01T11:39:45Z</time>
      </trkpt>
      <trkpt lat="45.87272" lon="2.98923">
        <ele>777.05</ele>
        <time>2013-06-01T11:39:54Z</time>
      </trkpt>
      <trkpt lat="45.87289" lon="2.98895">
        <ele>777.72</ele>
        <time>2013-06-01T11:40:02Z</time>
      </trkpt>
      <trkpt lat="45.87296" lon="2.98867">
        <ele>778.22</ele>
        <time>2013-06-01T11:40:07Z</time>
      </trkpt>
      <trkpt lat="45.87299" lon="2.98841">
        <ele>778.7</ele>
        <time>2013-06-01T11:40:13Z</time>
      </trkpt>
      <trkpt lat="45.87301" lon="2.98811">
        <ele>778.54</ele>
        <time>2013-06-01T11:40:21Z</time>
      </trkpt>
      <trkpt lat="45.87301" lon="2.98781">
        <ele>777.93</ele>
        <time>2013-06-01T11:40:27Z</time>
      </trkpt>
      <trkpt lat="45.87293" lon="2.98749">
        <ele>778.07</ele>
        <time>2013-06-01T11:40:34Z</time>
      </trkpt>
      <trkpt lat="45.87287" lon="2.98719">
        <ele>778.82</ele>
        <time>2013-06-01T11:40:38Z</time>
      </trkpt>
      <trkpt lat="45.87298" lon="2.98697">
        <ele>781.14</ele>
        <time>2013-06-01T11:40:51Z</time>
      </trkpt>
      <trkpt lat="45.87305" lon="2.98667">
        <ele>782.58</ele>
        <time>2013-06-01T11:40:58Z</time>
      </trkpt>
      <trkpt lat="45.87312" lon="2.98641">
        <ele>782.01</ele>
        <time>2013-06-01T11:41:06Z</time>
      </trkpt>
      <trkpt lat="45.87322" lon="2.98614">
        <ele>781.82</ele>
        <time>2013-06-01T11:41:14Z</time>
      </trkpt>
      <trkpt lat="45.87324" lon="2.98588">
        <ele>782.05</ele>
        <time>2013-06-01T11:41:31Z</time>
      </trkpt>
      <trkpt lat="45.87305" lon="2.98579">
        <ele>782.77</ele>
        <time>2013-06-01T11:41:42Z</time>
      </trkpt>
      <trkpt lat="45.87288" lon="2.98564">
        <ele>782.11</ele>
        <time>2013-06-01T11:41:48Z</time>
      </trkpt>
      <trkpt lat="45.87269" lon="2.98551">
        <ele>781.84</ele>
        <time>2013-06-01T11:41:55Z</time>
      </trkpt>
      <trkpt lat="45.8726" lon="2.98528">
        <ele>781.55</ele>
        <time>2013-06-01T11:42:03Z</time>
      </trkpt>
      <trkpt lat="45.87267" lon="2.98502">
        <ele>780.83</ele>
        <time>2013-06-01T11:42:14Z</time>
      </trkpt>
      <trkpt lat="45.87279" lon="2.98478">
        <ele>781.48</ele>
        <time>2013-06-01T11:42:26Z</time>
      </trkpt>
      <trkpt lat="45.87282" lon="2.98453">
        <ele>783.2</ele>
        <time>2013-06-01T11:42:33Z</time>
      </trkpt>
      <trkpt lat="45.87275" lon="2.98425">
        <ele>784.38</ele>
        <time>2013-06-01T11:42:39Z</time>
      </trkpt>
      <trkpt lat="45.87265" lon="2.98397">
        <ele>785.71</ele>
        <time>2013-06-01T11:42:44Z</time>
      </trkpt>
      <trkpt lat="45.87259" lon="2.98371">
        <ele>786.7</ele>
        <time>2013-06-01T11:42:48Z</time>
      </trkpt>
      <trkpt lat="45.87249" lon="2.98345">
        <ele>787.54</ele>
        <time>2013-06-01T11:42:53Z</time>
      </trkpt>
      <trkpt lat="45.87236" lon="2.98326">
        <ele>787.75</ele>
        <time>2013-06-01T11:42:59Z</time>
      </trkpt>
      <trkpt lat="45.87227" lon="2.98302">
        <ele>786.97</ele>
        <time>2013-06-01T11:43:09Z</time>
      </trkpt>
      <trkpt lat="45.87218" lon="2.98279">
        <ele>786.82</ele>
        <time>2013-06-01T11:43:16Z</time>
      </trkpt>
      <trkpt lat="45.87209" lon="2.98255">
        <ele>786.8</ele>
        <time>2013-06-01T11:43:23Z</time>
      </trkpt>
      <trkpt lat="45.87199" lon="2.98232">
        <ele>787.24</ele>
        <time>2013-06-01T11:43:31Z</time>
      </trkpt>
      <trkpt lat="45.87188" lon="2.9821">
        <ele>787.7</ele>
        <time>2013-06-01T11:43:37Z</time>
      </trkpt>
      <trkpt lat="45.87176" lon="2.98187">
        <ele>788.66</ele>
        <time>2013-06-01T11:43:45Z</time>
      </trkpt>
      <trkpt lat="45.87166" lon="2.98163">
        <ele>788.78</ele>
        <time>2013-06-01T11:43:53Z</time>
      </trkpt>
      <trkpt lat="45.87155" lon="2.98137">
        <ele>789.56</ele>
        <time>2013-06-01T11:44:00Z</time>
      </trkpt>
      <trkpt lat="45.87141" lon="2.98116">
        <ele>791.21</ele>
        <time>2013-06-01T11:44:07Z</time>
      </trkpt>
      <trkpt lat="45.8713" lon="2.98137">
        <ele>792.79</ele>
        <time>2013-06-01T11:44:26Z</time>
      </trkpt>
      <trkpt lat="45.87121" lon="2.98161">
        <ele>793.67</ele>
        <time>2013-06-01T11:44:39Z</time>
      </trkpt>
      <trkpt lat="45.87107" lon="2.9818">
        <ele>794.55</ele>
        <time>2013-06-01T11:44:48Z</time>
      </trkpt>
      <trkpt lat="45.87089" lon="2.98191">
        <ele>795.85</ele>
        <time>2013-06-01T11:44:56Z</time>
      </trkpt>
      <trkpt lat="45.8707" lon="2.98197">
        <ele>796.67</ele>
        <time>2013-06-01T11:45:03Z</time>
      </trkpt>
      <trkpt lat="45.87053" lon="2.98206">
        <ele>796.77</ele>
        <time>2013-06-01T11:45:08Z</time>
      </trkpt>
      <trkpt lat="45.87032" lon="2.98214">
        <ele>796.79</ele>
        <time>2013-06-01T11:45:15Z</time>
      </trkpt>
      <trkpt lat="45.87014" lon="2.98219">
        <ele>797.7</ele>
        <time>2013-06-01T11:45:23Z</time>
      </trkpt>
      <trkpt lat="45.86995" lon="2.98225">
        <ele>797.79</ele>
        <time>2013-06-01T11:45:31Z</time>
      </trkpt>
      <trkpt lat="45.86977" lon="2.98234">
        <ele>798.66</ele>
        <time>2013-06-01T11:45:38Z</time>
      </trkpt>
      <trkpt lat="45.86958" lon="2.98247">
        <ele>799.53</ele>
        <time>2013-06-01T11:45:43Z</time>
      </trkpt>
      <trkpt lat="45.86939" lon="2.98257">
        <ele>800.51</ele>
        <time>2013-06-01T11:45:49Z</time>
      </trkpt>
      <trkpt lat="45.86922" lon="2.9827">
        <ele>801</ele>
        <time>2013-06-01T11:45:55Z</time>
      </trkpt>
      <trkpt lat="45.86906" lon="2.98283">
        <ele>801.72</ele>
        <time>2013-06-01T11:46:03Z</time>
      </trkpt>
      <trkpt lat="45.8689" lon="2.98296">
        <ele>802.61</ele>
        <time>2013-06-01T11:46:09Z</time>
      </trkpt>
      <trkpt lat="45.86871" lon="2.98307">
        <ele>803.6</ele>
        <time>2013-06-01T11:46:16Z</time>
      </trkpt>
      <trkpt lat="45.86853" lon="2.9832">
        <ele>805.26</ele>
        <time>2013-06-01T11:46:24Z</time>
      </trkpt>
      <trkpt lat="45.86834" lon="2.98326">
        <ele>807.38</ele>
        <time>2013-06-01T11:46:34Z</time>
      </trkpt>
      <trkpt lat="45.86815" lon="2.98324">
        <ele>808.03</ele>
        <time>2013-06-01T11:46:45Z</time>
      </trkpt>
      <trkpt lat="45.86796" lon="2.98315">
        <ele>806.99</ele>
        <time>2013-06-01T11:46:55Z</time>
      </trkpt>
      <trkpt lat="45.86778" lon="2.98307">
        <ele>805.87</ele>
        <time>2013-06-01T11:47:05Z</time>
      </trkpt>
      <trkpt lat="45.86762" lon="2.9829">
        <ele>805.36</ele>
        <time>2013-06-01T11:47:17Z</time>
      </trkpt>
      <trkpt lat="45.86744" lon="2.98275">
        <ele>804.87</ele>
        <time>2013-06-01T11:47:24Z</time>
      </trkpt>
      <trkpt lat="45.86727" lon="2.98259">
        <ele>804.81</ele>
        <time>2013-06-01T11:47:32Z</time>
      </trkpt>
      <trkpt lat="45.86712" lon="2.98244">
        <ele>805.48</ele>
        <time>2013-06-01T11:47:40Z</time>
      </trkpt>
      <trkpt lat="45.86703" lon="2.98219">
        <ele>806.96</ele>
        <time>2013-06-01T11:47:50Z</time>
      </trkpt>
      <trkpt lat="45.86692" lon="2.98195">
        <ele>809.08</ele>
        <time>2013-06-01T11:48:02Z</time>
      </trkpt>
      <trkpt lat="45.86677" lon="2.9818">
        <ele>811.19</ele>
        <time>2013-06-01T11:48:11Z</time>
      </trkpt>
      <trkpt lat="45.8666" lon="2.98165">
        <ele>814.05</ele>
        <time>2013-06-01T11:48:20Z</time>
      </trkpt>
      <trkpt lat="45.86643" lon="2.98154">
        <ele>817.94</ele>
        <time>2013-06-01T11:48:30Z</time>
      </trkpt>
      <trkpt lat="45.86625" lon="2.98148">
        <ele>821.76</ele>
        <time>2013-06-01T11:48:40Z</time>
      </trkpt>
      <trkpt lat="45.86606" lon="2.98141">
        <ele>824.47</ele>
        <time>2013-06-01T11:48:49Z</time>
      </trkpt>
      <trkpt lat="45.86589" lon="2.98129">
        <ele>825.7</ele>
        <time>2013-06-01T11:48:58Z</time>
      </trkpt>
      <trkpt lat="45.86573" lon="2.98114">
        <ele>826.86</ele>
        <time>2013-06-01T11:49:06Z</time>
      </trkpt>
      <trkpt lat="45.86558" lon="2.98096">
        <ele>828.74</ele>
        <time>2013-06-01T11:49:15Z</time>
      </trkpt>
      <trkpt lat="45.86544" lon="2.98077">
        <ele>831.09</ele>
        <time>2013-06-01T11:49:23Z</time>
      </trkpt>
      <trkpt lat="45.86529" lon="2.98058">
        <ele>834.07</ele>
        <time>2013-06-01T11:49:32Z</time>
      </trkpt>
      <trkpt lat="45.86513" lon="2.98041">
        <ele>836.33</ele>
        <time>2013-06-01T11:49:41Z</time>
      </trkpt>
      <trkpt lat="45.86496" lon="2.98028">
        <ele>838.48</ele>
        <time>2013-06-01T11:49:51Z</time>
      </trkpt>
      <trkpt lat="45.8648" lon="2.98013">
        <ele>840.57</ele>
        <time>2013-06-01T11:50:02Z</time>
      </trkpt>
      <trkpt lat="45.86464" lon="2.97998">
        <ele>842.61</ele>
        <time>2013-06-01T11:50:18Z</time>
      </trkpt>
      <trkpt lat="45.86447" lon="2.97985">
        <ele>844.45</ele>
        <time>2013-06-01T11:50:31Z</time>
      </trkpt>
      <trkpt lat="45.8643" lon="2.97972">
        <ele>845.61</ele>
        <time>2013-06-01T11:50:42Z</time>
      </trkpt>
      <trkpt lat="45.86415" lon="2.97955">
        <ele>846.22</ele>
        <time>2013-06-01T11:50:51Z</time>
      </trkpt>
      <trkpt lat="45.864" lon="2.97938">
        <ele>846.74</ele>
        <time>2013-06-01T11:50:59Z</time>
      </trkpt>
      <trkpt lat="45.86383" lon="2.97927">
        <ele>848.32</ele>
        <time>2013-06-01T11:51:10Z</time>
      </trkpt>
      <trkpt lat="45.86364" lon="2.97918">
        <ele>848.76</ele>
        <time>2013-06-01T11:51:19Z</time>
      </trkpt>
      <trkpt lat="45.86347" lon="2.9791">
        <ele>849.37</ele>
        <time>2013-06-01T11:51:27Z</time>
      </trkpt>
      <trkpt lat="45.86327" lon="2.97905">
        <ele>850.03</ele>
        <time>2013-06-01T11:51:37Z</time>
      </trkpt>
      <trkpt lat="45.86308" lon="2.97899">
        <ele>849.81</ele>
        <time>2013-06-01T11:51:47Z</time>
      </trkpt>
      <trkpt lat="45.86289" lon="2.97893">
        <ele>849.8</ele>
        <time>2013-06-01T11:51:56Z</time>
      </trkpt>
      <trkpt lat="45.86269" lon="2.9789">
        <ele>849.8</ele>
        <time>2013-06-01T11:52:04Z</time>
      </trkpt>
      <trkpt lat="45.86251" lon="2.9789">
        <ele>849.8</ele>
        <time>2013-06-01T11:52:12Z</time>
      </trkpt>
      <trkpt lat="45.86232" lon="2.97895">
        <ele>850.48</ele>
        <time>2013-06-01T11:52:21Z</time>
      </trkpt>
      <trkpt lat="45.86212" lon="2.97897">
        <ele>851.53</ele>
        <time>2013-06-01T11:52:29Z</time>
      </trkpt>
      <trkpt lat="45.86192" lon="2.97895">
        <ele>852.55</ele>
        <time>2013-06-01T11:52:39Z</time>
      </trkpt>
      <trkpt lat="45.86173" lon="2.97893">
        <ele>853.64</ele>
        <time>2013-06-01T11:52:47Z</time>
      </trkpt>
      <trkpt lat="45.86153" lon="2.9789">
        <ele>854.47</ele>
        <time>2013-06-01T11:52:56Z</time>
      </trkpt>
      <trkpt lat="45.86134" lon="2.9789">
        <ele>855.45</ele>
        <time>2013-06-01T11:53:04Z</time>
      </trkpt>
      <trkpt lat="45.86115" lon="2.9789">
        <ele>856.54</ele>
        <time>2013-06-01T11:53:13Z</time>
      </trkpt>
      <trkpt lat="45.86097" lon="2.9789">
        <ele>857.35</ele>
        <time>2013-06-01T11:53:21Z</time>
      </trkpt>
      <trkpt lat="45.86076" lon="2.9789">
        <ele>858.42</ele>
        <time>2013-06-01T11:53:28Z</time>
      </trkpt>
      <trkpt lat="45.86057" lon="2.9789">
        <ele>859.42</ele>
        <time>2013-06-01T11:53:34Z</time>
      </trkpt>
      <trkpt lat="45.86037" lon="2.97895">
        <ele>861.06</ele>
        <time>2013-06-01T11:53:42Z</time>
      </trkpt>
      <trkpt lat="45.86018" lon="2.97897">
        <ele>862.28</ele>
        <time>2013-06-01T11:53:49Z</time>
      </trkpt>
      <trkpt lat="45.85999" lon="2.97899">
        <ele>863.17</ele>
        <time>2013-06-01T11:53:56Z</time>
      </trkpt>
      <trkpt lat="45.85981" lon="2.97901">
        <ele>863.74</ele>
        <time>2013-06-01T11:54:04Z</time>
      </trkpt>
      <trkpt lat="45.85962" lon="2.97905">
        <ele>864.23</ele>
        <time>2013-06-01T11:54:13Z</time>
      </trkpt>
      <trkpt lat="45.85943" lon="2.97912">
        <ele>865.43</ele>
        <time>2013-06-01T11:54:21Z</time>
      </trkpt>
      <trkpt lat="45.85925" lon="2.97912">
        <ele>867.48</ele>
        <time>2013-06-01T11:54:31Z</time>
      </trkpt>
      <trkpt lat="45.85906" lon="2.97912">
        <ele>869.8</ele>
        <time>2013-06-01T11:54:41Z</time>
      </trkpt>
      <trkpt lat="45.85888" lon="2.97918">
        <ele>871.41</ele>
        <time>2013-06-01T11:54:50Z</time>
      </trkpt>
      <trkpt lat="45.8587" lon="2.97929">
        <ele>872.63</ele>
        <time>2013-06-01T11:54:58Z</time>
      </trkpt>
      <trkpt lat="45.85851" lon="2.97935">
        <ele>873.72</ele>
        <time>2013-06-01T11:55:09Z</time>
      </trkpt>
      <trkpt lat="45.85833" lon="2.97933">
        <ele>874.72</ele>
        <time>2013-06-01T11:55:18Z</time>
      </trkpt>
      <trkpt lat="45.85815" lon="2.97933">
        <ele>875.75</ele>
        <time>2013-06-01T11:55:29Z</time>
      </trkpt>
      <trkpt lat="45.85797" lon="2.97942">
        <ele>877.6</ele>
        <time>2013-06-01T11:55:39Z</time>
      </trkpt>
      <trkpt lat="45.85781" lon="2.97955">
        <ele>879.27</ele>
        <time>2013-06-01T11:55:45Z</time>
      </trkpt>
      <trkpt lat="45.85765" lon="2.9797">
        <ele>881.03</ele>
        <time>2013-06-01T11:55:52Z</time>
      </trkpt>
      <trkpt lat="45.85752" lon="2.97991">
        <ele>881.72</ele>
        <time>2013-06-01T11:56:00Z</time>
      </trkpt>
      <trkpt lat="45.85737" lon="2.98006">
        <ele>881.8</ele>
        <time>2013-06-01T11:56:14Z</time>
      </trkpt>
      <trkpt lat="45.85724" lon="2.9803">
        <ele>881.36</ele>
        <time>2013-06-01T11:56:40Z</time>
      </trkpt>
      <trkpt lat="45.85711" lon="2.98054">
        <ele>880.9</ele>
        <time>2013-06-01T11:56:46Z</time>
      </trkpt>
      <trkpt lat="45.85697" lon="2.98075">
        <ele>880.82</ele>
        <time>2013-06-01T11:56:52Z</time>
      </trkpt>
      <trkpt lat="45.85683" lon="2.98092">
        <ele>880.8</ele>
        <time>2013-06-01T11:56:57Z</time>
      </trkpt>
      <trkpt lat="45.85667" lon="2.98105">
        <ele>880.8</ele>
        <time>2013-06-01T11:57:08Z</time>
      </trkpt>
      <trkpt lat="45.85667" lon="2.98077">
        <ele>876.09</ele>
        <time>2013-06-01T12:01:25Z</time>
      </trkpt>
      <trkpt lat="45.85674" lon="2.98049">
        <ele>873.71</ele>
        <time>2013-06-01T12:01:31Z</time>
      </trkpt>
      <trkpt lat="45.85682" lon="2.98023">
        <ele>870.73</ele>
        <time>2013-06-01T12:01:36Z</time>
      </trkpt>
      <trkpt lat="45.85688" lon="2.97998">
        <ele>869.81</ele>
        <time>2013-06-01T12:01:44Z</time>
      </trkpt>
      <trkpt lat="45.85665" lon="2.98021">
        <ele>869.04</ele>
        <time>2013-06-01T12:01:52Z</time>
      </trkpt>
      <trkpt lat="45.85643" lon="2.98013">
        <ele>868.05</ele>
        <time>2013-06-01T12:02:37Z</time>
      </trkpt>
      <trkpt lat="45.85631" lon="2.97991">
        <ele>870.21</ele>
        <time>2013-06-01T12:03:05Z</time>
      </trkpt>
      <trkpt lat="45.85615" lon="2.97966">
        <ele>871.29</ele>
        <time>2013-06-01T12:03:09Z</time>
      </trkpt>
      <trkpt lat="45.85596" lon="2.9794">
        <ele>871.64</ele>
        <time>2013-06-01T12:03:13Z</time>
      </trkpt>
      <trkpt lat="45.85581" lon="2.97923">
        <ele>871.76</ele>
        <time>2013-06-01T12:03:18Z</time>
      </trkpt>
      <trkpt lat="45.85561" lon="2.97914">
        <ele>872.56</ele>
        <time>2013-06-01T12:03:26Z</time>
      </trkpt>
      <trkpt lat="45.85542" lon="2.97903">
        <ele>872.78</ele>
        <time>2013-06-01T12:03:35Z</time>
      </trkpt>
      <trkpt lat="45.85524" lon="2.97895">
        <ele>873.62</ele>
        <time>2013-06-01T12:03:45Z</time>
      </trkpt>
      <trkpt lat="45.85507" lon="2.9788">
        <ele>874.91</ele>
        <time>2013-06-01T12:03:56Z</time>
      </trkpt>
      <trkpt lat="45.85487" lon="2.97867">
        <ele>877.75</ele>
        <time>2013-06-01T12:04:08Z</time>
      </trkpt>
      <trkpt lat="45.85471" lon="2.97854">
        <ele>881.08</ele>
        <time>2013-06-01T12:04:22Z</time>
      </trkpt>
      <trkpt lat="45.85455" lon="2.97832">
        <ele>884.85</ele>
        <time>2013-06-01T12:04:32Z</time>
      </trkpt>
      <trkpt lat="45.85438" lon="2.97822">
        <ele>888.63</ele>
        <time>2013-06-01T12:04:40Z</time>
      </trkpt>
      <trkpt lat="45.85421" lon="2.97813">
        <ele>892.91</ele>
        <time>2013-06-01T12:04:50Z</time>
      </trkpt>
      <trkpt lat="45.85404" lon="2.97805">
        <ele>897.79</ele>
        <time>2013-06-01T12:05:02Z</time>
      </trkpt>
      <trkpt lat="45.85388" lon="2.9779">
        <ele>900.52</ele>
        <time>2013-06-01T12:05:11Z</time>
      </trkpt>
      <trkpt lat="45.8537" lon="2.97777">
        <ele>902.83</ele>
        <time>2013-06-01T12:05:18Z</time>
      </trkpt>
      <trkpt lat="45.85352" lon="2.97768">
        <ele>906.51</ele>
        <time>2013-06-01T12:05:30Z</time>
      </trkpt>
      <trkpt lat="45.85339" lon="2.97747">
        <ele>909.78</ele>
        <time>2013-06-01T12:05:43Z</time>
      </trkpt>
      <trkpt lat="45.85329" lon="2.97723">
        <ele>911.56</ele>
        <time>2013-06-01T12:05:53Z</time>
      </trkpt>
      <trkpt lat="45.85316" lon="2.97702">
        <ele>912.88</ele>
        <time>2013-06-01T12:06:00Z</time>
      </trkpt>
      <trkpt lat="45.85303" lon="2.97682">
        <ele>914.36</ele>
        <time>2013-06-01T12:06:07Z</time>
      </trkpt>
      <trkpt lat="45.85292" lon="2.97661">
        <ele>916.34</ele>
        <time>2013-06-01T12:06:15Z</time>
      </trkpt>
      <trkpt lat="45.85279" lon="2.97642">
        <ele>918.49</ele>
        <time>2013-06-01T12:06:26Z</time>
      </trkpt>
      <trkpt lat="45.85268" lon="2.97618">
        <ele>919.93</ele>
        <time>2013-06-01T12:06:36Z</time>
      </trkpt>
      <trkpt lat="45.85255" lon="2.97601">
        <ele>921.72</ele>
        <time>2013-06-01T12:06:44Z</time>
      </trkpt>
      <trkpt lat="45.85242" lon="2.97579">
        <ele>925.31</ele>
        <time>2013-06-01T12:06:57Z</time>
      </trkpt>
      <trkpt lat="45.85231" lon="2.97558">
        <ele>928.98</ele>
        <time>2013-06-01T12:07:09Z</time>
      </trkpt>
      <trkpt lat="45.85217" lon="2.97541">
        <ele>933.18</ele>
        <time>2013-06-01T12:07:24Z</time>
      </trkpt>
      <trkpt lat="45.85205" lon="2.97519">
        <ele>936.71</ele>
        <time>2013-06-01T12:07:39Z</time>
      </trkpt>
      <trkpt lat="45.85192" lon="2.97498">
        <ele>939.95</ele>
        <time>2013-06-01T12:07:51Z</time>
      </trkpt>
      <trkpt lat="45.85182" lon="2.97474">
        <ele>942.33</ele>
        <time>2013-06-01T12:08:01Z</time>
      </trkpt>
      <trkpt lat="45.85169" lon="2.97455">
        <ele>945.86</ele>
        <time>2013-06-01T12:08:22Z</time>
      </trkpt>
      <trkpt lat="45.85158" lon="2.97431">
        <ele>948.11</ele>
        <time>2013-06-01T12:08:35Z</time>
      </trkpt>
      <trkpt lat="45.85146" lon="2.9741">
        <ele>950.34</ele>
        <time>2013-06-01T12:08:45Z</time>
      </trkpt>
      <trkpt lat="45.85134" lon="2.97388">
        <ele>953.2</ele>
        <time>2013-06-01T12:08:58Z</time>
      </trkpt>
      <trkpt lat="45.85118" lon="2.97375">
        <ele>958.03</ele>
        <time>2013-06-01T12:09:13Z</time>
      </trkpt>
      <trkpt lat="45.85101" lon="2.97363">
        <ele>963.17</ele>
        <time>2013-06-01T12:09:35Z</time>
      </trkpt>
      <trkpt lat="45.85093" lon="2.97339">
        <ele>966.71</ele>
        <time>2013-06-01T12:10:03Z</time>
      </trkpt>
      <trkpt lat="45.85104" lon="2.97318">
        <ele>970.54</ele>
        <time>2013-06-01T12:10:25Z</time>
      </trkpt>
      <trkpt lat="45.85118" lon="2.97298">
        <ele>970.96</ele>
        <time>2013-06-01T12:10:41Z</time>
      </trkpt>
      <trkpt lat="45.85132" lon="2.97279">
        <ele>973.85</ele>
        <time>2013-06-01T12:10:51Z</time>
      </trkpt>
      <trkpt lat="45.85142" lon="2.97255">
        <ele>976.91</ele>
        <time>2013-06-01T12:11:03Z</time>
      </trkpt>
      <trkpt lat="45.85149" lon="2.9723">
        <ele>980.92</ele>
        <time>2013-06-01T12:11:17Z</time>
      </trkpt>
      <trkpt lat="45.85167" lon="2.97219">
        <ele>986.76</ele>
        <time>2013-06-01T12:12:41Z</time>
      </trkpt>
      <trkpt lat="45.85174" lon="2.97195">
        <ele>1002.04</ele>
        <time>2013-06-01T12:28:15Z</time>
      </trkpt>
      <trkpt lat="45.85186" lon="2.97174">
        <ele>1000.43</ele>
        <time>2013-06-01T12:28:26Z</time>
      </trkpt>
      <trkpt lat="45.85197" lon="2.97152">
        <ele>999.06</ele>
        <time>2013-06-01T12:28:38Z</time>
      </trkpt>
      <trkpt lat="45.85206" lon="2.97129">
        <ele>998.05</ele>
        <time>2013-06-01T12:28:49Z</time>
      </trkpt>
      <trkpt lat="45.85218" lon="2.97103">
        <ele>997.15</ele>
        <time>2013-06-01T12:28:56Z</time>
      </trkpt>
      <trkpt lat="45.85226" lon="2.97079">
        <ele>996.1</ele>
        <time>2013-06-01T12:29:02Z</time>
      </trkpt>
      <trkpt lat="45.8523" lon="2.97054">
        <ele>995.03</ele>
        <time>2013-06-01T12:29:08Z</time>
      </trkpt>
      <trkpt lat="45.85236" lon="2.97028">
        <ele>994.85</ele>
        <time>2013-06-01T12:29:13Z</time>
      </trkpt>
      <trkpt lat="45.85242" lon="2.97">
        <ele>995.39</ele>
        <time>2013-06-01T12:29:18Z</time>
      </trkpt>
      <trkpt lat="45.85243" lon="2.96972">
        <ele>995.98</ele>
        <time>2013-06-01T12:29:24Z</time>
      </trkpt>
      <trkpt lat="45.85245" lon="2.96946">
        <ele>996.65</ele>
        <time>2013-06-01T12:29:30Z</time>
      </trkpt>
      <trkpt lat="45.85245" lon="2.96918">
        <ele>998.37</ele>
        <time>2013-06-01T12:29:38Z</time>
      </trkpt>
      <trkpt lat="45.85237" lon="2.96893">
        <ele>999.56</ele>
        <time>2013-06-01T12:29:45Z</time>
      </trkpt>
      <trkpt lat="45.8523" lon="2.96867">
        <ele>1000.64</ele>
        <time>2013-06-01T12:29:53Z</time>
      </trkpt>
      <trkpt lat="45.85223" lon="2.96839">
        <ele>1001.55</ele>
        <time>2013-06-01T12:30:02Z</time>
      </trkpt>
      <trkpt lat="45.85232" lon="2.96813">
        <ele>1001.77</ele>
        <time>2013-06-01T12:30:10Z</time>
      </trkpt>
      <trkpt lat="45.85244" lon="2.9679">
        <ele>1001.79</ele>
        <time>2013-06-01T12:30:16Z</time>
      </trkpt>
      <trkpt lat="45.85257" lon="2.96766">
        <ele>1001.8</ele>
        <time>2013-06-01T12:30:20Z</time>
      </trkpt>
      <trkpt lat="45.85266" lon="2.96742">
        <ele>1001.8</ele>
        <time>2013-06-01T12:30:23Z</time>
      </trkpt>
      <trkpt lat="45.85276" lon="2.96717">
        <ele>1001.22</ele>
        <time>2013-06-01T12:30:27Z</time>
      </trkpt>
      <trkpt lat="45.85288" lon="2.96693">
        <ele>1000.46</ele>
        <time>2013-06-01T12:30:32Z</time>
      </trkpt>
      <trkpt lat="45.85292" lon="2.96667">
        <ele>999.92</ele>
        <time>2013-06-01T12:30:38Z</time>
      </trkpt>
      <trkpt lat="45.85285" lon="2.96644">
        <ele>999.83</ele>
        <time>2013-06-01T12:30:43Z</time>
      </trkpt>
      <trkpt lat="45.85274" lon="2.9662">
        <ele>1000.24</ele>
        <time>2013-06-01T12:30:49Z</time>
      </trkpt>
      <trkpt lat="45.85264" lon="2.96597">
        <ele>1001.28</ele>
        <time>2013-06-01T12:30:55Z</time>
      </trkpt>
      <trkpt lat="45.85255" lon="2.96571">
        <ele>1003.13</ele>
        <time>2013-06-01T12:31:02Z</time>
      </trkpt>
      <trkpt lat="45.85243" lon="2.96545">
        <ele>1004.39</ele>
        <time>2013-06-01T12:31:09Z</time>
      </trkpt>
      <trkpt lat="45.85233" lon="2.96521">
        <ele>1005.18</ele>
        <time>2013-06-01T12:31:16Z</time>
      </trkpt>
      <trkpt lat="45.85223" lon="2.96498">
        <ele>1006.27</ele>
        <time>2013-06-01T12:31:22Z</time>
      </trkpt>
      <trkpt lat="45.85214" lon="2.96472">
        <ele>1008.78</ele>
        <time>2013-06-01T12:31:31Z</time>
      </trkpt>
      <trkpt lat="45.85203" lon="2.96451">
        <ele>1011.42</ele>
        <time>2013-06-01T12:31:38Z</time>
      </trkpt>
      <trkpt lat="45.85191" lon="2.96429">
        <ele>1013.95</ele>
        <time>2013-06-01T12:31:47Z</time>
      </trkpt>
      <trkpt lat="45.85176" lon="2.96412">
        <ele>1015.6</ele>
        <time>2013-06-01T12:31:56Z</time>
      </trkpt>
      <trkpt lat="45.85158" lon="2.96399">
        <ele>1014.93</ele>
        <time>2013-06-01T12:32:12Z</time>
      </trkpt>
      <trkpt lat="45.85143" lon="2.96382">
        <ele>1013.91</ele>
        <time>2013-06-01T12:32:20Z</time>
      </trkpt>
      <trkpt lat="45.85127" lon="2.96365">
        <ele>1012.89</ele>
        <time>2013-06-01T12:32:25Z</time>
      </trkpt>
      <trkpt lat="45.85113" lon="2.96345">
        <ele>1010.99</ele>
        <time>2013-06-01T12:32:28Z</time>
      </trkpt>
      <trkpt lat="45.85096" lon="2.96326">
        <ele>1007.88</ele>
        <time>2013-06-01T12:32:31Z</time>
      </trkpt>
      <trkpt lat="45.85076" lon="2.96305">
        <ele>1005.27</ele>
        <time>2013-06-01T12:32:34Z</time>
      </trkpt>
      <trkpt lat="45.85061" lon="2.96273">
        <ele>1004.09</ele>
        <time>2013-06-01T12:32:37Z</time>
      </trkpt>
      <trkpt lat="45.8505" lon="2.96249">
        <ele>1003.96</ele>
        <time>2013-06-01T12:32:39Z</time>
      </trkpt>
      <trkpt lat="45.85037" lon="2.96227">
        <ele>1003.89</ele>
        <time>2013-06-01T12:32:41Z</time>
      </trkpt>
      <trkpt lat="45.85025" lon="2.96206">
        <ele>1003.85</ele>
        <time>2013-06-01T12:32:43Z</time>
      </trkpt>
      <trkpt lat="45.8501" lon="2.96189">
        <ele>1003.83</ele>
        <time>2013-06-01T12:32:45Z</time>
      </trkpt>
      <trkpt lat="45.84994" lon="2.96174">
        <ele>1003.82</ele>
        <time>2013-06-01T12:32:47Z</time>
      </trkpt>
      <trkpt lat="45.84971" lon="2.96154">
        <ele>1003.37</ele>
        <time>2013-06-01T12:32:50Z</time>
      </trkpt>
      <trkpt lat="45.84951" lon="2.96133">
        <ele>1002.79</ele>
        <time>2013-06-01T12:32:53Z</time>
      </trkpt>
      <trkpt lat="45.84932" lon="2.96112">
        <ele>1001.97</ele>
        <time>2013-06-01T12:32:56Z</time>
      </trkpt>
      <trkpt lat="45.84917" lon="2.96094">
        <ele>998.75</ele>
        <time>2013-06-01T12:33:06Z</time>
      </trkpt>
      <trkpt lat="45.84895" lon="2.96079">
        <ele>995.75</ele>
        <time>2013-06-01T12:33:32Z</time>
      </trkpt>
      <trkpt lat="45.8488" lon="2.96064">
        <ele>994.27</ele>
        <time>2013-06-01T12:33:36Z</time>
      </trkpt>
      <trkpt lat="45.84862" lon="2.96047">
        <ele>991.75</ele>
        <time>2013-06-01T12:33:40Z</time>
      </trkpt>
      <trkpt lat="45.84846" lon="2.96026">
        <ele>989.98</ele>
        <time>2013-06-01T12:33:44Z</time>
      </trkpt>
      <trkpt lat="45.84837" lon="2.96002">
        <ele>989.17</ele>
        <time>2013-06-01T12:33:48Z</time>
      </trkpt>
      <trkpt lat="45.84824" lon="2.95979">
        <ele>989.65</ele>
        <time>2013-06-01T12:33:53Z</time>
      </trkpt>
      <trkpt lat="45.84804" lon="2.95951">
        <ele>990.61</ele>
        <time>2013-06-01T12:34:02Z</time>
      </trkpt>
      <trkpt lat="45.84789" lon="2.95931">
        <ele>990.78</ele>
        <time>2013-06-01T12:34:10Z</time>
      </trkpt>
      <trkpt lat="45.84772" lon="2.95912">
        <ele>989.78</ele>
        <time>2013-06-01T12:34:17Z</time>
      </trkpt>
      <trkpt lat="45.84756" lon="2.95895">
        <ele>988.65</ele>
        <time>2013-06-01T12:34:25Z</time>
      </trkpt>
      <trkpt lat="45.84738" lon="2.9588">
        <ele>987.1</ele>
        <time>2013-06-01T12:34:34Z</time>
      </trkpt>
      <trkpt lat="45.84722" lon="2.95867">
        <ele>986.87</ele>
        <time>2013-06-01T12:34:39Z</time>
      </trkpt>
      <trkpt lat="45.84703" lon="2.95856">
        <ele>987.88</ele>
        <time>2013-06-01T12:34:45Z</time>
      </trkpt>
      <trkpt lat="45.84683" lon="2.95854">
        <ele>989.25</ele>
        <time>2013-06-01T12:34:52Z</time>
      </trkpt>
      <trkpt lat="45.84656" lon="2.95852">
        <ele>990.69</ele>
        <time>2013-06-01T12:35:01Z</time>
      </trkpt>
      <trkpt lat="45.84637" lon="2.95848">
        <ele>992.36</ele>
        <time>2013-06-01T12:35:07Z</time>
      </trkpt>
      <trkpt lat="45.84618" lon="2.95846">
        <ele>994</ele>
        <time>2013-06-01T12:35:19Z</time>
      </trkpt>
      <trkpt lat="45.84599" lon="2.95841">
        <ele>994.28</ele>
        <time>2013-06-01T12:35:34Z</time>
      </trkpt>
      <trkpt lat="45.84579" lon="2.95848">
        <ele>994.46</ele>
        <time>2013-06-01T12:35:40Z</time>
      </trkpt>
      <trkpt lat="45.84553" lon="2.95848">
        <ele>993.92</ele>
        <time>2013-06-01T12:35:46Z</time>
      </trkpt>
      <trkpt lat="45.84534" lon="2.95846">
        <ele>993.82</ele>
        <time>2013-06-01T12:35:52Z</time>
      </trkpt>
      <trkpt lat="45.84513" lon="2.95841">
        <ele>994.62</ele>
        <time>2013-06-01T12:36:01Z</time>
      </trkpt>
      <trkpt lat="45.84494" lon="2.95835">
        <ele>994.02</ele>
        <time>2013-06-01T12:36:09Z</time>
      </trkpt>
      <trkpt lat="45.8447" lon="2.95822">
        <ele>993.14</ele>
        <time>2013-06-01T12:36:16Z</time>
      </trkpt>
      <trkpt lat="45.84452" lon="2.95805">
        <ele>992.2</ele>
        <time>2013-06-01T12:36:21Z</time>
      </trkpt>
      <trkpt lat="45.8443" lon="2.9579">
        <ele>988.79</ele>
        <time>2013-06-01T12:36:25Z</time>
      </trkpt>
      <trkpt lat="45.84407" lon="2.95779">
        <ele>983.51</ele>
        <time>2013-06-01T12:36:28Z</time>
      </trkpt>
      <trkpt lat="45.84386" lon="2.9577">
        <ele>977.41</ele>
        <time>2013-06-01T12:36:32Z</time>
      </trkpt>
      <trkpt lat="45.84367" lon="2.95766">
        <ele>974.31</ele>
        <time>2013-06-01T12:36:35Z</time>
      </trkpt>
      <trkpt lat="45.84347" lon="2.95755">
        <ele>973.53</ele>
        <time>2013-06-01T12:36:39Z</time>
      </trkpt>
      <trkpt lat="45.84323" lon="2.95747">
        <ele>974.29</ele>
        <time>2013-06-01T12:36:43Z</time>
      </trkpt>
      <trkpt lat="45.84304" lon="2.95745">
        <ele>974.83</ele>
        <time>2013-06-01T12:36:46Z</time>
      </trkpt>
      <trkpt lat="45.84286" lon="2.95743">
        <ele>975.64</ele>
        <time>2013-06-01T12:36:49Z</time>
      </trkpt>
      <trkpt lat="45.84265" lon="2.9574">
        <ele>976.43</ele>
        <time>2013-06-01T12:36:53Z</time>
      </trkpt>
      <trkpt lat="45.84239" lon="2.95738">
        <ele>977.04</ele>
        <time>2013-06-01T12:37:05Z</time>
      </trkpt>
      <trkpt lat="45.84219" lon="2.95736">
        <ele>978.49</ele>
        <time>2013-06-01T12:37:13Z</time>
      </trkpt>
      <trkpt lat="45.84197" lon="2.95732">
        <ele>980.67</ele>
        <time>2013-06-01T12:37:18Z</time>
      </trkpt>
      <trkpt lat="45.84173" lon="2.95723">
        <ele>982.59</ele>
        <time>2013-06-01T12:37:21Z</time>
      </trkpt>
      <trkpt lat="45.84152" lon="2.95712">
        <ele>984.3</ele>
        <time>2013-06-01T12:37:24Z</time>
      </trkpt>
      <trkpt lat="45.84131" lon="2.95702">
        <ele>986</ele>
        <time>2013-06-01T12:37:27Z</time>
      </trkpt>
      <trkpt lat="45.84112" lon="2.95693">
        <ele>987.37</ele>
        <time>2013-06-01T12:37:31Z</time>
      </trkpt>
      <trkpt lat="45.84092" lon="2.95697">
        <ele>987.49</ele>
        <time>2013-06-01T12:37:38Z</time>
      </trkpt>
      <trkpt lat="45.84068" lon="2.95708">
        <ele>985.99</ele>
        <time>2013-06-01T12:37:44Z</time>
      </trkpt>
      <trkpt lat="45.84048" lon="2.95715">
        <ele>984.15</ele>
        <time>2013-06-01T12:37:49Z</time>
      </trkpt>
      <trkpt lat="45.8403" lon="2.9573">
        <ele>982.46</ele>
        <time>2013-06-01T12:37:55Z</time>
      </trkpt>
      <trkpt lat="45.84016" lon="2.95747">
        <ele>981.52</ele>
        <time>2013-06-01T12:38:00Z</time>
      </trkpt>
      <trkpt lat="45.83999" lon="2.95764">
        <ele>980.24</ele>
        <time>2013-06-01T12:38:06Z</time>
      </trkpt>
      <trkpt lat="45.83984" lon="2.95781">
        <ele>979.9</ele>
        <time>2013-06-01T12:38:11Z</time>
      </trkpt>
      <trkpt lat="45.83968" lon="2.95796">
        <ele>980.07</ele>
        <time>2013-06-01T12:38:16Z</time>
      </trkpt>
      <trkpt lat="45.83951" lon="2.95809">
        <ele>981.21</ele>
        <time>2013-06-01T12:38:21Z</time>
      </trkpt>
      <trkpt lat="45.83931" lon="2.95818">
        <ele>982.34</ele>
        <time>2013-06-01T12:38:26Z</time>
      </trkpt>
      <trkpt lat="45.83911" lon="2.9583">
        <ele>983.81</ele>
        <time>2013-06-01T12:38:33Z</time>
      </trkpt>
      <trkpt lat="45.83895" lon="2.95852">
        <ele>985.74</ele>
        <time>2013-06-01T12:38:42Z</time>
      </trkpt>
      <trkpt lat="45.83878" lon="2.95867">
        <ele>987.73</ele>
        <time>2013-06-01T12:38:51Z</time>
      </trkpt>
      <trkpt lat="45.83861" lon="2.95882">
        <ele>989.59</ele>
        <time>2013-06-01T12:38:58Z</time>
      </trkpt>
      <trkpt lat="45.83844" lon="2.95895">
        <ele>990.58</ele>
        <time>2013-06-01T12:39:04Z</time>
      </trkpt>
      <trkpt lat="45.83825" lon="2.95906">
        <ele>991.02</ele>
        <time>2013-06-01T12:39:11Z</time>
      </trkpt>
      <trkpt lat="45.83806" lon="2.95921">
        <ele>992.63</ele>
        <time>2013-06-01T12:39:18Z</time>
      </trkpt>
      <trkpt lat="45.83785" lon="2.95923">
        <ele>994.52</ele>
        <time>2013-06-01T12:39:24Z</time>
      </trkpt>
      <trkpt lat="45.83762" lon="2.95931">
        <ele>996.26</ele>
        <time>2013-06-01T12:39:30Z</time>
      </trkpt>
      <trkpt lat="45.83741" lon="2.95933">
        <ele>996.7</ele>
        <time>2013-06-01T12:39:36Z</time>
      </trkpt>
      <trkpt lat="45.8372" lon="2.95938">
        <ele>996.79</ele>
        <time>2013-06-01T12:39:45Z</time>
      </trkpt>
      <trkpt lat="45.83701" lon="2.95936">
        <ele>999.79</ele>
        <time>2013-06-01T12:40:33Z</time>
      </trkpt>
      <trkpt lat="45.83687" lon="2.95912">
        <ele>1000.48</ele>
        <time>2013-06-01T12:40:37Z</time>
      </trkpt>
      <trkpt lat="45.83675" lon="2.95891">
        <ele>1000.76</ele>
        <time>2013-06-01T12:40:44Z</time>
      </trkpt>
      <trkpt lat="45.8367" lon="2.95865">
        <ele>1003.67</ele>
        <time>2013-06-01T12:41:24Z</time>
      </trkpt>
      <trkpt lat="45.83678" lon="2.95833">
        <ele>1004.01</ele>
        <time>2013-06-01T12:41:28Z</time>
      </trkpt>
      <trkpt lat="45.83694" lon="2.95807">
        <ele>1003.64</ele>
        <time>2013-06-01T12:41:31Z</time>
      </trkpt>
      <trkpt lat="45.8371" lon="2.95781">
        <ele>1003.15</ele>
        <time>2013-06-01T12:41:34Z</time>
      </trkpt>
      <trkpt lat="45.83726" lon="2.95768">
        <ele>1002.75</ele>
        <time>2013-06-01T12:41:36Z</time>
      </trkpt>
      <trkpt lat="45.83743" lon="2.9574">
        <ele>1001.95</ele>
        <time>2013-06-01T12:41:39Z</time>
      </trkpt>
      <trkpt lat="45.83764" lon="2.95721">
        <ele>1000.27</ele>
        <time>2013-06-01T12:41:42Z</time>
      </trkpt>
      <trkpt lat="45.83786" lon="2.95702">
        <ele>998.15</ele>
        <time>2013-06-01T12:41:45Z</time>
      </trkpt>
      <trkpt lat="45.83803" lon="2.9568">
        <ele>995.5</ele>
        <time>2013-06-01T12:41:47Z</time>
      </trkpt>
      <trkpt lat="45.83825" lon="2.95652">
        <ele>990.94</ele>
        <time>2013-06-01T12:41:49Z</time>
      </trkpt>
      <trkpt lat="45.83842" lon="2.95631">
        <ele>986</ele>
        <time>2013-06-01T12:41:51Z</time>
      </trkpt>
      <trkpt lat="45.83853" lon="2.95609">
        <ele>981.91</ele>
        <time>2013-06-01T12:41:53Z</time>
      </trkpt>
      <trkpt lat="45.83868" lon="2.95582">
        <ele>977.36</ele>
        <time>2013-06-01T12:41:56Z</time>
      </trkpt>
      <trkpt lat="45.8388" lon="2.95556">
        <ele>974.72</ele>
        <time>2013-06-01T12:41:59Z</time>
      </trkpt>
      <trkpt lat="45.83888" lon="2.95526">
        <ele>973.41</ele>
        <time>2013-06-01T12:42:03Z</time>
      </trkpt>
      <trkpt lat="45.83888" lon="2.95496">
        <ele>972.31</ele>
        <time>2013-06-01T12:42:07Z</time>
      </trkpt>
      <trkpt lat="45.8389" lon="2.9547">
        <ele>972.4</ele>
        <time>2013-06-01T12:42:11Z</time>
      </trkpt>
      <trkpt lat="45.8389" lon="2.95444">
        <ele>972.09</ele>
        <time>2013-06-01T12:42:15Z</time>
      </trkpt>
      <trkpt lat="45.83882" lon="2.95421">
        <ele>971.92</ele>
        <time>2013-06-01T12:42:18Z</time>
      </trkpt>
      <trkpt lat="45.83879" lon="2.95393">
        <ele>971.85</ele>
        <time>2013-06-01T12:42:21Z</time>
      </trkpt>
      <trkpt lat="45.83873" lon="2.95367">
        <ele>971.82</ele>
        <time>2013-06-01T12:42:24Z</time>
      </trkpt>
      <trkpt lat="45.83859" lon="2.95343">
        <ele>971.37</ele>
        <time>2013-06-01T12:42:27Z</time>
      </trkpt>
      <trkpt lat="45.83844" lon="2.9532">
        <ele>970.6</ele>
        <time>2013-06-01T12:42:30Z</time>
      </trkpt>
      <trkpt lat="45.83832" lon="2.95296">
        <ele>969.89</ele>
        <time>2013-06-01T12:42:33Z</time>
      </trkpt>
      <trkpt lat="45.83813" lon="2.9527">
        <ele>970.05</ele>
        <time>2013-06-01T12:43:00Z</time>
      </trkpt>
      <trkpt lat="45.83794" lon="2.95279">
        <ele>970.79</ele>
        <time>2013-06-01T12:43:14Z</time>
      </trkpt>
      <trkpt lat="45.83776" lon="2.9529">
        <ele>970.8</ele>
        <time>2013-06-01T12:43:26Z</time>
      </trkpt>
      <trkpt lat="45.83758" lon="2.95303">
        <ele>970.8</ele>
        <time>2013-06-01T12:43:36Z</time>
      </trkpt>
      <trkpt lat="45.83741" lon="2.95318">
        <ele>970.8</ele>
        <time>2013-06-01T12:43:46Z</time>
      </trkpt>
      <trkpt lat="45.83722" lon="2.95335">
        <ele>970.8</ele>
        <time>2013-06-01T12:43:56Z</time>
      </trkpt>
      <trkpt lat="45.83703" lon="2.95348">
        <ele>970.8</ele>
        <time>2013-06-01T12:44:04Z</time>
      </trkpt>
      <trkpt lat="45.83684" lon="2.95352">
        <ele>970.8</ele>
        <time>2013-06-01T12:44:10Z</time>
      </trkpt>
      <trkpt lat="45.83666" lon="2.95361">
        <ele>971.48</ele>
        <time>2013-06-01T12:44:16Z</time>
      </trkpt>
      <trkpt lat="45.83645" lon="2.95367">
        <ele>972.01</ele>
        <time>2013-06-01T12:44:23Z</time>
      </trkpt>
      <trkpt lat="45.83625" lon="2.95367">
        <ele>972.91</ele>
        <time>2013-06-01T12:44:29Z</time>
      </trkpt>
      <trkpt lat="45.83604" lon="2.95371">
        <ele>973.68</ele>
        <time>2013-06-01T12:44:36Z</time>
      </trkpt>
      <trkpt lat="45.83584" lon="2.95373">
        <ele>974.55</ele>
        <time>2013-06-01T12:44:45Z</time>
      </trkpt>
      <trkpt lat="45.83565" lon="2.95376">
        <ele>975.85</ele>
        <time>2013-06-01T12:44:54Z</time>
      </trkpt>
      <trkpt lat="45.83545" lon="2.95373">
        <ele>977.82</ele>
        <time>2013-06-01T12:45:04Z</time>
      </trkpt>
      <trkpt lat="45.83527" lon="2.95382">
        <ele>980.89</ele>
        <time>2013-06-01T12:45:14Z</time>
      </trkpt>
      <trkpt lat="45.83507" lon="2.95388">
        <ele>984.84</ele>
        <time>2013-06-01T12:45:24Z</time>
      </trkpt>
      <trkpt lat="45.83488" lon="2.95388">
        <ele>987.91</ele>
        <time>2013-06-01T12:45:33Z</time>
      </trkpt>
      <trkpt lat="45.83467" lon="2.95382">
        <ele>988.89</ele>
        <time>2013-06-01T12:45:39Z</time>
      </trkpt>
      <trkpt lat="45.8345" lon="2.95371">
        <ele>988.82</ele>
        <time>2013-06-01T12:45:44Z</time>
      </trkpt>
      <trkpt lat="45.83429" lon="2.95365">
        <ele>988.8</ele>
        <time>2013-06-01T12:45:50Z</time>
      </trkpt>
      <trkpt lat="45.83404" lon="2.95358">
        <ele>989.73</ele>
        <time>2013-06-01T12:45:54Z</time>
      </trkpt>
      <trkpt lat="45.83381" lon="2.95354">
        <ele>990.89</ele>
        <time>2013-06-01T12:45:56Z</time>
      </trkpt>
      <trkpt lat="45.83358" lon="2.9535">
        <ele>991.74</ele>
        <time>2013-06-01T12:45:59Z</time>
      </trkpt>
      <trkpt lat="45.83336" lon="2.95346">
        <ele>991.78</ele>
        <time>2013-06-01T12:46:02Z</time>
      </trkpt>
      <trkpt lat="45.83314" lon="2.95339">
        <ele>990.71</ele>
        <time>2013-06-01T12:46:05Z</time>
      </trkpt>
      <trkpt lat="45.83289" lon="2.95335">
        <ele>988.92</ele>
        <time>2013-06-01T12:46:08Z</time>
      </trkpt>
      <trkpt lat="45.83263" lon="2.95333">
        <ele>987.01</ele>
        <time>2013-06-01T12:46:11Z</time>
      </trkpt>
      <trkpt lat="45.83242" lon="2.95333">
        <ele>985.29</ele>
        <time>2013-06-01T12:46:14Z</time>
      </trkpt>
      <trkpt lat="45.8322" lon="2.95352">
        <ele>983.61</ele>
        <time>2013-06-01T12:46:25Z</time>
      </trkpt>
      <trkpt lat="45.83206" lon="2.95376">
        <ele>981.85</ele>
        <time>2013-06-01T12:46:34Z</time>
      </trkpt>
      <trkpt lat="45.83196" lon="2.95399">
        <ele>980.14</ele>
        <time>2013-06-01T12:46:42Z</time>
      </trkpt>
      <trkpt lat="45.83183" lon="2.95425">
        <ele>979.31</ele>
        <time>2013-06-01T12:46:51Z</time>
      </trkpt>
      <trkpt lat="45.83171" lon="2.95451">
        <ele>980.42</ele>
        <time>2013-06-01T12:46:58Z</time>
      </trkpt>
      <trkpt lat="45.83158" lon="2.95476">
        <ele>981.84</ele>
        <time>2013-06-01T12:47:07Z</time>
      </trkpt>
      <trkpt lat="45.83143" lon="2.95498">
        <ele>983.97</ele>
        <time>2013-06-01T12:47:15Z</time>
      </trkpt>
      <trkpt lat="45.8313" lon="2.95519">
        <ele>988.91</ele>
        <time>2013-06-01T12:47:25Z</time>
      </trkpt>
      <trkpt lat="45.83123" lon="2.95547">
        <ele>994.19</ele>
        <time>2013-06-01T12:47:37Z</time>
      </trkpt>
      <trkpt lat="45.83117" lon="2.95577">
        <ele>998.63</ele>
        <time>2013-06-01T12:47:46Z</time>
      </trkpt>
      <trkpt lat="45.83113" lon="2.95603">
        <ele>1003.4</ele>
        <time>2013-06-01T12:48:00Z</time>
      </trkpt>
      <trkpt lat="45.8312" lon="2.95631">
        <ele>1007.17</ele>
        <time>2013-06-01T12:48:30Z</time>
      </trkpt>
      <trkpt lat="45.83123" lon="2.95661">
        <ele>1008.37</ele>
        <time>2013-06-01T12:48:36Z</time>
      </trkpt>
      <trkpt lat="45.83121" lon="2.95687">
        <ele>1009.28</ele>
        <time>2013-06-01T12:48:41Z</time>
      </trkpt>
      <trkpt lat="45.83114" lon="2.95715">
        <ele>1009.67</ele>
        <time>2013-06-01T12:48:46Z</time>
      </trkpt>
      <trkpt lat="45.83101" lon="2.95738">
        <ele>1009.77</ele>
        <time>2013-06-01T12:48:51Z</time>
      </trkpt>
      <trkpt lat="45.83091" lon="2.95764">
        <ele>1009.79</ele>
        <time>2013-06-01T12:48:56Z</time>
      </trkpt>
      <trkpt lat="45.83079" lon="2.95785">
        <ele>1009.8</ele>
        <time>2013-06-01T12:49:01Z</time>
      </trkpt>
      <trkpt lat="45.83061" lon="2.95796">
        <ele>1009.8</ele>
        <time>2013-06-01T12:49:06Z</time>
      </trkpt>
      <trkpt lat="45.83042" lon="2.95805">
        <ele>1009.8</ele>
        <time>2013-06-01T12:49:11Z</time>
      </trkpt>
      <trkpt lat="45.83025" lon="2.95818">
        <ele>1010.05</ele>
        <time>2013-06-01T12:49:18Z</time>
      </trkpt>
      <trkpt lat="45.83007" lon="2.95826">
        <ele>1011.3</ele>
        <time>2013-06-01T12:49:26Z</time>
      </trkpt>
      <trkpt lat="45.82989" lon="2.95835">
        <ele>1012.89</ele>
        <time>2013-06-01T12:49:36Z</time>
      </trkpt>
      <trkpt lat="45.82973" lon="2.95848">
        <ele>1014.17</ele>
        <time>2013-06-01T12:49:45Z</time>
      </trkpt>
      <trkpt lat="45.82956" lon="2.95861">
        <ele>1014.71</ele>
        <time>2013-06-01T12:49:52Z</time>
      </trkpt>
      <trkpt lat="45.82939" lon="2.95873">
        <ele>1014.79</ele>
        <time>2013-06-01T12:50:00Z</time>
      </trkpt>
      <trkpt lat="45.82922" lon="2.95884">
        <ele>1010.8</ele>
        <time>2013-06-01T12:50:47Z</time>
      </trkpt>
      <trkpt lat="45.82906" lon="2.95903">
        <ele>1011.62</ele>
        <time>2013-06-01T12:50:55Z</time>
      </trkpt>
      <trkpt lat="45.82889" lon="2.95918">
        <ele>1012.35</ele>
        <time>2013-06-01T12:51:02Z</time>
      </trkpt>
      <trkpt lat="45.82871" lon="2.95918">
        <ele>1012.78</ele>
        <time>2013-06-01T12:51:14Z</time>
      </trkpt>
      <trkpt lat="45.82853" lon="2.95908">
        <ele>1012.8</ele>
        <time>2013-06-01T12:51:24Z</time>
      </trkpt>
      <trkpt lat="45.82837" lon="2.95895">
        <ele>1011.93</ele>
        <time>2013-06-01T12:51:34Z</time>
      </trkpt>
      <trkpt lat="45.82824" lon="2.95876">
        <ele>1011.81</ele>
        <time>2013-06-01T12:51:43Z</time>
      </trkpt>
      <trkpt lat="45.82808" lon="2.95861">
        <ele>1012.38</ele>
        <time>2013-06-01T12:51:54Z</time>
      </trkpt>
      <trkpt lat="45.8279" lon="2.95863">
        <ele>1013.61</ele>
        <time>2013-06-01T12:52:07Z</time>
      </trkpt>
      <trkpt lat="45.82772" lon="2.95869">
        <ele>1014.76</ele>
        <time>2013-06-01T12:52:24Z</time>
      </trkpt>
      <trkpt lat="45.82754" lon="2.95863">
        <ele>1016.54</ele>
        <time>2013-06-01T12:52:45Z</time>
      </trkpt>
      <trkpt lat="45.82733" lon="2.95856">
        <ele>1018.16</ele>
        <time>2013-06-01T12:52:59Z</time>
      </trkpt>
      <trkpt lat="45.82711" lon="2.95854">
        <ele>1018.6</ele>
        <time>2013-06-01T12:53:03Z</time>
      </trkpt>
      <trkpt lat="45.82691" lon="2.9585">
        <ele>1019.17</ele>
        <time>2013-06-01T12:53:07Z</time>
      </trkpt>
      <trkpt lat="45.82673" lon="2.95848">
        <ele>1020.72</ele>
        <time>2013-06-01T12:53:39Z</time>
      </trkpt>
      <trkpt lat="45.82673" lon="2.95873">
        <ele>1021.38</ele>
        <time>2013-06-01T12:54:14Z</time>
      </trkpt>
      <trkpt lat="45.82672" lon="2.95899">
        <ele>1021.95</ele>
        <time>2013-06-01T12:54:19Z</time>
      </trkpt>
      <trkpt lat="45.82673" lon="2.95927">
        <ele>1022.65</ele>
        <time>2013-06-01T12:54:25Z</time>
      </trkpt>
      <trkpt lat="45.82675" lon="2.95953">
        <ele>1022.77</ele>
        <time>2013-06-01T12:54:31Z</time>
      </trkpt>
      <trkpt lat="45.82673" lon="2.95979">
        <ele>1021.67</ele>
        <time>2013-06-01T12:54:39Z</time>
      </trkpt>
      <trkpt lat="45.82662" lon="2.96002">
        <ele>1017.29</ele>
        <time>2013-06-01T12:54:45Z</time>
      </trkpt>
      <trkpt lat="45.82653" lon="2.96028">
        <ele>1014.57</ele>
        <time>2013-06-01T12:54:54Z</time>
      </trkpt>
      <trkpt lat="45.82649" lon="2.9606">
        <ele>1012.27</ele>
        <time>2013-06-01T12:55:03Z</time>
      </trkpt>
      <trkpt lat="45.82645" lon="2.96086">
        <ele>1010.62</ele>
        <time>2013-06-01T12:55:09Z</time>
      </trkpt>
      <trkpt lat="45.82647" lon="2.96118">
        <ele>1007.85</ele>
        <time>2013-06-01T12:55:22Z</time>
      </trkpt>
      <trkpt lat="45.82638" lon="2.96148">
        <ele>990.46</ele>
        <time>2013-06-01T12:55:57Z</time>
      </trkpt>
      <trkpt lat="45.82623" lon="2.96172">
        <ele>985.3</ele>
        <time>2013-06-01T12:56:33Z</time>
      </trkpt>
      <trkpt lat="45.82605" lon="2.96191">
        <ele>982.9</ele>
        <time>2013-06-01T12:56:37Z</time>
      </trkpt>
      <trkpt lat="45.82585" lon="2.96208">
        <ele>978.39</ele>
        <time>2013-06-01T12:56:41Z</time>
      </trkpt>
      <trkpt lat="45.82566" lon="2.96227">
        <ele>973.99</ele>
        <time>2013-06-01T12:56:45Z</time>
      </trkpt>
      <trkpt lat="45.82546" lon="2.96245">
        <ele>969.61</ele>
        <time>2013-06-01T12:56:49Z</time>
      </trkpt>
      <trkpt lat="45.82524" lon="2.9626">
        <ele>966.18</ele>
        <time>2013-06-01T12:56:53Z</time>
      </trkpt>
      <trkpt lat="45.82507" lon="2.96273">
        <ele>963.54</ele>
        <time>2013-06-01T12:56:56Z</time>
      </trkpt>
      <trkpt lat="45.82492" lon="2.96288">
        <ele>961.52</ele>
        <time>2013-06-01T12:56:59Z</time>
      </trkpt>
      <trkpt lat="45.82477" lon="2.96303">
        <ele>960.52</ele>
        <time>2013-06-01T12:57:02Z</time>
      </trkpt>
      <trkpt lat="45.82461" lon="2.96318">
        <ele>959.45</ele>
        <time>2013-06-01T12:57:06Z</time>
      </trkpt>
      <trkpt lat="45.82437" lon="2.96335">
        <ele>959.68</ele>
        <time>2013-06-01T12:57:19Z</time>
      </trkpt>
      <trkpt lat="45.82412" lon="2.96339">
        <ele>960.97</ele>
        <time>2013-06-01T12:57:33Z</time>
      </trkpt>
      <trkpt lat="45.82431" lon="2.96339">
        <ele>961.8</ele>
        <time>2013-06-01T12:58:13Z</time>
      </trkpt>
      <trkpt lat="45.82446" lon="2.96324">
        <ele>961.8</ele>
        <time>2013-06-01T12:58:18Z</time>
      </trkpt>
      <trkpt lat="45.82459" lon="2.963">
        <ele>961.8</ele>
        <time>2013-06-01T12:58:24Z</time>
      </trkpt>
      <trkpt lat="45.82469" lon="2.96279">
        <ele>962.8</ele>
        <time>2013-06-01T13:00:40Z</time>
      </trkpt>
      <trkpt lat="45.82466" lon="2.96281">
        <ele>973.8</ele>
        <time>2013-06-01T13:04:03Z</time>
      </trkpt>
      <trkpt lat="45.82447" lon="2.96285">
        <ele>973.8</ele>
        <time>2013-06-01T13:04:12Z</time>
      </trkpt>
      <trkpt lat="45.82428" lon="2.96277">
        <ele>973.8</ele>
        <time>2013-06-01T13:04:20Z</time>
      </trkpt>
      <trkpt lat="45.82409" lon="2.96264">
        <ele>972.35</ele>
        <time>2013-06-01T13:04:25Z</time>
      </trkpt>
      <trkpt lat="45.82392" lon="2.96249">
        <ele>969.66</ele>
        <time>2013-06-01T13:04:30Z</time>
      </trkpt>
      <trkpt lat="45.82374" lon="2.96238">
        <ele>967.74</ele>
        <time>2013-06-01T13:04:35Z</time>
      </trkpt>
      <trkpt lat="45.82355" lon="2.96221">
        <ele>962.78</ele>
        <time>2013-06-01T13:04:40Z</time>
      </trkpt>
      <trkpt lat="45.82337" lon="2.96206">
        <ele>957.14</ele>
        <time>2013-06-01T13:04:45Z</time>
      </trkpt>
      <trkpt lat="45.82318" lon="2.96193">
        <ele>954.78</ele>
        <time>2013-06-01T13:04:53Z</time>
      </trkpt>
      <trkpt lat="45.82301" lon="2.96182">
        <ele>953.97</ele>
        <time>2013-06-01T13:04:59Z</time>
      </trkpt>
      <trkpt lat="45.82281" lon="2.96167">
        <ele>953.16</ele>
        <time>2013-06-01T13:05:04Z</time>
      </trkpt>
      <trkpt lat="45.82262" lon="2.96152">
        <ele>952.88</ele>
        <time>2013-06-01T13:05:09Z</time>
      </trkpt>
      <trkpt lat="45.82246" lon="2.96139">
        <ele>952.82</ele>
        <time>2013-06-01T13:05:14Z</time>
      </trkpt>
      <trkpt lat="45.82228" lon="2.96124">
        <ele>952.8</ele>
        <time>2013-06-01T13:05:19Z</time>
      </trkpt>
      <trkpt lat="45.82211" lon="2.96107">
        <ele>953.48</ele>
        <time>2013-06-01T13:05:24Z</time>
      </trkpt>
      <trkpt lat="45.82194" lon="2.96092">
        <ele>953.72</ele>
        <time>2013-06-01T13:05:29Z</time>
      </trkpt>
      <trkpt lat="45.82176" lon="2.96071">
        <ele>954.61</ele>
        <time>2013-06-01T13:05:34Z</time>
      </trkpt>
      <trkpt lat="45.82161" lon="2.96047">
        <ele>955.86</ele>
        <time>2013-06-01T13:05:38Z</time>
      </trkpt>
      <trkpt lat="45.8215" lon="2.96026">
        <ele>957.42</ele>
        <time>2013-06-01T13:05:41Z</time>
      </trkpt>
      <trkpt lat="45.82136" lon="2.96004">
        <ele>959.3</ele>
        <time>2013-06-01T13:05:45Z</time>
      </trkpt>
      <trkpt lat="45.82124" lon="2.95979">
        <ele>960.19</ele>
        <time>2013-06-01T13:05:50Z</time>
      </trkpt>
      <trkpt lat="45.82116" lon="2.95951">
        <ele>959.87</ele>
        <time>2013-06-01T13:05:56Z</time>
      </trkpt>
      <trkpt lat="45.82108" lon="2.95923">
        <ele>959.81</ele>
        <time>2013-06-01T13:06:02Z</time>
      </trkpt>
      <trkpt lat="45.821" lon="2.95895">
        <ele>959.8</ele>
        <time>2013-06-01T13:06:09Z</time>
      </trkpt>
      <trkpt lat="45.82093" lon="2.95869">
        <ele>959.8</ele>
        <time>2013-06-01T13:06:16Z</time>
      </trkpt>
      <trkpt lat="45.82087" lon="2.95843">
        <ele>959.8</ele>
        <time>2013-06-01T13:06:22Z</time>
      </trkpt>
      <trkpt lat="45.82083" lon="2.95818">
        <ele>959.8</ele>
        <time>2013-06-01T13:06:27Z</time>
      </trkpt>
      <trkpt lat="45.82078" lon="2.9579">
        <ele>960.56</ele>
        <time>2013-06-01T13:06:33Z</time>
      </trkpt>
      <trkpt lat="45.82073" lon="2.95762">
        <ele>960.77</ele>
        <time>2013-06-01T13:06:40Z</time>
      </trkpt>
      <trkpt lat="45.82068" lon="2.95734">
        <ele>961.8</ele>
        <time>2013-06-01T13:08:50Z</time>
      </trkpt>
      <trkpt lat="45.82063" lon="2.95708">
        <ele>961.55</ele>
        <time>2013-06-01T13:08:55Z</time>
      </trkpt>
      <trkpt lat="45.82061" lon="2.95682">
        <ele>961.29</ele>
        <time>2013-06-01T13:08:59Z</time>
      </trkpt>
      <trkpt lat="45.82056" lon="2.95655">
        <ele>961.68</ele>
        <time>2013-06-01T13:09:04Z</time>
      </trkpt>
      <trkpt lat="45.82052" lon="2.95627">
        <ele>962.02</ele>
        <time>2013-06-01T13:09:09Z</time>
      </trkpt>
      <trkpt lat="45.82048" lon="2.95601">
        <ele>962.61</ele>
        <time>2013-06-01T13:09:14Z</time>
      </trkpt>
      <trkpt lat="45.82043" lon="2.95575">
        <ele>962.76</ele>
        <time>2013-06-01T13:09:19Z</time>
      </trkpt>
      <trkpt lat="45.8204" lon="2.95549">
        <ele>962.79</ele>
        <time>2013-06-01T13:09:25Z</time>
      </trkpt>
      <trkpt lat="45.82038" lon="2.95524">
        <ele>962.8</ele>
        <time>2013-06-01T13:09:31Z</time>
      </trkpt>
      <trkpt lat="45.82035" lon="2.95496">
        <ele>962.8</ele>
        <time>2013-06-01T13:09:37Z</time>
      </trkpt>
      <trkpt lat="45.82034" lon="2.9547">
        <ele>962.8</ele>
        <time>2013-06-01T13:09:43Z</time>
      </trkpt>
      <trkpt lat="45.82033" lon="2.95442">
        <ele>962.8</ele>
        <time>2013-06-01T13:09:49Z</time>
      </trkpt>
      <trkpt lat="45.82031" lon="2.95416">
        <ele>962.8</ele>
        <time>2013-06-01T13:09:54Z</time>
      </trkpt>
      <trkpt lat="45.82031" lon="2.95391">
        <ele>962.8</ele>
        <time>2013-06-01T13:10:00Z</time>
      </trkpt>
      <trkpt lat="45.82028" lon="2.95365">
        <ele>962.8</ele>
        <time>2013-06-01T13:10:05Z</time>
      </trkpt>
      <trkpt lat="45.82028" lon="2.95339">
        <ele>963.38</ele>
        <time>2013-06-01T13:10:11Z</time>
      </trkpt>
      <trkpt lat="45.82029" lon="2.95313">
        <ele>963.72</ele>
        <time>2013-06-01T13:10:17Z</time>
      </trkpt>
      <trkpt lat="45.82031" lon="2.95285">
        <ele>963.79</ele>
        <time>2013-06-01T13:10:24Z</time>
      </trkpt>
      <trkpt lat="45.82032" lon="2.9526">
        <ele>963.8</ele>
        <time>2013-06-01T13:10:32Z</time>
      </trkpt>
      <trkpt lat="45.82035" lon="2.95234">
        <ele>964.56</ele>
        <time>2013-06-01T13:10:39Z</time>
      </trkpt>
      <trkpt lat="45.82036" lon="2.95208">
        <ele>964.78</ele>
        <time>2013-06-01T13:10:47Z</time>
      </trkpt>
      <trkpt lat="45.82037" lon="2.9518">
        <ele>965.38</ele>
        <time>2013-06-01T13:10:56Z</time>
      </trkpt>
      <trkpt lat="45.82044" lon="2.95155">
        <ele>965.78</ele>
        <time>2013-06-01T13:11:06Z</time>
      </trkpt>
      <trkpt lat="45.82052" lon="2.95131">
        <ele>966.7</ele>
        <time>2013-06-01T13:11:17Z</time>
      </trkpt>
      <trkpt lat="45.82057" lon="2.95103">
        <ele>966.79</ele>
        <time>2013-06-01T13:11:28Z</time>
      </trkpt>
      <trkpt lat="45.82062" lon="2.95075">
        <ele>967.74</ele>
        <time>2013-06-01T13:11:38Z</time>
      </trkpt>
      <trkpt lat="45.82064" lon="2.95047">
        <ele>968.23</ele>
        <time>2013-06-01T13:11:46Z</time>
      </trkpt>
      <trkpt lat="45.82068" lon="2.95022">
        <ele>968.97</ele>
        <time>2013-06-01T13:11:53Z</time>
      </trkpt>
      <trkpt lat="45.82071" lon="2.94996">
        <ele>969.99</ele>
        <time>2013-06-01T13:12:02Z</time>
      </trkpt>
      <trkpt lat="45.82073" lon="2.9497">
        <ele>971</ele>
        <time>2013-06-01T13:12:12Z</time>
      </trkpt>
      <trkpt lat="45.82073" lon="2.94942">
        <ele>971.94</ele>
        <time>2013-06-01T13:12:19Z</time>
      </trkpt>
      <trkpt lat="45.82072" lon="2.94914">
        <ele>973.47</ele>
        <time>2013-06-01T13:12:25Z</time>
      </trkpt>
      <trkpt lat="45.82078" lon="2.94888">
        <ele>973.77</ele>
        <time>2013-06-01T13:12:33Z</time>
      </trkpt>
      <trkpt lat="45.8209" lon="2.94867">
        <ele>974.72</ele>
        <time>2013-06-01T13:12:42Z</time>
      </trkpt>
      <trkpt lat="45.82102" lon="2.94848">
        <ele>975.56</ele>
        <time>2013-06-01T13:12:54Z</time>
      </trkpt>
      <trkpt lat="45.82116" lon="2.94831">
        <ele>977.67</ele>
        <time>2013-06-01T13:13:52Z</time>
      </trkpt>
      <trkpt lat="45.82127" lon="2.94809">
        <ele>979.75</ele>
        <time>2013-06-01T13:14:11Z</time>
      </trkpt>
      <trkpt lat="45.82141" lon="2.9479">
        <ele>981.33</ele>
        <time>2013-06-01T13:14:36Z</time>
      </trkpt>
      <trkpt lat="45.82153" lon="2.94768">
        <ele>982.21</ele>
        <time>2013-06-01T13:14:46Z</time>
      </trkpt>
      <trkpt lat="45.82164" lon="2.94745">
        <ele>982.77</ele>
        <time>2013-06-01T13:14:57Z</time>
      </trkpt>
      <trkpt lat="45.82175" lon="2.94723">
        <ele>983.23</ele>
        <time>2013-06-01T13:15:03Z</time>
      </trkpt>
      <trkpt lat="45.82184" lon="2.947">
        <ele>983.72</ele>
        <time>2013-06-01T13:15:10Z</time>
      </trkpt>
      <trkpt lat="45.82196" lon="2.94678">
        <ele>983.8</ele>
        <time>2013-06-01T13:15:38Z</time>
      </trkpt>
      <trkpt lat="45.82198" lon="2.94652">
        <ele>983.12</ele>
        <time>2013-06-01T13:16:00Z</time>
      </trkpt>
      <trkpt lat="45.82214" lon="2.94635">
        <ele>982.8</ele>
        <time>2013-06-01T13:16:52Z</time>
      </trkpt>
      <trkpt lat="45.82232" lon="2.94622">
        <ele>982.8</ele>
        <time>2013-06-01T13:16:58Z</time>
      </trkpt>
      <trkpt lat="45.82248" lon="2.9461">
        <ele>983.05</ele>
        <time>2013-06-01T13:17:04Z</time>
      </trkpt>
      <trkpt lat="45.82264" lon="2.94597">
        <ele>983.67</ele>
        <time>2013-06-01T13:17:10Z</time>
      </trkpt>
      <trkpt lat="45.82282" lon="2.94582">
        <ele>983.78</ele>
        <time>2013-06-01T13:17:16Z</time>
      </trkpt>
      <trkpt lat="45.82299" lon="2.94571">
        <ele>984.04</ele>
        <time>2013-06-01T13:17:21Z</time>
      </trkpt>
      <trkpt lat="45.82316" lon="2.94558">
        <ele>984.62</ele>
        <time>2013-06-01T13:17:26Z</time>
      </trkpt>
      <trkpt lat="45.82334" lon="2.94547">
        <ele>984.76</ele>
        <time>2013-06-01T13:17:31Z</time>
      </trkpt>
      <trkpt lat="45.82352" lon="2.94537">
        <ele>985.55</ele>
        <time>2013-06-01T13:17:36Z</time>
      </trkpt>
      <trkpt lat="45.82372" lon="2.94528">
        <ele>986.42</ele>
        <time>2013-06-01T13:17:41Z</time>
      </trkpt>
      <trkpt lat="45.82389" lon="2.94519">
        <ele>986.71</ele>
        <time>2013-06-01T13:17:46Z</time>
      </trkpt>
      <trkpt lat="45.82407" lon="2.94511">
        <ele>986.78</ele>
        <time>2013-06-01T13:17:51Z</time>
      </trkpt>
      <trkpt lat="45.82426" lon="2.94502">
        <ele>986.79</ele>
        <time>2013-06-01T13:17:56Z</time>
      </trkpt>
      <trkpt lat="45.82446" lon="2.94492">
        <ele>986.8</ele>
        <time>2013-06-01T13:18:00Z</time>
      </trkpt>
      <trkpt lat="45.82468" lon="2.94481">
        <ele>986.8</ele>
        <time>2013-06-01T13:18:04Z</time>
      </trkpt>
      <trkpt lat="45.82491" lon="2.9447">
        <ele>987.24</ele>
        <time>2013-06-01T13:18:07Z</time>
      </trkpt>
      <trkpt lat="45.82514" lon="2.94466">
        <ele>987.56</ele>
        <time>2013-06-01T13:18:10Z</time>
      </trkpt>
      <trkpt lat="45.82534" lon="2.94464">
        <ele>987.12</ele>
        <time>2013-06-01T13:18:13Z</time>
      </trkpt>
      <trkpt lat="45.82553" lon="2.94464">
        <ele>986.65</ele>
        <time>2013-06-01T13:18:17Z</time>
      </trkpt>
      <trkpt lat="45.82574" lon="2.94453">
        <ele>985.75</ele>
        <time>2013-06-01T13:18:22Z</time>
      </trkpt>
      <trkpt lat="45.82596" lon="2.94449">
        <ele>985.1</ele>
        <time>2013-06-01T13:18:26Z</time>
      </trkpt>
      <trkpt lat="45.82616" lon="2.94444">
        <ele>984.89</ele>
        <time>2013-06-01T13:18:30Z</time>
      </trkpt>
      <trkpt lat="45.82637" lon="2.94442">
        <ele>984.83</ele>
        <time>2013-06-01T13:18:34Z</time>
      </trkpt>
      <trkpt lat="45.82659" lon="2.94442">
        <ele>984.81</ele>
        <time>2013-06-01T13:18:38Z</time>
      </trkpt>
      <trkpt lat="45.82683" lon="2.94442">
        <ele>984.8</ele>
        <time>2013-06-01T13:18:42Z</time>
      </trkpt>
      <trkpt lat="45.82702" lon="2.94442">
        <ele>984.36</ele>
        <time>2013-06-01T13:18:45Z</time>
      </trkpt>
      <trkpt lat="45.82724" lon="2.94436">
        <ele>983.6</ele>
        <time>2013-06-01T13:18:48Z</time>
      </trkpt>
      <trkpt lat="45.82743" lon="2.94427">
        <ele>981.36</ele>
        <time>2013-06-01T13:20:21Z</time>
      </trkpt>
      <trkpt lat="45.82761" lon="2.94416">
        <ele>980.9</ele>
        <time>2013-06-01T13:20:27Z</time>
      </trkpt>
      <trkpt lat="45.8278" lon="2.94406">
        <ele>978.79</ele>
        <time>2013-06-01T13:20:32Z</time>
      </trkpt>
      <trkpt lat="45.82798" lon="2.94395">
        <ele>976.85</ele>
        <time>2013-06-01T13:20:36Z</time>
      </trkpt>
      <trkpt lat="45.82816" lon="2.9438">
        <ele>975.45</ele>
        <time>2013-06-01T13:20:40Z</time>
      </trkpt>
      <trkpt lat="45.82832" lon="2.94363">
        <ele>973.88</ele>
        <time>2013-06-01T13:20:44Z</time>
      </trkpt>
      <trkpt lat="45.82843" lon="2.94384">
        <ele>971.74</ele>
        <time>2013-06-01T13:21:00Z</time>
      </trkpt>
      <trkpt lat="45.82863" lon="2.94384">
        <ele>970.49</ele>
        <time>2013-06-01T13:21:07Z</time>
      </trkpt>
      <trkpt lat="45.82882" lon="2.94378">
        <ele>969.31</ele>
        <time>2013-06-01T13:21:14Z</time>
      </trkpt>
      <trkpt lat="45.82901" lon="2.94369">
        <ele>968.31</ele>
        <time>2013-06-01T13:21:20Z</time>
      </trkpt>
      <trkpt lat="45.8292" lon="2.94356">
        <ele>966.08</ele>
        <time>2013-06-01T13:21:25Z</time>
      </trkpt>
      <trkpt lat="45.82938" lon="2.94341">
        <ele>964.18</ele>
        <time>2013-06-01T13:21:28Z</time>
      </trkpt>
      <trkpt lat="45.82959" lon="2.94326">
        <ele>962.55</ele>
        <time>2013-06-01T13:21:31Z</time>
      </trkpt>
      <trkpt lat="45.82979" lon="2.94311">
        <ele>960.52</ele>
        <time>2013-06-01T13:21:34Z</time>
      </trkpt>
      <trkpt lat="45.82998" lon="2.94296">
        <ele>958.51</ele>
        <time>2013-06-01T13:21:37Z</time>
      </trkpt>
      <trkpt lat="45.83017" lon="2.94283">
        <ele>956.69</ele>
        <time>2013-06-01T13:21:40Z</time>
      </trkpt>
      <trkpt lat="45.83036" lon="2.94266">
        <ele>955.4</ele>
        <time>2013-06-01T13:21:44Z</time>
      </trkpt>
      <trkpt lat="45.83053" lon="2.94251">
        <ele>954.99</ele>
        <time>2013-06-01T13:21:48Z</time>
      </trkpt>
      <trkpt lat="45.8307" lon="2.9423">
        <ele>954.86</ele>
        <time>2013-06-01T13:21:52Z</time>
      </trkpt>
      <trkpt lat="45.83087" lon="2.94208">
        <ele>954.82</ele>
        <time>2013-06-01T13:21:56Z</time>
      </trkpt>
      <trkpt lat="45.83103" lon="2.94189">
        <ele>955.38</ele>
        <time>2013-06-01T13:22:00Z</time>
      </trkpt>
      <trkpt lat="45.8312" lon="2.94165">
        <ele>955.67</ele>
        <time>2013-06-01T13:22:04Z</time>
      </trkpt>
      <trkpt lat="45.83133" lon="2.94148">
        <ele>955.74</ele>
        <time>2013-06-01T13:22:07Z</time>
      </trkpt>
      <trkpt lat="45.83151" lon="2.94127">
        <ele>955.34</ele>
        <time>2013-06-01T13:22:11Z</time>
      </trkpt>
      <trkpt lat="45.83168" lon="2.94103">
        <ele>954.72</ele>
        <time>2013-06-01T13:22:15Z</time>
      </trkpt>
      <trkpt lat="45.83182" lon="2.94086">
        <ele>954.19</ele>
        <time>2013-06-01T13:22:18Z</time>
      </trkpt>
      <trkpt lat="45.83199" lon="2.94067">
        <ele>953.53</ele>
        <time>2013-06-01T13:22:21Z</time>
      </trkpt>
      <trkpt lat="45.83216" lon="2.94045">
        <ele>952.67</ele>
        <time>2013-06-01T13:22:24Z</time>
      </trkpt>
      <trkpt lat="45.83233" lon="2.94026">
        <ele>951.92</ele>
        <time>2013-06-01T13:22:27Z</time>
      </trkpt>
      <trkpt lat="45.83248" lon="2.94007">
        <ele>950.83</ele>
        <time>2013-06-01T13:22:30Z</time>
      </trkpt>
      <trkpt lat="45.83263" lon="2.93989">
        <ele>949.66</ele>
        <time>2013-06-01T13:22:33Z</time>
      </trkpt>
      <trkpt lat="45.83282" lon="2.93972">
        <ele>948.14</ele>
        <time>2013-06-01T13:22:37Z</time>
      </trkpt>
      <trkpt lat="45.833" lon="2.93953">
        <ele>947.22</ele>
        <time>2013-06-01T13:22:41Z</time>
      </trkpt>
      <trkpt lat="45.83317" lon="2.93936">
        <ele>946.35</ele>
        <time>2013-06-01T13:22:45Z</time>
      </trkpt>
      <trkpt lat="45.83338" lon="2.93923">
        <ele>945.4</ele>
        <time>2013-06-01T13:22:49Z</time>
      </trkpt>
      <trkpt lat="45.83364" lon="2.93919">
        <ele>944.22</ele>
        <time>2013-06-01T13:22:52Z</time>
      </trkpt>
      <trkpt lat="45.83383" lon="2.93921">
        <ele>943.35</ele>
        <time>2013-06-01T13:22:54Z</time>
      </trkpt>
      <trkpt lat="45.83404" lon="2.93919">
        <ele>942.67</ele>
        <time>2013-06-01T13:22:56Z</time>
      </trkpt>
      <trkpt lat="45.83425" lon="2.93914">
        <ele>941.85</ele>
        <time>2013-06-01T13:22:58Z</time>
      </trkpt>
      <trkpt lat="45.83446" lon="2.93899">
        <ele>941.14</ele>
        <time>2013-06-01T13:23:00Z</time>
      </trkpt>
      <trkpt lat="45.83464" lon="2.9388">
        <ele>940.55</ele>
        <time>2013-06-01T13:23:02Z</time>
      </trkpt>
      <trkpt lat="45.8348" lon="2.93859">
        <ele>940.22</ele>
        <time>2013-06-01T13:23:04Z</time>
      </trkpt>
      <trkpt lat="45.83493" lon="2.93835">
        <ele>940.04</ele>
        <time>2013-06-01T13:23:06Z</time>
      </trkpt>
      <trkpt lat="45.83504" lon="2.93811">
        <ele>939.68</ele>
        <time>2013-06-01T13:23:08Z</time>
      </trkpt>
      <trkpt lat="45.83513" lon="2.93788">
        <ele>939.3</ele>
        <time>2013-06-01T13:23:10Z</time>
      </trkpt>
      <trkpt lat="45.83526" lon="2.93756">
        <ele>939.01</ele>
        <time>2013-06-01T13:23:13Z</time>
      </trkpt>
      <trkpt lat="45.83539" lon="2.93723">
        <ele>938.45</ele>
        <time>2013-06-01T13:23:16Z</time>
      </trkpt>
      <trkpt lat="45.83549" lon="2.93695">
        <ele>937.25</ele>
        <time>2013-06-01T13:23:19Z</time>
      </trkpt>
      <trkpt lat="45.83559" lon="2.93668">
        <ele>936.26</ele>
        <time>2013-06-01T13:23:23Z</time>
      </trkpt>
      <trkpt lat="45.83568" lon="2.9364">
        <ele>936.43</ele>
        <time>2013-06-01T13:23:26Z</time>
      </trkpt>
      <trkpt lat="45.83577" lon="2.93614">
        <ele>936.39</ele>
        <time>2013-06-01T13:23:29Z</time>
      </trkpt>
      <trkpt lat="45.83586" lon="2.93588">
        <ele>934.04</ele>
        <time>2013-06-01T13:23:33Z</time>
      </trkpt>
      <trkpt lat="45.83594" lon="2.93562">
        <ele>930.56</ele>
        <time>2013-06-01T13:23:37Z</time>
      </trkpt>
      <trkpt lat="45.83601" lon="2.93539">
        <ele>927.95</ele>
        <time>2013-06-01T13:23:40Z</time>
      </trkpt>
      <trkpt lat="45.83613" lon="2.93517">
        <ele>926.27</ele>
        <time>2013-06-01T13:23:43Z</time>
      </trkpt>
      <trkpt lat="45.83626" lon="2.93496">
        <ele>924.98</ele>
        <time>2013-06-01T13:23:46Z</time>
      </trkpt>
      <trkpt lat="45.83641" lon="2.93477">
        <ele>923.86</ele>
        <time>2013-06-01T13:23:49Z</time>
      </trkpt>
      <trkpt lat="45.83657" lon="2.93459">
        <ele>922.81</ele>
        <time>2013-06-01T13:23:52Z</time>
      </trkpt>
      <trkpt lat="45.83672" lon="2.93444">
        <ele>921.98</ele>
        <time>2013-06-01T13:23:55Z</time>
      </trkpt>
      <trkpt lat="45.83688" lon="2.93429">
        <ele>921.3</ele>
        <time>2013-06-01T13:23:58Z</time>
      </trkpt>
      <trkpt lat="45.83705" lon="2.9341">
        <ele>921.01</ele>
        <time>2013-06-01T13:24:01Z</time>
      </trkpt>
      <trkpt lat="45.83714" lon="2.93382">
        <ele>920.92</ele>
        <time>2013-06-01T13:24:03Z</time>
      </trkpt>
      <trkpt lat="45.83728" lon="2.93356">
        <ele>920.18</ele>
        <time>2013-06-01T13:24:05Z</time>
      </trkpt>
      <trkpt lat="45.83742" lon="2.93335">
        <ele>918.89</ele>
        <time>2013-06-01T13:24:07Z</time>
      </trkpt>
      <trkpt lat="45.83755" lon="2.93314">
        <ele>916.85</ele>
        <time>2013-06-01T13:24:09Z</time>
      </trkpt>
      <trkpt lat="45.83769" lon="2.93281">
        <ele>914.4</ele>
        <time>2013-06-01T13:24:12Z</time>
      </trkpt>
      <trkpt lat="45.83775" lon="2.93247">
        <ele>911.49</ele>
        <time>2013-06-01T13:24:15Z</time>
      </trkpt>
      <trkpt lat="45.8378" lon="2.93215">
        <ele>909.11</ele>
        <time>2013-06-01T13:24:18Z</time>
      </trkpt>
      <trkpt lat="45.83786" lon="2.93183">
        <ele>907.77</ele>
        <time>2013-06-01T13:24:21Z</time>
      </trkpt>
      <trkpt lat="45.83793" lon="2.93153">
        <ele>907.21</ele>
        <time>2013-06-01T13:24:24Z</time>
      </trkpt>
      <trkpt lat="45.83803" lon="2.93123">
        <ele>907.11</ele>
        <time>2013-06-01T13:24:27Z</time>
      </trkpt>
      <trkpt lat="45.83816" lon="2.93099">
        <ele>906.93</ele>
        <time>2013-06-01T13:24:30Z</time>
      </trkpt>
      <trkpt lat="45.83835" lon="2.93082">
        <ele>906.85</ele>
        <time>2013-06-01T13:24:33Z</time>
      </trkpt>
      <trkpt lat="45.83858" lon="2.93069">
        <ele>905.99</ele>
        <time>2013-06-01T13:24:36Z</time>
      </trkpt>
      <trkpt lat="45.8388" lon="2.93058">
        <ele>904.73</ele>
        <time>2013-06-01T13:24:39Z</time>
      </trkpt>
      <trkpt lat="45.83903" lon="2.9305">
        <ele>903.61</ele>
        <time>2013-06-01T13:24:42Z</time>
      </trkpt>
      <trkpt lat="45.83924" lon="2.93041">
        <ele>902.7</ele>
        <time>2013-06-01T13:24:45Z</time>
      </trkpt>
      <trkpt lat="45.83946" lon="2.93032">
        <ele>902.18</ele>
        <time>2013-06-01T13:24:48Z</time>
      </trkpt>
      <trkpt lat="45.83965" lon="2.93024">
        <ele>901.96</ele>
        <time>2013-06-01T13:24:51Z</time>
      </trkpt>
      <trkpt lat="45.83984" lon="2.93015">
        <ele>901.43</ele>
        <time>2013-06-01T13:24:54Z</time>
      </trkpt>
      <trkpt lat="45.84004" lon="2.93011">
        <ele>901.07</ele>
        <time>2013-06-01T13:24:57Z</time>
      </trkpt>
      <trkpt lat="45.84023" lon="2.93007">
        <ele>900.33</ele>
        <time>2013-06-01T13:25:00Z</time>
      </trkpt>
      <trkpt lat="45.84041" lon="2.93">
        <ele>899.45</ele>
        <time>2013-06-01T13:25:03Z</time>
      </trkpt>
      <trkpt lat="45.84063" lon="2.92994">
        <ele>897.88</ele>
        <time>2013-06-01T13:25:07Z</time>
      </trkpt>
      <trkpt lat="45.8408" lon="2.92985">
        <ele>896.43</ele>
        <time>2013-06-01T13:25:10Z</time>
      </trkpt>
      <trkpt lat="45.84099" lon="2.92972">
        <ele>894.88</ele>
        <time>2013-06-01T13:25:14Z</time>
      </trkpt>
      <trkpt lat="45.84123" lon="2.92968">
        <ele>893.84</ele>
        <time>2013-06-01T13:25:25Z</time>
      </trkpt>
      <trkpt lat="45.84146" lon="2.92974">
        <ele>893.8</ele>
        <time>2013-06-01T13:25:38Z</time>
      </trkpt>
      <trkpt lat="45.84134" lon="2.92953">
        <ele>892.39</ele>
        <time>2013-06-01T13:25:54Z</time>
      </trkpt>
      <trkpt lat="45.84124" lon="2.92929">
        <ele>890.67</ele>
        <time>2013-06-01T13:25:59Z</time>
      </trkpt>
      <trkpt lat="45.84114" lon="2.92906">
        <ele>888.27</ele>
        <time>2013-06-01T13:26:03Z</time>
      </trkpt>
      <trkpt lat="45.84108" lon="2.92876">
        <ele>886.58</ele>
        <time>2013-06-01T13:26:07Z</time>
      </trkpt>
      <trkpt lat="45.84105" lon="2.92844">
        <ele>886.05</ele>
        <time>2013-06-01T13:26:11Z</time>
      </trkpt>
      <trkpt lat="45.84107" lon="2.92814">
        <ele>885.88</ele>
        <time>2013-06-01T13:26:15Z</time>
      </trkpt>
      <trkpt lat="45.84113" lon="2.92786">
        <ele>885.14</ele>
        <time>2013-06-01T13:26:19Z</time>
      </trkpt>
      <trkpt lat="45.84124" lon="2.9276">
        <ele>884.66</ele>
        <time>2013-06-01T13:26:23Z</time>
      </trkpt>
      <trkpt lat="45.84142" lon="2.92751">
        <ele>883.82</ele>
        <time>2013-06-01T13:26:27Z</time>
      </trkpt>
      <trkpt lat="45.84161" lon="2.92745">
        <ele>881.17</ele>
        <time>2013-06-01T13:26:31Z</time>
      </trkpt>
      <trkpt lat="45.84177" lon="2.92723">
        <ele>878.53</ele>
        <time>2013-06-01T13:26:35Z</time>
      </trkpt>
      <trkpt lat="45.84192" lon="2.927">
        <ele>876.41</ele>
        <time>2013-06-01T13:26:39Z</time>
      </trkpt>
      <trkpt lat="45.84206" lon="2.92674">
        <ele>875.31</ele>
        <time>2013-06-01T13:26:43Z</time>
      </trkpt>
      <trkpt lat="45.84221" lon="2.9265">
        <ele>874.96</ele>
        <time>2013-06-01T13:26:47Z</time>
      </trkpt>
      <trkpt lat="45.84236" lon="2.92625">
        <ele>874.85</ele>
        <time>2013-06-01T13:26:51Z</time>
      </trkpt>
      <trkpt lat="45.8425" lon="2.92601">
        <ele>875.25</ele>
        <time>2013-06-01T13:26:55Z</time>
      </trkpt>
      <trkpt lat="45.84264" lon="2.9258">
        <ele>875.63</ele>
        <time>2013-06-01T13:26:59Z</time>
      </trkpt>
      <trkpt lat="45.84279" lon="2.92556">
        <ele>875.07</ele>
        <time>2013-06-01T13:27:04Z</time>
      </trkpt>
      <trkpt lat="45.84292" lon="2.92532">
        <ele>874.86</ele>
        <time>2013-06-01T13:27:09Z</time>
      </trkpt>
      <trkpt lat="45.84311" lon="2.92517">
        <ele>875.58</ele>
        <time>2013-06-01T13:27:14Z</time>
      </trkpt>
      <trkpt lat="45.84333" lon="2.92522">
        <ele>875.15</ele>
        <time>2013-06-01T13:27:18Z</time>
      </trkpt>
      <trkpt lat="45.84353" lon="2.9253">
        <ele>874.91</ele>
        <time>2013-06-01T13:27:22Z</time>
      </trkpt>
      <trkpt lat="45.84374" lon="2.92543">
        <ele>874.01</ele>
        <time>2013-06-01T13:27:26Z</time>
      </trkpt>
      <trkpt lat="45.84395" lon="2.92554">
        <ele>872.35</ele>
        <time>2013-06-01T13:27:30Z</time>
      </trkpt>
      <trkpt lat="45.84417" lon="2.92554">
        <ele>871.04</ele>
        <time>2013-06-01T13:27:34Z</time>
      </trkpt>
      <trkpt lat="45.84434" lon="2.92545">
        <ele>870.77</ele>
        <time>2013-06-01T13:27:38Z</time>
      </trkpt>
      <trkpt lat="45.84452" lon="2.92532">
        <ele>871.04</ele>
        <time>2013-06-01T13:27:43Z</time>
      </trkpt>
      <trkpt lat="45.8447" lon="2.92517">
        <ele>871.62</ele>
        <time>2013-06-01T13:27:48Z</time>
      </trkpt>
      <trkpt lat="45.84485" lon="2.92502">
        <ele>872.52</ele>
        <time>2013-06-01T13:27:53Z</time>
      </trkpt>
      <trkpt lat="45.84499" lon="2.92483">
        <ele>872.73</ele>
        <time>2013-06-01T13:27:58Z</time>
      </trkpt>
      <trkpt lat="45.84512" lon="2.92464">
        <ele>872.78</ele>
        <time>2013-06-01T13:28:03Z</time>
      </trkpt>
      <trkpt lat="45.84526" lon="2.92442">
        <ele>873.62</ele>
        <time>2013-06-01T13:28:08Z</time>
      </trkpt>
      <trkpt lat="45.8454" lon="2.92423">
        <ele>874.52</ele>
        <time>2013-06-01T13:28:13Z</time>
      </trkpt>
      <trkpt lat="45.84555" lon="2.92402">
        <ele>875.51</ele>
        <time>2013-06-01T13:28:19Z</time>
      </trkpt>
      <trkpt lat="45.8457" lon="2.9238">
        <ele>875.75</ele>
        <time>2013-06-01T13:28:25Z</time>
      </trkpt>
      <trkpt lat="45.84584" lon="2.92361">
        <ele>876.55</ele>
        <time>2013-06-01T13:28:31Z</time>
      </trkpt>
      <trkpt lat="45.84598" lon="2.92337">
        <ele>877.44</ele>
        <time>2013-06-01T13:28:37Z</time>
      </trkpt>
      <trkpt lat="45.84611" lon="2.92314">
        <ele>878.31</ele>
        <time>2013-06-01T13:28:43Z</time>
      </trkpt>
      <trkpt lat="45.84623" lon="2.9229">
        <ele>880.14</ele>
        <time>2013-06-01T13:28:48Z</time>
      </trkpt>
      <trkpt lat="45.84634" lon="2.92266">
        <ele>883.1</ele>
        <time>2013-06-01T13:28:53Z</time>
      </trkpt>
      <trkpt lat="45.84646" lon="2.92245">
        <ele>884.26</ele>
        <time>2013-06-01T13:28:57Z</time>
      </trkpt>
      <trkpt lat="45.84659" lon="2.92221">
        <ele>884.63</ele>
        <time>2013-06-01T13:29:01Z</time>
      </trkpt>
      <trkpt lat="45.84671" lon="2.922">
        <ele>884.73</ele>
        <time>2013-06-01T13:29:04Z</time>
      </trkpt>
      <trkpt lat="45.84684" lon="2.92181">
        <ele>885.02</ele>
        <time>2013-06-01T13:29:07Z</time>
      </trkpt>
      <trkpt lat="45.84698" lon="2.92161">
        <ele>884.89</ele>
        <time>2013-06-01T13:29:10Z</time>
      </trkpt>
      <trkpt lat="45.84713" lon="2.92142">
        <ele>884.84</ele>
        <time>2013-06-01T13:29:13Z</time>
      </trkpt>
      <trkpt lat="45.84729" lon="2.9212">
        <ele>884.38</ele>
        <time>2013-06-01T13:29:16Z</time>
      </trkpt>
      <trkpt lat="45.84744" lon="2.92097">
        <ele>884.04</ele>
        <time>2013-06-01T13:29:19Z</time>
      </trkpt>
      <trkpt lat="45.84761" lon="2.9208">
        <ele>883.9</ele>
        <time>2013-06-01T13:29:22Z</time>
      </trkpt>
      <trkpt lat="45.84779" lon="2.92063">
        <ele>883.84</ele>
        <time>2013-06-01T13:29:25Z</time>
      </trkpt>
      <trkpt lat="45.84799" lon="2.92052">
        <ele>883.57</ele>
        <time>2013-06-01T13:29:28Z</time>
      </trkpt>
      <trkpt lat="45.84817" lon="2.92039">
        <ele>883.12</ele>
        <time>2013-06-01T13:29:31Z</time>
      </trkpt>
      <trkpt lat="45.84834" lon="2.92022">
        <ele>882.94</ele>
        <time>2013-06-01T13:29:34Z</time>
      </trkpt>
      <trkpt lat="45.84848" lon="2.92002">
        <ele>882.61</ele>
        <time>2013-06-01T13:29:37Z</time>
      </trkpt>
      <trkpt lat="45.84861" lon="2.91981">
        <ele>882.14</ele>
        <time>2013-06-01T13:29:40Z</time>
      </trkpt>
      <trkpt lat="45.84873" lon="2.9196">
        <ele>881.94</ele>
        <time>2013-06-01T13:29:43Z</time>
      </trkpt>
      <trkpt lat="45.84881" lon="2.91934">
        <ele>881.86</ele>
        <time>2013-06-01T13:29:46Z</time>
      </trkpt>
      <trkpt lat="45.84887" lon="2.91906">
        <ele>881.82</ele>
        <time>2013-06-01T13:29:49Z</time>
      </trkpt>
      <trkpt lat="45.8489" lon="2.9188">
        <ele>881.81</ele>
        <time>2013-06-01T13:29:52Z</time>
      </trkpt>
      <trkpt lat="45.84895" lon="2.91854">
        <ele>880.98</ele>
        <time>2013-06-01T13:29:55Z</time>
      </trkpt>
      <trkpt lat="45.849" lon="2.91829">
        <ele>880.3</ele>
        <time>2013-06-01T13:29:58Z</time>
      </trkpt>
      <trkpt lat="45.84907" lon="2.91799">
        <ele>879.96</ele>
        <time>2013-06-01T13:30:02Z</time>
      </trkpt>
      <trkpt lat="45.84919" lon="2.91775">
        <ele>879.85</ele>
        <time>2013-06-01T13:30:06Z</time>
      </trkpt>
      <trkpt lat="45.84932" lon="2.91751">
        <ele>879.81</ele>
        <time>2013-06-01T13:30:10Z</time>
      </trkpt>
      <trkpt lat="45.84946" lon="2.91732">
        <ele>880.13</ele>
        <time>2013-06-01T13:30:14Z</time>
      </trkpt>
      <trkpt lat="45.84961" lon="2.91715">
        <ele>879.47</ele>
        <time>2013-06-01T13:30:18Z</time>
      </trkpt>
      <trkpt lat="45.84978" lon="2.91702">
        <ele>878.76</ele>
        <time>2013-06-01T13:30:22Z</time>
      </trkpt>
      <trkpt lat="45.84994" lon="2.91685">
        <ele>878.1</ele>
        <time>2013-06-01T13:30:26Z</time>
      </trkpt>
      <trkpt lat="45.85007" lon="2.91663">
        <ele>877.9</ele>
        <time>2013-06-01T13:30:30Z</time>
      </trkpt>
      <trkpt lat="45.85014" lon="2.91636">
        <ele>877.83</ele>
        <time>2013-06-01T13:30:34Z</time>
      </trkpt>
      <trkpt lat="45.85021" lon="2.91608">
        <ele>878.25</ele>
        <time>2013-06-01T13:30:38Z</time>
      </trkpt>
      <trkpt lat="45.85029" lon="2.91578">
        <ele>878.37</ele>
        <time>2013-06-01T13:30:42Z</time>
      </trkpt>
      <trkpt lat="45.85036" lon="2.91548">
        <ele>877.98</ele>
        <time>2013-06-01T13:30:46Z</time>
      </trkpt>
      <trkpt lat="45.85043" lon="2.91524">
        <ele>877.88</ele>
        <time>2013-06-01T13:30:49Z</time>
      </trkpt>
      <trkpt lat="45.85059" lon="2.91502">
        <ele>878.4</ele>
        <time>2013-06-01T13:30:53Z</time>
      </trkpt>
      <trkpt lat="45.85078" lon="2.91483">
        <ele>878.67</ele>
        <time>2013-06-01T13:30:57Z</time>
      </trkpt>
      <trkpt lat="45.85097" lon="2.91468">
        <ele>878.76</ele>
        <time>2013-06-01T13:31:01Z</time>
      </trkpt>
      <trkpt lat="45.85117" lon="2.91453">
        <ele>878.79</ele>
        <time>2013-06-01T13:31:05Z</time>
      </trkpt>
      <trkpt lat="45.85137" lon="2.91436">
        <ele>878.8</ele>
        <time>2013-06-01T13:31:09Z</time>
      </trkpt>
      <trkpt lat="45.85154" lon="2.91419">
        <ele>878.8</ele>
        <time>2013-06-01T13:31:13Z</time>
      </trkpt>
      <trkpt lat="45.8517" lon="2.91399">
        <ele>878.8</ele>
        <time>2013-06-01T13:31:17Z</time>
      </trkpt>
      <trkpt lat="45.85185" lon="2.91378">
        <ele>878.22</ele>
        <time>2013-06-01T13:31:22Z</time>
      </trkpt>
      <trkpt lat="45.85201" lon="2.91357">
        <ele>877.9</ele>
        <time>2013-06-01T13:31:27Z</time>
      </trkpt>
      <trkpt lat="45.85217" lon="2.91337">
        <ele>877.82</ele>
        <time>2013-06-01T13:31:32Z</time>
      </trkpt>
      <trkpt lat="45.85235" lon="2.91327">
        <ele>877.8</ele>
        <time>2013-06-01T13:31:37Z</time>
      </trkpt>
      <trkpt lat="45.85247" lon="2.91352">
        <ele>877.8</ele>
        <time>2013-06-01T13:31:44Z</time>
      </trkpt>
      <trkpt lat="45.85257" lon="2.91378">
        <ele>877.8</ele>
        <time>2013-06-01T13:31:50Z</time>
      </trkpt>
      <trkpt lat="45.85262" lon="2.91412">
        <ele>877.8</ele>
        <time>2013-06-01T13:32:00Z</time>
      </trkpt>
      <trkpt lat="45.85275" lon="2.91436">
        <ele>877.8</ele>
        <time>2013-06-01T13:32:06Z</time>
      </trkpt>
      <trkpt lat="45.85289" lon="2.91455">
        <ele>877.8</ele>
        <time>2013-06-01T13:32:11Z</time>
      </trkpt>
      <trkpt lat="45.85304" lon="2.91475">
        <ele>877.8</ele>
        <time>2013-06-01T13:32:16Z</time>
      </trkpt>
      <trkpt lat="45.85316" lon="2.91496">
        <ele>877.22</ele>
        <time>2013-06-01T13:32:20Z</time>
      </trkpt>
      <trkpt lat="45.85328" lon="2.9152">
        <ele>876.9</ele>
        <time>2013-06-01T13:32:25Z</time>
      </trkpt>
      <trkpt lat="45.8534" lon="2.91539">
        <ele>876.82</ele>
        <time>2013-06-01T13:32:30Z</time>
      </trkpt>
      <trkpt lat="45.85353" lon="2.91558">
        <ele>875.87</ele>
        <time>2013-06-01T13:32:34Z</time>
      </trkpt>
      <trkpt lat="45.85371" lon="2.91569">
        <ele>874.8</ele>
        <time>2013-06-01T13:32:39Z</time>
      </trkpt>
      <trkpt lat="45.85387" lon="2.91552">
        <ele>876</ele>
        <time>2013-06-01T13:32:45Z</time>
      </trkpt>
      <trkpt lat="45.85402" lon="2.91528">
        <ele>879.18</ele>
        <time>2013-06-01T13:32:51Z</time>
      </trkpt>
      <trkpt lat="45.8542" lon="2.91513">
        <ele>880.51</ele>
        <time>2013-06-01T13:32:57Z</time>
      </trkpt>
      <trkpt lat="45.85437" lon="2.91505">
        <ele>880.75</ele>
        <time>2013-06-01T13:33:03Z</time>
      </trkpt>
      <trkpt lat="45.85453" lon="2.9152">
        <ele>880.79</ele>
        <time>2013-06-01T13:33:09Z</time>
      </trkpt>
      <trkpt lat="45.85473" lon="2.91522">
        <ele>880.55</ele>
        <time>2013-06-01T13:33:14Z</time>
      </trkpt>
      <trkpt lat="45.85495" lon="2.9152">
        <ele>879.29</ele>
        <time>2013-06-01T13:33:19Z</time>
      </trkpt>
      <trkpt lat="45.85514" lon="2.9152">
        <ele>878.92</ele>
        <time>2013-06-01T13:33:24Z</time>
      </trkpt>
      <trkpt lat="45.85533" lon="2.9152">
        <ele>878.39</ele>
        <time>2013-06-01T13:33:29Z</time>
      </trkpt>
      <trkpt lat="45.85555" lon="2.91528">
        <ele>876.81</ele>
        <time>2013-06-01T13:33:34Z</time>
      </trkpt>
      <trkpt lat="45.85569" lon="2.91545">
        <ele>873.56</ele>
        <time>2013-06-01T13:33:37Z</time>
      </trkpt>
      <trkpt lat="45.85586" lon="2.91567">
        <ele>869.48</ele>
        <time>2013-06-01T13:33:41Z</time>
      </trkpt>
      <trkpt lat="45.85603" lon="2.91575">
        <ele>867.49</ele>
        <time>2013-06-01T13:33:44Z</time>
      </trkpt>
      <trkpt lat="45.85624" lon="2.91571">
        <ele>865.68</ele>
        <time>2013-06-01T13:33:47Z</time>
      </trkpt>
      <trkpt lat="45.85645" lon="2.91569">
        <ele>864.16</ele>
        <time>2013-06-01T13:33:50Z</time>
      </trkpt>
      <trkpt lat="45.85663" lon="2.91573">
        <ele>862.79</ele>
        <time>2013-06-01T13:33:53Z</time>
      </trkpt>
      <trkpt lat="45.85682" lon="2.91584">
        <ele>862.11</ele>
        <time>2013-06-01T13:33:57Z</time>
      </trkpt>
      <trkpt lat="45.85698" lon="2.91597">
        <ele>862.48</ele>
        <time>2013-06-01T13:34:01Z</time>
      </trkpt>
      <trkpt lat="45.85714" lon="2.91612">
        <ele>862.97</ele>
        <time>2013-06-01T13:34:06Z</time>
      </trkpt>
      <trkpt lat="45.85731" lon="2.91625">
        <ele>863.65</ele>
        <time>2013-06-01T13:34:12Z</time>
      </trkpt>
      <trkpt lat="45.85749" lon="2.9164">
        <ele>864.65</ele>
        <time>2013-06-01T13:34:19Z</time>
      </trkpt>
      <trkpt lat="45.85767" lon="2.91655">
        <ele>865.6</ele>
        <time>2013-06-01T13:34:26Z</time>
      </trkpt>
      <trkpt lat="45.85786" lon="2.91672">
        <ele>867.95</ele>
        <time>2013-06-01T13:34:31Z</time>
      </trkpt>
      <trkpt lat="45.85803" lon="2.91689">
        <ele>870.56</ele>
        <time>2013-06-01T13:34:36Z</time>
      </trkpt>
      <trkpt lat="45.85817" lon="2.91708">
        <ele>871.07</ele>
        <time>2013-06-01T13:34:41Z</time>
      </trkpt>
      <trkpt lat="45.85831" lon="2.9173">
        <ele>870.86</ele>
        <time>2013-06-01T13:34:46Z</time>
      </trkpt>
      <trkpt lat="45.85844" lon="2.91754">
        <ele>871.58</ele>
        <time>2013-06-01T13:34:51Z</time>
      </trkpt>
      <trkpt lat="45.85858" lon="2.91775">
        <ele>872.51</ele>
        <time>2013-06-01T13:34:56Z</time>
      </trkpt>
      <trkpt lat="45.85871" lon="2.91796">
        <ele>872.75</ele>
        <time>2013-06-01T13:35:02Z</time>
      </trkpt>
      <trkpt lat="45.85882" lon="2.9182">
        <ele>872.79</ele>
        <time>2013-06-01T13:35:08Z</time>
      </trkpt>
      <trkpt lat="45.85886" lon="2.91848">
        <ele>872.55</ele>
        <time>2013-06-01T13:35:12Z</time>
      </trkpt>
      <trkpt lat="45.85888" lon="2.91876">
        <ele>872.04</ele>
        <time>2013-06-01T13:35:16Z</time>
      </trkpt>
      <trkpt lat="45.85889" lon="2.91906">
        <ele>872.12</ele>
        <time>2013-06-01T13:35:20Z</time>
      </trkpt>
      <trkpt lat="45.85888" lon="2.91938">
        <ele>872.59</ele>
        <time>2013-06-01T13:35:24Z</time>
      </trkpt>
      <trkpt lat="45.85886" lon="2.91966">
        <ele>872.15</ele>
        <time>2013-06-01T13:35:28Z</time>
      </trkpt>
      <trkpt lat="45.85886" lon="2.91998">
        <ele>871.91</ele>
        <time>2013-06-01T13:35:32Z</time>
      </trkpt>
      <trkpt lat="45.85886" lon="2.9203">
        <ele>871.83</ele>
        <time>2013-06-01T13:35:36Z</time>
      </trkpt>
      <trkpt lat="45.85886" lon="2.9206">
        <ele>872.06</ele>
        <time>2013-06-01T13:35:40Z</time>
      </trkpt>
      <trkpt lat="45.85886" lon="2.9209">
        <ele>872.82</ele>
        <time>2013-06-01T13:35:44Z</time>
      </trkpt>
      <trkpt lat="45.85888" lon="2.92116">
        <ele>874.07</ele>
        <time>2013-06-01T13:35:48Z</time>
      </trkpt>
      <trkpt lat="45.85908" lon="2.92123">
        <ele>874.7</ele>
        <time>2013-06-01T13:35:55Z</time>
      </trkpt>
      <trkpt lat="45.85927" lon="2.92112">
        <ele>874.01</ele>
        <time>2013-06-01T13:36:00Z</time>
      </trkpt>
      <trkpt lat="45.85947" lon="2.92123">
        <ele>873.26</ele>
        <time>2013-06-01T13:36:06Z</time>
      </trkpt>
      <trkpt lat="45.85956" lon="2.92148">
        <ele>872.66</ele>
        <time>2013-06-01T13:36:11Z</time>
      </trkpt>
      <trkpt lat="45.85959" lon="2.92178">
        <ele>870.49</ele>
        <time>2013-06-01T13:36:16Z</time>
      </trkpt>
      <trkpt lat="45.85968" lon="2.92208">
        <ele>868.21</ele>
        <time>2013-06-01T13:36:24Z</time>
      </trkpt>
      <trkpt lat="45.85972" lon="2.92236">
        <ele>867.93</ele>
        <time>2013-06-01T13:36:28Z</time>
      </trkpt>
      <trkpt lat="45.85972" lon="2.92271">
        <ele>868.42</ele>
        <time>2013-06-01T13:36:32Z</time>
      </trkpt>
      <trkpt lat="45.85971" lon="2.92299">
        <ele>868.39</ele>
        <time>2013-06-01T13:36:35Z</time>
      </trkpt>
      <trkpt lat="45.85971" lon="2.92326">
        <ele>867.8</ele>
        <time>2013-06-01T13:36:38Z</time>
      </trkpt>
      <trkpt lat="45.85973" lon="2.92352">
        <ele>867.8</ele>
        <time>2013-06-01T13:36:41Z</time>
      </trkpt>
      <trkpt lat="45.85986" lon="2.92378">
        <ele>868.05</ele>
        <time>2013-06-01T13:36:45Z</time>
      </trkpt>
      <trkpt lat="45.85999" lon="2.92402">
        <ele>868.56</ele>
        <time>2013-06-01T13:36:49Z</time>
      </trkpt>
      <trkpt lat="45.86009" lon="2.92427">
        <ele>868.72</ele>
        <time>2013-06-01T13:36:53Z</time>
      </trkpt>
      <trkpt lat="45.86018" lon="2.92455">
        <ele>869.21</ele>
        <time>2013-06-01T13:36:57Z</time>
      </trkpt>
      <trkpt lat="45.86025" lon="2.92485">
        <ele>870.73</ele>
        <time>2013-06-01T13:37:01Z</time>
      </trkpt>
      <trkpt lat="45.86028" lon="2.92513">
        <ele>871.35</ele>
        <time>2013-06-01T13:37:04Z</time>
      </trkpt>
      <trkpt lat="45.86029" lon="2.92541">
        <ele>871.61</ele>
        <time>2013-06-01T13:37:07Z</time>
      </trkpt>
      <trkpt lat="45.8603" lon="2.92567">
        <ele>871.72</ele>
        <time>2013-06-01T13:37:10Z</time>
      </trkpt>
      <trkpt lat="45.86027" lon="2.92597">
        <ele>871.77</ele>
        <time>2013-06-01T13:37:14Z</time>
      </trkpt>
      <trkpt lat="45.86024" lon="2.92623">
        <ele>871.79</ele>
        <time>2013-06-01T13:37:18Z</time>
      </trkpt>
      <trkpt lat="45.86022" lon="2.92648">
        <ele>871.8</ele>
        <time>2013-06-01T13:37:23Z</time>
      </trkpt>
      <trkpt lat="45.86022" lon="2.92676">
        <ele>871.8</ele>
        <time>2013-06-01T13:37:29Z</time>
      </trkpt>
      <trkpt lat="45.86027" lon="2.92702">
        <ele>871.22</ele>
        <time>2013-06-01T13:37:34Z</time>
      </trkpt>
      <trkpt lat="45.86035" lon="2.92728">
        <ele>870.22</ele>
        <time>2013-06-01T13:37:39Z</time>
      </trkpt>
      <trkpt lat="45.86042" lon="2.92751">
        <ele>869</ele>
        <time>2013-06-01T13:37:43Z</time>
      </trkpt>
      <trkpt lat="45.86059" lon="2.92781">
        <ele>866.85</ele>
        <time>2013-06-01T13:37:51Z</time>
      </trkpt>
      <trkpt lat="45.86074" lon="2.92801">
        <ele>865.26</ele>
        <time>2013-06-01T13:37:58Z</time>
      </trkpt>
      <trkpt lat="45.86087" lon="2.92831">
        <ele>864.94</ele>
        <time>2013-06-01T13:38:02Z</time>
      </trkpt>
      <trkpt lat="45.86098" lon="2.92856">
        <ele>864.57</ele>
        <time>2013-06-01T13:38:09Z</time>
      </trkpt>
      <trkpt lat="45.86088" lon="2.9288">
        <ele>863.73</ele>
        <time>2013-06-01T13:38:14Z</time>
      </trkpt>
      <trkpt lat="45.86087" lon="2.9291">
        <ele>862.67</ele>
        <time>2013-06-01T13:38:21Z</time>
      </trkpt>
      <trkpt lat="45.86088" lon="2.9294">
        <ele>861.92</ele>
        <time>2013-06-01T13:38:28Z</time>
      </trkpt>
      <trkpt lat="45.86083" lon="2.9297">
        <ele>862.06</ele>
        <time>2013-06-01T13:38:36Z</time>
      </trkpt>
      <trkpt lat="45.86072" lon="2.93">
        <ele>862.7</ele>
        <time>2013-06-01T13:38:43Z</time>
      </trkpt>
      <trkpt lat="45.86062" lon="2.9303">
        <ele>863.47</ele>
        <time>2013-06-01T13:38:49Z</time>
      </trkpt>
      <trkpt lat="45.86056" lon="2.93056">
        <ele>863.97</ele>
        <time>2013-06-01T13:38:54Z</time>
      </trkpt>
      <trkpt lat="45.8605" lon="2.93086">
        <ele>864.9</ele>
        <time>2013-06-01T13:39:00Z</time>
      </trkpt>
      <trkpt lat="45.86054" lon="2.93116">
        <ele>865.59</ele>
        <time>2013-06-01T13:39:05Z</time>
      </trkpt>
      <trkpt lat="45.86055" lon="2.93155">
        <ele>866.01</ele>
        <time>2013-06-01T13:39:11Z</time>
      </trkpt>
      <trkpt lat="45.86071" lon="2.93176">
        <ele>867.46</ele>
        <time>2013-06-01T13:39:18Z</time>
      </trkpt>
      <trkpt lat="45.8609" lon="2.93185">
        <ele>870.31</ele>
        <time>2013-06-01T13:39:25Z</time>
      </trkpt>
      <trkpt lat="45.86109" lon="2.9318">
        <ele>872.02</ele>
        <time>2013-06-01T13:39:30Z</time>
      </trkpt>
      <trkpt lat="45.86132" lon="2.93178">
        <ele>870.9</ele>
        <time>2013-06-01T13:39:36Z</time>
      </trkpt>
      <trkpt lat="45.86153" lon="2.93172">
        <ele>866.5</ele>
        <time>2013-06-01T13:39:40Z</time>
      </trkpt>
      <trkpt lat="45.86172" lon="2.93157">
        <ele>864.03</ele>
        <time>2013-06-01T13:39:46Z</time>
      </trkpt>
      <trkpt lat="45.86199" lon="2.93155">
        <ele>862.01</ele>
        <time>2013-06-01T13:39:52Z</time>
      </trkpt>
      <trkpt lat="45.86224" lon="2.93163">
        <ele>859.43</ele>
        <time>2013-06-01T13:39:57Z</time>
      </trkpt>
      <trkpt lat="45.86244" lon="2.93172">
        <ele>857.08</ele>
        <time>2013-06-01T13:40:00Z</time>
      </trkpt>
      <trkpt lat="45.86263" lon="2.93187">
        <ele>853.82</ele>
        <time>2013-06-01T13:40:04Z</time>
      </trkpt>
      <trkpt lat="45.86273" lon="2.93213">
        <ele>850.33</ele>
        <time>2013-06-01T13:40:09Z</time>
      </trkpt>
      <trkpt lat="45.86283" lon="2.93236">
        <ele>845.86</ele>
        <time>2013-06-01T13:40:16Z</time>
      </trkpt>
      <trkpt lat="45.863" lon="2.93258">
        <ele>843.07</ele>
        <time>2013-06-01T13:40:33Z</time>
      </trkpt>
      <trkpt lat="45.86317" lon="2.93275">
        <ele>843.67</ele>
        <time>2013-06-01T13:40:39Z</time>
      </trkpt>
      <trkpt lat="45.86326" lon="2.93298">
        <ele>844.61</ele>
        <time>2013-06-01T13:40:48Z</time>
      </trkpt>
      <trkpt lat="45.86337" lon="2.93324">
        <ele>846.05</ele>
        <time>2013-06-01T13:41:18Z</time>
      </trkpt>
      <trkpt lat="45.86348" lon="2.93352">
        <ele>846.95</ele>
        <time>2013-06-01T13:41:25Z</time>
      </trkpt>
      <trkpt lat="45.8636" lon="2.93378">
        <ele>848.48</ele>
        <time>2013-06-01T13:41:33Z</time>
      </trkpt>
      <trkpt lat="45.86368" lon="2.93404">
        <ele>849.43</ele>
        <time>2013-06-01T13:41:39Z</time>
      </trkpt>
      <trkpt lat="45.86375" lon="2.93429">
        <ele>850.91</ele>
        <time>2013-06-01T13:41:44Z</time>
      </trkpt>
      <trkpt lat="45.86382" lon="2.93457">
        <ele>852.53</ele>
        <time>2013-06-01T13:41:49Z</time>
      </trkpt>
      <trkpt lat="45.86382" lon="2.93485">
        <ele>853.83</ele>
        <time>2013-06-01T13:41:53Z</time>
      </trkpt>
      <trkpt lat="45.86372" lon="2.93511">
        <ele>853.37</ele>
        <time>2013-06-01T13:41:56Z</time>
      </trkpt>
      <trkpt lat="45.86365" lon="2.93537">
        <ele>853.29</ele>
        <time>2013-06-01T13:41:59Z</time>
      </trkpt>
      <trkpt lat="45.86359" lon="2.93562">
        <ele>853.59</ele>
        <time>2013-06-01T13:42:02Z</time>
      </trkpt>
      <trkpt lat="45.86352" lon="2.93588">
        <ele>853.71</ele>
        <time>2013-06-01T13:42:05Z</time>
      </trkpt>
      <trkpt lat="45.86346" lon="2.93616">
        <ele>853.66</ele>
        <time>2013-06-01T13:42:09Z</time>
      </trkpt>
      <trkpt lat="45.86342" lon="2.93644">
        <ele>854.69</ele>
        <time>2013-06-01T13:42:13Z</time>
      </trkpt>
      <trkpt lat="45.86338" lon="2.93672">
        <ele>855.45</ele>
        <time>2013-06-01T13:42:17Z</time>
      </trkpt>
      <trkpt lat="45.86333" lon="2.93702">
        <ele>855.94</ele>
        <time>2013-06-01T13:42:21Z</time>
      </trkpt>
      <trkpt lat="45.86326" lon="2.93732">
        <ele>856.53</ele>
        <time>2013-06-01T13:42:25Z</time>
      </trkpt>
      <trkpt lat="45.86321" lon="2.93764">
        <ele>856.71</ele>
        <time>2013-06-01T13:42:29Z</time>
      </trkpt>
      <trkpt lat="45.86315" lon="2.93796">
        <ele>856.77</ele>
        <time>2013-06-01T13:42:33Z</time>
      </trkpt>
      <trkpt lat="45.8631" lon="2.93822">
        <ele>856.79</ele>
        <time>2013-06-01T13:42:36Z</time>
      </trkpt>
      <trkpt lat="45.86306" lon="2.93848">
        <ele>856.22</ele>
        <time>2013-06-01T13:42:39Z</time>
      </trkpt>
      <trkpt lat="45.86302" lon="2.93874">
        <ele>856.41</ele>
        <time>2013-06-01T13:42:42Z</time>
      </trkpt>
      <trkpt lat="45.86295" lon="2.93904">
        <ele>857.11</ele>
        <time>2013-06-01T13:42:46Z</time>
      </trkpt>
      <trkpt lat="45.86296" lon="2.93931">
        <ele>858.52</ele>
        <time>2013-06-01T13:42:50Z</time>
      </trkpt>
      <trkpt lat="45.86304" lon="2.93955">
        <ele>859.83</ele>
        <time>2013-06-01T13:42:54Z</time>
      </trkpt>
      <trkpt lat="45.86315" lon="2.93977">
        <ele>860.93</ele>
        <time>2013-06-01T13:42:58Z</time>
      </trkpt>
      <trkpt lat="45.86329" lon="2.93998">
        <ele>861.52</ele>
        <time>2013-06-01T13:43:02Z</time>
      </trkpt>
      <trkpt lat="45.86344" lon="2.94015">
        <ele>860.78</ele>
        <time>2013-06-01T13:43:06Z</time>
      </trkpt>
      <trkpt lat="45.86359" lon="2.9403">
        <ele>860.11</ele>
        <time>2013-06-01T13:43:10Z</time>
      </trkpt>
      <trkpt lat="45.86375" lon="2.94054">
        <ele>858.86</ele>
        <time>2013-06-01T13:43:15Z</time>
      </trkpt>
      <trkpt lat="45.8639" lon="2.94077">
        <ele>857.47</ele>
        <time>2013-06-01T13:43:20Z</time>
      </trkpt>
      <trkpt lat="45.86404" lon="2.94099">
        <ele>856.33</ele>
        <time>2013-06-01T13:43:24Z</time>
      </trkpt>
      <trkpt lat="45.86421" lon="2.94118">
        <ele>855.67</ele>
        <time>2013-06-01T13:43:29Z</time>
      </trkpt>
      <trkpt lat="45.86437" lon="2.9414">
        <ele>853.89</ele>
        <time>2013-06-01T13:43:34Z</time>
      </trkpt>
      <trkpt lat="45.86452" lon="2.94157">
        <ele>852.71</ele>
        <time>2013-06-01T13:43:38Z</time>
      </trkpt>
      <trkpt lat="45.86467" lon="2.94174">
        <ele>852.09</ele>
        <time>2013-06-01T13:43:42Z</time>
      </trkpt>
      <trkpt lat="45.86482" lon="2.94193">
        <ele>852.72</ele>
        <time>2013-06-01T13:43:46Z</time>
      </trkpt>
      <trkpt lat="45.86494" lon="2.94215">
        <ele>853.71</ele>
        <time>2013-06-01T13:43:50Z</time>
      </trkpt>
      <trkpt lat="45.86508" lon="2.94232">
        <ele>854.45</ele>
        <time>2013-06-01T13:43:54Z</time>
      </trkpt>
      <trkpt lat="45.86521" lon="2.94251">
        <ele>854.25</ele>
        <time>2013-06-01T13:43:58Z</time>
      </trkpt>
      <trkpt lat="45.86535" lon="2.94273">
        <ele>853.94</ele>
        <time>2013-06-01T13:44:02Z</time>
      </trkpt>
      <trkpt lat="45.86547" lon="2.94296">
        <ele>854.28</ele>
        <time>2013-06-01T13:44:06Z</time>
      </trkpt>
      <trkpt lat="45.86561" lon="2.94316">
        <ele>854.64</ele>
        <time>2013-06-01T13:44:10Z</time>
      </trkpt>
      <trkpt lat="45.86577" lon="2.94335">
        <ele>854.32</ele>
        <time>2013-06-01T13:44:15Z</time>
      </trkpt>
      <trkpt lat="45.86594" lon="2.94356">
        <ele>853.49</ele>
        <time>2013-06-01T13:44:20Z</time>
      </trkpt>
      <trkpt lat="45.86609" lon="2.94376">
        <ele>852.96</ele>
        <time>2013-06-01T13:44:25Z</time>
      </trkpt>
      <trkpt lat="45.86622" lon="2.94395">
        <ele>852.84</ele>
        <time>2013-06-01T13:44:30Z</time>
      </trkpt>
      <trkpt lat="45.86636" lon="2.94412">
        <ele>853.06</ele>
        <time>2013-06-01T13:44:34Z</time>
      </trkpt>
      <trkpt lat="45.86649" lon="2.94434">
        <ele>853.57</ele>
        <time>2013-06-01T13:44:38Z</time>
      </trkpt>
      <trkpt lat="45.86663" lon="2.94453">
        <ele>853.73</ele>
        <time>2013-06-01T13:44:42Z</time>
      </trkpt>
      <trkpt lat="45.86681" lon="2.94466">
        <ele>853.78</ele>
        <time>2013-06-01T13:44:47Z</time>
      </trkpt>
      <trkpt lat="45.86699" lon="2.94477">
        <ele>853.79</ele>
        <time>2013-06-01T13:44:52Z</time>
      </trkpt>
      <trkpt lat="45.86717" lon="2.94487">
        <ele>853.8</ele>
        <time>2013-06-01T13:44:57Z</time>
      </trkpt>
      <trkpt lat="45.86737" lon="2.945">
        <ele>853.8</ele>
        <time>2013-06-01T13:45:02Z</time>
      </trkpt>
      <trkpt lat="45.86756" lon="2.94515">
        <ele>854.05</ele>
        <time>2013-06-01T13:45:06Z</time>
      </trkpt>
      <trkpt lat="45.86773" lon="2.9453">
        <ele>856.33</ele>
        <time>2013-06-01T13:45:09Z</time>
      </trkpt>
      <trkpt lat="45.8679" lon="2.94547">
        <ele>858.02</ele>
        <time>2013-06-01T13:45:13Z</time>
      </trkpt>
      <trkpt lat="45.86795" lon="2.94573">
        <ele>859.56</ele>
        <time>2013-06-01T13:45:22Z</time>
      </trkpt>
      <trkpt lat="45.86795" lon="2.94603">
        <ele>860.79</ele>
        <time>2013-06-01T13:45:30Z</time>
      </trkpt>
      <trkpt lat="45.86787" lon="2.94629">
        <ele>862.56</ele>
        <time>2013-06-01T13:45:40Z</time>
      </trkpt>
      <trkpt lat="45.8678" lon="2.94663">
        <ele>862.77</ele>
        <time>2013-06-01T13:45:47Z</time>
      </trkpt>
      <trkpt lat="45.86781" lon="2.94695">
        <ele>863.48</ele>
        <time>2013-06-01T13:45:52Z</time>
      </trkpt>
      <trkpt lat="45.86784" lon="2.94728">
        <ele>863.99</ele>
        <time>2013-06-01T13:45:58Z</time>
      </trkpt>
      <trkpt lat="45.86786" lon="2.94758">
        <ele>863.96</ele>
        <time>2013-06-01T13:46:06Z</time>
      </trkpt>
      <trkpt lat="45.86789" lon="2.94788">
        <ele>863.81</ele>
        <time>2013-06-01T13:46:14Z</time>
      </trkpt>
      <trkpt lat="45.86794" lon="2.94816">
        <ele>864.49</ele>
        <time>2013-06-01T13:46:20Z</time>
      </trkpt>
      <trkpt lat="45.86791" lon="2.94846">
        <ele>863.99</ele>
        <time>2013-06-01T13:46:27Z</time>
      </trkpt>
      <trkpt lat="45.86781" lon="2.94869">
        <ele>864.63</ele>
        <time>2013-06-01T13:46:37Z</time>
      </trkpt>
      <trkpt lat="45.86771" lon="2.94895">
        <ele>864.79</ele>
        <time>2013-06-01T13:46:46Z</time>
      </trkpt>
      <trkpt lat="45.86762" lon="2.94923">
        <ele>865.05</ele>
        <time>2013-06-01T13:46:54Z</time>
      </trkpt>
      <trkpt lat="45.8675" lon="2.94949">
        <ele>867.57</ele>
        <time>2013-06-01T13:47:01Z</time>
      </trkpt>
      <trkpt lat="45.86736" lon="2.94981">
        <ele>871.02</ele>
        <time>2013-06-01T13:47:07Z</time>
      </trkpt>
      <trkpt lat="45.86725" lon="2.95015">
        <ele>873.85</ele>
        <time>2013-06-01T13:47:13Z</time>
      </trkpt>
      <trkpt lat="45.86716" lon="2.95041">
        <ele>875.56</ele>
        <time>2013-06-01T13:47:19Z</time>
      </trkpt>
      <trkpt lat="45.86714" lon="2.95073">
        <ele>877.26</ele>
        <time>2013-06-01T13:47:25Z</time>
      </trkpt>
      <trkpt lat="45.86714" lon="2.95101">
        <ele>878.39</ele>
        <time>2013-06-01T13:47:31Z</time>
      </trkpt>
      <trkpt lat="45.86714" lon="2.95133">
        <ele>878.76</ele>
        <time>2013-06-01T13:47:39Z</time>
      </trkpt>
      <trkpt lat="45.86723" lon="2.95161">
        <ele>878.54</ele>
        <time>2013-06-01T13:47:46Z</time>
      </trkpt>
      <trkpt lat="45.86734" lon="2.95189">
        <ele>877.93</ele>
        <time>2013-06-01T13:47:52Z</time>
      </trkpt>
      <trkpt lat="45.86745" lon="2.95221">
        <ele>878.66</ele>
        <time>2013-06-01T13:47:57Z</time>
      </trkpt>
      <trkpt lat="45.8675" lon="2.95247">
        <ele>880.28</ele>
        <time>2013-06-01T13:48:03Z</time>
      </trkpt>
      <trkpt lat="45.8675" lon="2.95277">
        <ele>881.93</ele>
        <time>2013-06-01T13:48:10Z</time>
      </trkpt>
      <trkpt lat="45.86748" lon="2.95305">
        <ele>884.24</ele>
        <time>2013-06-01T13:48:16Z</time>
      </trkpt>
      <trkpt lat="45.86754" lon="2.95333">
        <ele>887.78</ele>
        <time>2013-06-01T13:48:23Z</time>
      </trkpt>
      <trkpt lat="45.86768" lon="2.9535">
        <ele>892.43</ele>
        <time>2013-06-01T13:48:36Z</time>
      </trkpt>
      <trkpt lat="45.86781" lon="2.95369">
        <ele>894.8</ele>
        <time>2013-06-01T13:49:03Z</time>
      </trkpt>
      <trkpt lat="45.86786" lon="2.95341">
        <ele>897.98</ele>
        <time>2013-06-01T13:50:29Z</time>
      </trkpt>
      <trkpt lat="45.86794" lon="2.95313">
        <ele>900.78</ele>
        <time>2013-06-01T13:50:40Z</time>
      </trkpt>
      <trkpt lat="45.8681" lon="2.95294">
        <ele>901.56</ele>
        <time>2013-06-01T13:50:45Z</time>
      </trkpt>
      <trkpt lat="45.86824" lon="2.95268">
        <ele>903.08</ele>
        <time>2013-06-01T13:50:51Z</time>
      </trkpt>
      <trkpt lat="45.86839" lon="2.95245">
        <ele>905.38</ele>
        <time>2013-06-01T13:50:55Z</time>
      </trkpt>
      <trkpt lat="45.86853" lon="2.95225">
        <ele>905.91</ele>
        <time>2013-06-01T13:50:59Z</time>
      </trkpt>
      <trkpt lat="45.86866" lon="2.95206">
        <ele>903.89</ele>
        <time>2013-06-01T13:51:03Z</time>
      </trkpt>
      <trkpt lat="45.86884" lon="2.95193">
        <ele>900.77</ele>
        <time>2013-06-01T13:51:09Z</time>
      </trkpt>
      <trkpt lat="45.86902" lon="2.95187">
        <ele>899.53</ele>
        <time>2013-06-01T13:51:15Z</time>
      </trkpt>
      <trkpt lat="45.86921" lon="2.95182">
        <ele>898.54</ele>
        <time>2013-06-01T13:51:20Z</time>
      </trkpt>
      <trkpt lat="45.8694" lon="2.95172">
        <ele>897.4</ele>
        <time>2013-06-01T13:51:25Z</time>
      </trkpt>
      <trkpt lat="45.86957" lon="2.95161">
        <ele>896.41</ele>
        <time>2013-06-01T13:51:29Z</time>
      </trkpt>
      <trkpt lat="45.86978" lon="2.95146">
        <ele>895.18</ele>
        <time>2013-06-01T13:51:34Z</time>
      </trkpt>
      <trkpt lat="45.86996" lon="2.95142">
        <ele>894.34</ele>
        <time>2013-06-01T13:51:38Z</time>
      </trkpt>
      <trkpt lat="45.87017" lon="2.95137">
        <ele>893.93</ele>
        <time>2013-06-01T13:51:43Z</time>
      </trkpt>
      <trkpt lat="45.87036" lon="2.95131">
        <ele>893.84</ele>
        <time>2013-06-01T13:51:47Z</time>
      </trkpt>
      <trkpt lat="45.87058" lon="2.95118">
        <ele>893.56</ele>
        <time>2013-06-01T13:51:51Z</time>
      </trkpt>
      <trkpt lat="45.87073" lon="2.95103">
        <ele>893.23</ele>
        <time>2013-06-01T13:51:53Z</time>
      </trkpt>
      <trkpt lat="45.87092" lon="2.95079">
        <ele>892.15</ele>
        <time>2013-06-01T13:51:56Z</time>
      </trkpt>
      <trkpt lat="45.8711" lon="2.95054">
        <ele>890.1</ele>
        <time>2013-06-01T13:51:59Z</time>
      </trkpt>
      <trkpt lat="45.87124" lon="2.95032">
        <ele>887.51</ele>
        <time>2013-06-01T13:52:02Z</time>
      </trkpt>
      <trkpt lat="45.87137" lon="2.95011">
        <ele>884.68</ele>
        <time>2013-06-01T13:52:05Z</time>
      </trkpt>
      <trkpt lat="45.87154" lon="2.94994">
        <ele>881.17</ele>
        <time>2013-06-01T13:52:08Z</time>
      </trkpt>
      <trkpt lat="45.87173" lon="2.94981">
        <ele>876.94</ele>
        <time>2013-06-01T13:52:11Z</time>
      </trkpt>
      <trkpt lat="45.87192" lon="2.9497">
        <ele>872.26</ele>
        <time>2013-06-01T13:52:14Z</time>
      </trkpt>
      <trkpt lat="45.87209" lon="2.94946">
        <ele>867.26</ele>
        <time>2013-06-01T13:52:18Z</time>
      </trkpt>
      <trkpt lat="45.87222" lon="2.94919">
        <ele>862.95</ele>
        <time>2013-06-01T13:52:22Z</time>
      </trkpt>
      <trkpt lat="45.87237" lon="2.94895">
        <ele>860.22</ele>
        <time>2013-06-01T13:52:26Z</time>
      </trkpt>
      <trkpt lat="45.87251" lon="2.94871">
        <ele>859.93</ele>
        <time>2013-06-01T13:52:30Z</time>
      </trkpt>
      <trkpt lat="45.87264" lon="2.94835">
        <ele>858.91</ele>
        <time>2013-06-01T13:52:39Z</time>
      </trkpt>
      <trkpt lat="45.87269" lon="2.94805">
        <ele>860.24</ele>
        <time>2013-06-01T13:52:43Z</time>
      </trkpt>
      <trkpt lat="45.87274" lon="2.94777">
        <ele>861.88</ele>
        <time>2013-06-01T13:52:47Z</time>
      </trkpt>
      <trkpt lat="45.87278" lon="2.94751">
        <ele>863.74</ele>
        <time>2013-06-01T13:52:56Z</time>
      </trkpt>
      <trkpt lat="45.87283" lon="2.94721">
        <ele>865.29</ele>
        <time>2013-06-01T13:53:02Z</time>
      </trkpt>
      <trkpt lat="45.87292" lon="2.94691">
        <ele>865.68</ele>
        <time>2013-06-01T13:53:07Z</time>
      </trkpt>
      <trkpt lat="45.87303" lon="2.94667">
        <ele>865.76</ele>
        <time>2013-06-01T13:53:11Z</time>
      </trkpt>
      <trkpt lat="45.87316" lon="2.9464">
        <ele>865.21</ele>
        <time>2013-06-01T13:53:16Z</time>
      </trkpt>
      <trkpt lat="45.87331" lon="2.94618">
        <ele>863.38</ele>
        <time>2013-06-01T13:53:21Z</time>
      </trkpt>
      <trkpt lat="45.8735" lon="2.94597">
        <ele>857.28</ele>
        <time>2013-06-01T13:53:25Z</time>
      </trkpt>
      <trkpt lat="45.87368" lon="2.9458">
        <ele>852.6</ele>
        <time>2013-06-01T13:53:28Z</time>
      </trkpt>
      <trkpt lat="45.87384" lon="2.94562">
        <ele>848.81</ele>
        <time>2013-06-01T13:53:31Z</time>
      </trkpt>
      <trkpt lat="45.87402" lon="2.94539">
        <ele>847.51</ele>
        <time>2013-06-01T13:53:34Z</time>
      </trkpt>
      <trkpt lat="45.87421" lon="2.94513">
        <ele>847.43</ele>
        <time>2013-06-01T13:53:37Z</time>
      </trkpt>
      <trkpt lat="45.87438" lon="2.94487">
        <ele>846.38</ele>
        <time>2013-06-01T13:53:40Z</time>
      </trkpt>
      <trkpt lat="45.87456" lon="2.94461">
        <ele>844.64</ele>
        <time>2013-06-01T13:53:43Z</time>
      </trkpt>
      <trkpt lat="45.87471" lon="2.94434">
        <ele>842.5</ele>
        <time>2013-06-01T13:53:46Z</time>
      </trkpt>
      <trkpt lat="45.87489" lon="2.94404">
        <ele>840.61</ele>
        <time>2013-06-01T13:53:49Z</time>
      </trkpt>
      <trkpt lat="45.87502" lon="2.94378">
        <ele>840.25</ele>
        <time>2013-06-01T13:53:51Z</time>
      </trkpt>
      <trkpt lat="45.87512" lon="2.94352">
        <ele>840.74</ele>
        <time>2013-06-01T13:53:53Z</time>
      </trkpt>
      <trkpt lat="45.87522" lon="2.94324">
        <ele>841.45</ele>
        <time>2013-06-01T13:53:55Z</time>
      </trkpt>
      <trkpt lat="45.8753" lon="2.94292">
        <ele>842.48</ele>
        <time>2013-06-01T13:53:57Z</time>
      </trkpt>
      <trkpt lat="45.87538" lon="2.94264">
        <ele>843.49</ele>
        <time>2013-06-01T13:53:59Z</time>
      </trkpt>
      <trkpt lat="45.87544" lon="2.94238">
        <ele>844.5</ele>
        <time>2013-06-01T13:54:01Z</time>
      </trkpt>
      <trkpt lat="45.87549" lon="2.94213">
        <ele>845.07</ele>
        <time>2013-06-01T13:54:03Z</time>
      </trkpt>
      <trkpt lat="45.87555" lon="2.94178">
        <ele>846.07</ele>
        <time>2013-06-01T13:54:06Z</time>
      </trkpt>
      <trkpt lat="45.87556" lon="2.94144">
        <ele>846.77</ele>
        <time>2013-06-01T13:54:17Z</time>
      </trkpt>
      <trkpt lat="45.87548" lon="2.94114">
        <ele>845.97</ele>
        <time>2013-06-01T13:54:57Z</time>
      </trkpt>
      <trkpt lat="45.87541" lon="2.94086">
        <ele>844.59</ele>
        <time>2013-06-01T13:55:01Z</time>
      </trkpt>
      <trkpt lat="45.87538" lon="2.9406">
        <ele>843.7</ele>
        <time>2013-06-01T13:55:04Z</time>
      </trkpt>
      <trkpt lat="45.87534" lon="2.94034">
        <ele>842.35</ele>
        <time>2013-06-01T13:55:07Z</time>
      </trkpt>
      <trkpt lat="45.87533" lon="2.94009">
        <ele>840.77</ele>
        <time>2013-06-01T13:55:10Z</time>
      </trkpt>
      <trkpt lat="45.8754" lon="2.93979">
        <ele>838.41</ele>
        <time>2013-06-01T13:55:14Z</time>
      </trkpt>
      <trkpt lat="45.87551" lon="2.93951">
        <ele>835.94</ele>
        <time>2013-06-01T13:55:18Z</time>
      </trkpt>
      <trkpt lat="45.87564" lon="2.93927">
        <ele>833.65</ele>
        <time>2013-06-01T13:55:22Z</time>
      </trkpt>
      <trkpt lat="45.87576" lon="2.93906">
        <ele>835.73</ele>
        <time>2013-06-01T13:58:28Z</time>
      </trkpt>
      <trkpt lat="45.87595" lon="2.93901">
        <ele>841.14</ele>
        <time>2013-06-01T13:59:59Z</time>
      </trkpt>
      <trkpt lat="45.87612" lon="2.93912">
        <ele>846.02</ele>
        <time>2013-06-01T14:02:33Z</time>
      </trkpt>
      <trkpt lat="45.87634" lon="2.93921">
        <ele>847.38</ele>
        <time>2013-06-01T14:02:37Z</time>
      </trkpt>
      <trkpt lat="45.87656" lon="2.93923">
        <ele>847.76</ele>
        <time>2013-06-01T14:02:40Z</time>
      </trkpt>
      <trkpt lat="45.87674" lon="2.93925">
        <ele>847.34</ele>
        <time>2013-06-01T14:02:42Z</time>
      </trkpt>
      <trkpt lat="45.87693" lon="2.93929">
        <ele>846.42</ele>
        <time>2013-06-01T14:02:44Z</time>
      </trkpt>
      <trkpt lat="45.87714" lon="2.93936">
        <ele>845.46</ele>
        <time>2013-06-01T14:02:46Z</time>
      </trkpt>
      <trkpt lat="45.87734" lon="2.93944">
        <ele>844.48</ele>
        <time>2013-06-01T14:02:48Z</time>
      </trkpt>
      <trkpt lat="45.87753" lon="2.93959">
        <ele>843.75</ele>
        <time>2013-06-01T14:02:50Z</time>
      </trkpt>
      <trkpt lat="45.87774" lon="2.93974">
        <ele>842.89</ele>
        <time>2013-06-01T14:02:52Z</time>
      </trkpt>
      <trkpt lat="45.87793" lon="2.93987">
        <ele>842.42</ele>
        <time>2013-06-01T14:02:54Z</time>
      </trkpt>
      <trkpt lat="45.87811" lon="2.93996">
        <ele>841.71</ele>
        <time>2013-06-01T14:02:56Z</time>
      </trkpt>
      <trkpt lat="45.87831" lon="2.94002">
        <ele>840.74</ele>
        <time>2013-06-01T14:02:59Z</time>
      </trkpt>
      <trkpt lat="45.8785" lon="2.94004">
        <ele>839.52</ele>
        <time>2013-06-01T14:03:03Z</time>
      </trkpt>
      <trkpt lat="45.87869" lon="2.94019">
        <ele>839.03</ele>
        <time>2013-06-01T14:03:07Z</time>
      </trkpt>
      <trkpt lat="45.87883" lon="2.94041">
        <ele>838.65</ele>
        <time>2013-06-01T14:03:10Z</time>
      </trkpt>
      <trkpt lat="45.87893" lon="2.94067">
        <ele>837.63</ele>
        <time>2013-06-01T14:03:14Z</time>
      </trkpt>
      <trkpt lat="45.879" lon="2.9409">
        <ele>836.13</ele>
        <time>2013-06-01T14:03:18Z</time>
      </trkpt>
      <trkpt lat="45.87906" lon="2.94116">
        <ele>835.11</ele>
        <time>2013-06-01T14:03:23Z</time>
      </trkpt>
      <trkpt lat="45.87908" lon="2.94142">
        <ele>834.57</ele>
        <time>2013-06-01T14:03:32Z</time>
      </trkpt>
      <trkpt lat="45.87916" lon="2.94165">
        <ele>833.4</ele>
        <time>2013-06-01T14:03:39Z</time>
      </trkpt>
      <trkpt lat="45.87929" lon="2.94191">
        <ele>830.61</ele>
        <time>2013-06-01T14:03:43Z</time>
      </trkpt>
      <trkpt lat="45.87936" lon="2.94219">
        <ele>829.56</ele>
        <time>2013-06-01T14:03:46Z</time>
      </trkpt>
      <trkpt lat="45.87926" lon="2.94247">
        <ele>828.87</ele>
        <time>2013-06-01T14:03:49Z</time>
      </trkpt>
      <trkpt lat="45.87922" lon="2.94275">
        <ele>827.89</ele>
        <time>2013-06-01T14:03:53Z</time>
      </trkpt>
      <trkpt lat="45.87937" lon="2.94292">
        <ele>825.94</ele>
        <time>2013-06-01T14:03:58Z</time>
      </trkpt>
      <trkpt lat="45.87959" lon="2.94305">
        <ele>824.58</ele>
        <time>2013-06-01T14:04:02Z</time>
      </trkpt>
      <trkpt lat="45.87979" lon="2.94324">
        <ele>824.13</ele>
        <time>2013-06-01T14:04:05Z</time>
      </trkpt>
      <trkpt lat="45.87994" lon="2.94343">
        <ele>823.94</ele>
        <time>2013-06-01T14:04:08Z</time>
      </trkpt>
      <trkpt lat="45.88008" lon="2.94365">
        <ele>823.03</ele>
        <time>2013-06-01T14:04:11Z</time>
      </trkpt>
      <trkpt lat="45.88023" lon="2.94386">
        <ele>821.88</ele>
        <time>2013-06-01T14:04:14Z</time>
      </trkpt>
      <trkpt lat="45.88038" lon="2.94408">
        <ele>820.43</ele>
        <time>2013-06-01T14:04:17Z</time>
      </trkpt>
      <trkpt lat="45.8805" lon="2.94431">
        <ele>819.24</ele>
        <time>2013-06-01T14:04:20Z</time>
      </trkpt>
      <trkpt lat="45.88063" lon="2.94459">
        <ele>818.16</ele>
        <time>2013-06-01T14:04:23Z</time>
      </trkpt>
      <trkpt lat="45.88082" lon="2.94466">
        <ele>816.54</ele>
        <time>2013-06-01T14:04:27Z</time>
      </trkpt>
      <trkpt lat="45.88102" lon="2.94468">
        <ele>814.71</ele>
        <time>2013-06-01T14:04:32Z</time>
      </trkpt>
      <trkpt lat="45.88121" lon="2.94472">
        <ele>813.84</ele>
        <time>2013-06-01T14:04:36Z</time>
      </trkpt>
      <trkpt lat="45.88143" lon="2.94483">
        <ele>812.55</ele>
        <time>2013-06-01T14:04:40Z</time>
      </trkpt>
      <trkpt lat="45.88165" lon="2.94492">
        <ele>810.97</ele>
        <time>2013-06-01T14:04:48Z</time>
      </trkpt>
      <trkpt lat="45.88185" lon="2.94492">
        <ele>809.99</ele>
        <time>2013-06-01T14:04:58Z</time>
      </trkpt>
      <trkpt lat="45.88204" lon="2.94494">
        <ele>809.81</ele>
        <time>2013-06-01T14:05:07Z</time>
      </trkpt>
      <trkpt lat="45.88226" lon="2.94494">
        <ele>809.8</ele>
        <time>2013-06-01T14:05:16Z</time>
      </trkpt>
      <trkpt lat="45.88246" lon="2.94498">
        <ele>809.8</ele>
        <time>2013-06-01T14:05:24Z</time>
      </trkpt>
      <trkpt lat="45.88262" lon="2.94511">
        <ele>809.8</ele>
        <time>2013-06-01T14:05:29Z</time>
      </trkpt>
      <trkpt lat="45.88278" lon="2.94534">
        <ele>809.8</ele>
        <time>2013-06-01T14:05:34Z</time>
      </trkpt>
      <trkpt lat="45.8829" lon="2.94562">
        <ele>810.56</ele>
        <time>2013-06-01T14:05:39Z</time>
      </trkpt>
      <trkpt lat="45.88298" lon="2.94588">
        <ele>811.41</ele>
        <time>2013-06-01T14:05:43Z</time>
      </trkpt>
      <trkpt lat="45.8831" lon="2.94616">
        <ele>814.31</ele>
        <time>2013-06-01T14:05:47Z</time>
      </trkpt>
      <trkpt lat="45.88326" lon="2.9464">
        <ele>816.69</ele>
        <time>2013-06-01T14:05:51Z</time>
      </trkpt>
      <trkpt lat="45.88338" lon="2.94663">
        <ele>817.89</ele>
        <time>2013-06-01T14:05:55Z</time>
      </trkpt>
      <trkpt lat="45.88346" lon="2.94687">
        <ele>818.58</ele>
        <time>2013-06-01T14:06:00Z</time>
      </trkpt>
      <trkpt lat="45.8835" lon="2.94715">
        <ele>818.18</ele>
        <time>2013-06-01T14:06:06Z</time>
      </trkpt>
      <trkpt lat="45.88348" lon="2.94745">
        <ele>817.06</ele>
        <time>2013-06-01T14:06:11Z</time>
      </trkpt>
      <trkpt lat="45.88343" lon="2.94773">
        <ele>815.62</ele>
        <time>2013-06-01T14:06:15Z</time>
      </trkpt>
      <trkpt lat="45.88338" lon="2.94798">
        <ele>815.06</ele>
        <time>2013-06-01T14:06:19Z</time>
      </trkpt>
      <trkpt lat="45.88334" lon="2.94831">
        <ele>814.88</ele>
        <time>2013-06-01T14:06:23Z</time>
      </trkpt>
      <trkpt lat="45.88337" lon="2.94861">
        <ele>814.83</ele>
        <time>2013-06-01T14:06:27Z</time>
      </trkpt>
      <trkpt lat="45.88343" lon="2.94886">
        <ele>814.81</ele>
        <time>2013-06-01T14:06:31Z</time>
      </trkpt>
      <trkpt lat="45.88351" lon="2.9491">
        <ele>814.8</ele>
        <time>2013-06-01T14:06:35Z</time>
      </trkpt>
      <trkpt lat="45.88358" lon="2.94938">
        <ele>814.12</ele>
        <time>2013-06-01T14:06:40Z</time>
      </trkpt>
      <trkpt lat="45.88365" lon="2.94964">
        <ele>813.46</ele>
        <time>2013-06-01T14:06:44Z</time>
      </trkpt>
      <trkpt lat="45.88369" lon="2.94994">
        <ele>813.01</ele>
        <time>2013-06-01T14:06:48Z</time>
      </trkpt>
      <trkpt lat="45.8837" lon="2.95022">
        <ele>813.32</ele>
        <time>2013-06-01T14:06:51Z</time>
      </trkpt>
      <trkpt lat="45.88371" lon="2.95049">
        <ele>813.6</ele>
        <time>2013-06-01T14:06:54Z</time>
      </trkpt>
      <trkpt lat="45.88372" lon="2.95077">
        <ele>814.29</ele>
        <time>2013-06-01T14:06:57Z</time>
      </trkpt>
      <trkpt lat="45.88374" lon="2.95105">
        <ele>815.16</ele>
        <time>2013-06-01T14:07:00Z</time>
      </trkpt>
      <trkpt lat="45.88379" lon="2.95135">
        <ele>816.04</ele>
        <time>2013-06-01T14:07:04Z</time>
      </trkpt>
      <trkpt lat="45.88385" lon="2.95161">
        <ele>816.81</ele>
        <time>2013-06-01T14:07:08Z</time>
      </trkpt>
      <trkpt lat="45.88388" lon="2.95189">
        <ele>817.38</ele>
        <time>2013-06-01T14:07:11Z</time>
      </trkpt>
      <trkpt lat="45.88391" lon="2.95221">
        <ele>817.62</ele>
        <time>2013-06-01T14:07:14Z</time>
      </trkpt>
      <trkpt lat="45.88392" lon="2.95255">
        <ele>817.72</ele>
        <time>2013-06-01T14:07:17Z</time>
      </trkpt>
      <trkpt lat="45.88394" lon="2.95281">
        <ele>817.76</ele>
        <time>2013-06-01T14:07:19Z</time>
      </trkpt>
      <trkpt lat="45.88397" lon="2.95307">
        <ele>817.78</ele>
        <time>2013-06-01T14:07:21Z</time>
      </trkpt>
      <trkpt lat="45.88401" lon="2.95343">
        <ele>817.79</ele>
        <time>2013-06-01T14:07:24Z</time>
      </trkpt>
      <trkpt lat="45.88406" lon="2.95378">
        <ele>817.79</ele>
        <time>2013-06-01T14:07:27Z</time>
      </trkpt>
      <trkpt lat="45.88408" lon="2.95408">
        <ele>818.05</ele>
        <time>2013-06-01T14:07:30Z</time>
      </trkpt>
      <trkpt lat="45.8841" lon="2.95438">
        <ele>818.48</ele>
        <time>2013-06-01T14:07:33Z</time>
      </trkpt>
      <trkpt lat="45.8841" lon="2.95468">
        <ele>819.1</ele>
        <time>2013-06-01T14:07:36Z</time>
      </trkpt>
      <trkpt lat="45.8841" lon="2.95498">
        <ele>819.51</ele>
        <time>2013-06-01T14:07:39Z</time>
      </trkpt>
      <trkpt lat="45.8841" lon="2.95528">
        <ele>819.68</ele>
        <time>2013-06-01T14:07:42Z</time>
      </trkpt>
      <trkpt lat="45.88411" lon="2.95562">
        <ele>819.31</ele>
        <time>2013-06-01T14:07:45Z</time>
      </trkpt>
      <trkpt lat="45.88415" lon="2.95597">
        <ele>818.58</ele>
        <time>2013-06-01T14:07:48Z</time>
      </trkpt>
      <trkpt lat="45.88421" lon="2.95631">
        <ele>817.55</ele>
        <time>2013-06-01T14:07:51Z</time>
      </trkpt>
      <trkpt lat="45.88425" lon="2.95665">
        <ele>817.12</ele>
        <time>2013-06-01T14:07:54Z</time>
      </trkpt>
      <trkpt lat="45.88429" lon="2.957">
        <ele>816.93</ele>
        <time>2013-06-01T14:07:57Z</time>
      </trkpt>
      <trkpt lat="45.88435" lon="2.95734">
        <ele>816.86</ele>
        <time>2013-06-01T14:08:00Z</time>
      </trkpt>
      <trkpt lat="45.88438" lon="2.9577">
        <ele>816.82</ele>
        <time>2013-06-01T14:08:03Z</time>
      </trkpt>
      <trkpt lat="45.88441" lon="2.95796">
        <ele>816.81</ele>
        <time>2013-06-01T14:08:05Z</time>
      </trkpt>
      <trkpt lat="45.88444" lon="2.95833">
        <ele>816.23</ele>
        <time>2013-06-01T14:08:08Z</time>
      </trkpt>
      <trkpt lat="45.88445" lon="2.95858">
        <ele>816.04</ele>
        <time>2013-06-01T14:08:10Z</time>
      </trkpt>
      <trkpt lat="45.88445" lon="2.95891">
        <ele>815.46</ele>
        <time>2013-06-01T14:08:13Z</time>
      </trkpt>
      <trkpt lat="45.88453" lon="2.95916">
        <ele>815.08</ele>
        <time>2013-06-01T14:08:16Z</time>
      </trkpt>
      <trkpt lat="45.88461" lon="2.9594">
        <ele>814.67</ele>
        <time>2013-06-01T14:08:19Z</time>
      </trkpt>
      <trkpt lat="45.88471" lon="2.95964">
        <ele>814.17</ele>
        <time>2013-06-01T14:08:22Z</time>
      </trkpt>
      <trkpt lat="45.88482" lon="2.95991">
        <ele>813.91</ele>
        <time>2013-06-01T14:08:26Z</time>
      </trkpt>
      <trkpt lat="45.88494" lon="2.96013">
        <ele>813.84</ele>
        <time>2013-06-01T14:08:30Z</time>
      </trkpt>
      <trkpt lat="45.88505" lon="2.96036">
        <ele>813.37</ele>
        <time>2013-06-01T14:08:35Z</time>
      </trkpt>
      <trkpt lat="45.88515" lon="2.9606">
        <ele>812.25</ele>
        <time>2013-06-01T14:08:40Z</time>
      </trkpt>
      <trkpt lat="45.88525" lon="2.96084">
        <ele>811.91</ele>
        <time>2013-06-01T14:08:45Z</time>
      </trkpt>
      <trkpt lat="45.88534" lon="2.96107">
        <ele>811.82</ele>
        <time>2013-06-01T14:08:51Z</time>
      </trkpt>
      <trkpt lat="45.88542" lon="2.96133">
        <ele>811.8</ele>
        <time>2013-06-01T14:08:57Z</time>
      </trkpt>
      <trkpt lat="45.88549" lon="2.96159">
        <ele>812.38</ele>
        <time>2013-06-01T14:09:01Z</time>
      </trkpt>
      <trkpt lat="45.88559" lon="2.96182">
        <ele>813.35</ele>
        <time>2013-06-01T14:09:05Z</time>
      </trkpt>
      <trkpt lat="45.88571" lon="2.96206">
        <ele>813.41</ele>
        <time>2013-06-01T14:09:09Z</time>
      </trkpt>
      <trkpt lat="45.88584" lon="2.96232">
        <ele>812.99</ele>
        <time>2013-06-01T14:09:13Z</time>
      </trkpt>
      <trkpt lat="45.88594" lon="2.96255">
        <ele>812.44</ele>
        <time>2013-06-01T14:09:16Z</time>
      </trkpt>
      <trkpt lat="45.88607" lon="2.96283">
        <ele>812.07</ele>
        <time>2013-06-01T14:09:19Z</time>
      </trkpt>
      <trkpt lat="45.88617" lon="2.96311">
        <ele>812.49</ele>
        <time>2013-06-01T14:09:22Z</time>
      </trkpt>
      <trkpt lat="45.88624" lon="2.96341">
        <ele>813.11</ele>
        <time>2013-06-01T14:09:25Z</time>
      </trkpt>
      <trkpt lat="45.88632" lon="2.96371">
        <ele>813.76</ele>
        <time>2013-06-01T14:09:28Z</time>
      </trkpt>
      <trkpt lat="45.88643" lon="2.96401">
        <ele>814.36</ele>
        <time>2013-06-01T14:09:31Z</time>
      </trkpt>
      <trkpt lat="45.88656" lon="2.96429">
        <ele>815.19</ele>
        <time>2013-06-01T14:09:34Z</time>
      </trkpt>
      <trkpt lat="45.88671" lon="2.96455">
        <ele>815.79</ele>
        <time>2013-06-01T14:09:37Z</time>
      </trkpt>
      <trkpt lat="45.88686" lon="2.96483">
        <ele>816.37</ele>
        <time>2013-06-01T14:09:40Z</time>
      </trkpt>
      <trkpt lat="45.887" lon="2.96506">
        <ele>816.66</ele>
        <time>2013-06-01T14:09:44Z</time>
      </trkpt>
      <trkpt lat="45.8872" lon="2.96513">
        <ele>815.67</ele>
        <time>2013-06-01T14:10:03Z</time>
      </trkpt>
      <trkpt lat="45.88738" lon="2.96517">
        <ele>812.69</ele>
        <time>2013-06-01T14:10:07Z</time>
      </trkpt>
      <trkpt lat="45.88752" lon="2.96534">
        <ele>811.16</ele>
        <time>2013-06-01T14:10:10Z</time>
      </trkpt>
      <trkpt lat="45.88769" lon="2.96551">
        <ele>809.94</ele>
        <time>2013-06-01T14:10:13Z</time>
      </trkpt>
      <trkpt lat="45.88794" lon="2.96562">
        <ele>808.14</ele>
        <time>2013-06-01T14:10:18Z</time>
      </trkpt>
      <trkpt lat="45.88812" lon="2.96571">
        <ele>807.55</ele>
        <time>2013-06-01T14:10:20Z</time>
      </trkpt>
      <trkpt lat="45.88835" lon="2.96575">
        <ele>806.97</ele>
        <time>2013-06-01T14:10:22Z</time>
      </trkpt>
      <trkpt lat="45.88854" lon="2.96577">
        <ele>806.21</ele>
        <time>2013-06-01T14:10:24Z</time>
      </trkpt>
      <trkpt lat="45.88872" lon="2.96579">
        <ele>804.13</ele>
        <time>2013-06-01T14:10:27Z</time>
      </trkpt>
      <trkpt lat="45.88886" lon="2.96601">
        <ele>801.52</ele>
        <time>2013-06-01T14:10:31Z</time>
      </trkpt>
      <trkpt lat="45.88887" lon="2.96633">
        <ele>799.26</ele>
        <time>2013-06-01T14:10:34Z</time>
      </trkpt>
      <trkpt lat="45.88891" lon="2.96661">
        <ele>797.5</ele>
        <time>2013-06-01T14:10:36Z</time>
      </trkpt>
      <trkpt lat="45.88894" lon="2.96689">
        <ele>795.63</ele>
        <time>2013-06-01T14:10:38Z</time>
      </trkpt>
      <trkpt lat="45.88897" lon="2.96721">
        <ele>793.56</ele>
        <time>2013-06-01T14:10:41Z</time>
      </trkpt>
      <trkpt lat="45.88899" lon="2.96749">
        <ele>791.96</ele>
        <time>2013-06-01T14:10:44Z</time>
      </trkpt>
      <trkpt lat="45.889" lon="2.96781">
        <ele>790.85</ele>
        <time>2013-06-01T14:10:47Z</time>
      </trkpt>
      <trkpt lat="45.88898" lon="2.96815">
        <ele>789.99</ele>
        <time>2013-06-01T14:10:50Z</time>
      </trkpt>
      <trkpt lat="45.88894" lon="2.96848">
        <ele>789.3</ele>
        <time>2013-06-01T14:10:53Z</time>
      </trkpt>
      <trkpt lat="45.88889" lon="2.9688">
        <ele>788.43</ele>
        <time>2013-06-01T14:10:56Z</time>
      </trkpt>
      <trkpt lat="45.88884" lon="2.96908">
        <ele>788.07</ele>
        <time>2013-06-01T14:10:59Z</time>
      </trkpt>
      <trkpt lat="45.88879" lon="2.96936">
        <ele>788.16</ele>
        <time>2013-06-01T14:11:02Z</time>
      </trkpt>
      <trkpt lat="45.88874" lon="2.96963">
        <ele>788.53</ele>
        <time>2013-06-01T14:11:05Z</time>
      </trkpt>
      <trkpt lat="45.88866" lon="2.96993">
        <ele>789.29</ele>
        <time>2013-06-01T14:11:09Z</time>
      </trkpt>
      <trkpt lat="45.88854" lon="2.97019">
        <ele>789.64</ele>
        <time>2013-06-01T14:11:13Z</time>
      </trkpt>
      <trkpt lat="45.88841" lon="2.97041">
        <ele>789.75</ele>
        <time>2013-06-01T14:11:17Z</time>
      </trkpt>
      <trkpt lat="45.88829" lon="2.97064">
        <ele>789.79</ele>
        <time>2013-06-01T14:11:22Z</time>
      </trkpt>
      <trkpt lat="45.88818" lon="2.97086">
        <ele>789.8</ele>
        <time>2013-06-01T14:11:26Z</time>
      </trkpt>
      <trkpt lat="45.88805" lon="2.97109">
        <ele>790.05</ele>
        <time>2013-06-01T14:11:30Z</time>
      </trkpt>
      <trkpt lat="45.8879" lon="2.97133">
        <ele>790.56</ele>
        <time>2013-06-01T14:11:34Z</time>
      </trkpt>
      <trkpt lat="45.88776" lon="2.97159">
        <ele>790.72</ele>
        <time>2013-06-01T14:11:38Z</time>
      </trkpt>
      <trkpt lat="45.88763" lon="2.97182">
        <ele>790.78</ele>
        <time>2013-06-01T14:11:42Z</time>
      </trkpt>
      <trkpt lat="45.8875" lon="2.97204">
        <ele>790.79</ele>
        <time>2013-06-01T14:11:46Z</time>
      </trkpt>
      <trkpt lat="45.88737" lon="2.97225">
        <ele>790.8</ele>
        <time>2013-06-01T14:11:50Z</time>
      </trkpt>
      <trkpt lat="45.88723" lon="2.97249">
        <ele>791.05</ele>
        <time>2013-06-01T14:11:54Z</time>
      </trkpt>
      <trkpt lat="45.88712" lon="2.9727">
        <ele>791.48</ele>
        <time>2013-06-01T14:11:57Z</time>
      </trkpt>
      <trkpt lat="45.88711" lon="2.97298">
        <ele>791.67</ele>
        <time>2013-06-01T14:12:00Z</time>
      </trkpt>
      <trkpt lat="45.88715" lon="2.97328">
        <ele>791.74</ele>
        <time>2013-06-01T14:12:03Z</time>
      </trkpt>
      <trkpt lat="45.88717" lon="2.97356">
        <ele>791.34</ele>
        <time>2013-06-01T14:12:06Z</time>
      </trkpt>
      <trkpt lat="45.88718" lon="2.97388">
        <ele>790.97</ele>
        <time>2013-06-01T14:12:10Z</time>
      </trkpt>
      <trkpt lat="45.88719" lon="2.97418">
        <ele>790.27</ele>
        <time>2013-06-01T14:12:14Z</time>
      </trkpt>
      <trkpt lat="45.88719" lon="2.97448">
        <ele>789.27</ele>
        <time>2013-06-01T14:12:18Z</time>
      </trkpt>
      <trkpt lat="45.8872" lon="2.97476">
        <ele>788.95</ele>
        <time>2013-06-01T14:12:22Z</time>
      </trkpt>
      <trkpt lat="45.88721" lon="2.97504">
        <ele>788.85</ele>
        <time>2013-06-01T14:12:26Z</time>
      </trkpt>
      <trkpt lat="45.88719" lon="2.97534">
        <ele>788.81</ele>
        <time>2013-06-01T14:12:30Z</time>
      </trkpt>
      <trkpt lat="45.88718" lon="2.97564">
        <ele>788.12</ele>
        <time>2013-06-01T14:12:35Z</time>
      </trkpt>
      <trkpt lat="45.8872" lon="2.97592">
        <ele>787.9</ele>
        <time>2013-06-01T14:12:39Z</time>
      </trkpt>
      <trkpt lat="45.88724" lon="2.97618">
        <ele>787.4</ele>
        <time>2013-06-01T14:12:42Z</time>
      </trkpt>
      <trkpt lat="45.88732" lon="2.97646">
        <ele>786.48</ele>
        <time>2013-06-01T14:12:45Z</time>
      </trkpt>
      <trkpt lat="45.88739" lon="2.97672">
        <ele>785.51</ele>
        <time>2013-06-01T14:12:48Z</time>
      </trkpt>
      <trkpt lat="45.88748" lon="2.97697">
        <ele>785.1</ele>
        <time>2013-06-01T14:12:51Z</time>
      </trkpt>
      <trkpt lat="45.88756" lon="2.97725">
        <ele>784.92</ele>
        <time>2013-06-01T14:12:54Z</time>
      </trkpt>
      <trkpt lat="45.8876" lon="2.97755">
        <ele>785.1</ele>
        <time>2013-06-01T14:12:57Z</time>
      </trkpt>
      <trkpt lat="45.88762" lon="2.97787">
        <ele>785.51</ele>
        <time>2013-06-01T14:13:00Z</time>
      </trkpt>
      <trkpt lat="45.88763" lon="2.9782">
        <ele>785.67</ele>
        <time>2013-06-01T14:13:03Z</time>
      </trkpt>
      <trkpt lat="45.88761" lon="2.97852">
        <ele>785.75</ele>
        <time>2013-06-01T14:13:06Z</time>
      </trkpt>
      <trkpt lat="45.88759" lon="2.97884">
        <ele>785.78</ele>
        <time>2013-06-01T14:13:09Z</time>
      </trkpt>
      <trkpt lat="45.88755" lon="2.97914">
        <ele>786.04</ele>
        <time>2013-06-01T14:13:12Z</time>
      </trkpt>
      <trkpt lat="45.88754" lon="2.97942">
        <ele>786.48</ele>
        <time>2013-06-01T14:13:15Z</time>
      </trkpt>
      <trkpt lat="45.88759" lon="2.97968">
        <ele>786.66</ele>
        <time>2013-06-01T14:13:18Z</time>
      </trkpt>
      <trkpt lat="45.88761" lon="2.97993">
        <ele>786.49</ele>
        <time>2013-06-01T14:13:21Z</time>
      </trkpt>
      <trkpt lat="45.88759" lon="2.98023">
        <ele>786.02</ele>
        <time>2013-06-01T14:13:25Z</time>
      </trkpt>
      <trkpt lat="45.88758" lon="2.98054">
        <ele>785.18</ele>
        <time>2013-06-01T14:13:29Z</time>
      </trkpt>
      <trkpt lat="45.88755" lon="2.98081">
        <ele>783.99</ele>
        <time>2013-06-01T14:13:33Z</time>
      </trkpt>
      <trkpt lat="45.88753" lon="2.98107">
        <ele>782.4</ele>
        <time>2013-06-01T14:13:38Z</time>
      </trkpt>
      <trkpt lat="45.88752" lon="2.98133">
        <ele>781.88</ele>
        <time>2013-06-01T14:13:45Z</time>
      </trkpt>
      <trkpt lat="45.88759" lon="2.98161">
        <ele>781.8</ele>
        <time>2013-06-01T14:14:00Z</time>
      </trkpt>
      <trkpt lat="45.88774" lon="2.9818">
        <ele>781.04</ele>
        <time>2013-06-01T14:14:11Z</time>
      </trkpt>
      <trkpt lat="45.88779" lon="2.98206">
        <ele>780.87</ele>
        <time>2013-06-01T14:14:15Z</time>
      </trkpt>
      <trkpt lat="45.88777" lon="2.98234">
        <ele>780.81</ele>
        <time>2013-06-01T14:14:22Z</time>
      </trkpt>
      <trkpt lat="45.88779" lon="2.98264">
        <ele>779.1</ele>
        <time>2013-06-01T14:14:26Z</time>
      </trkpt>
      <trkpt lat="45.88781" lon="2.9829">
        <ele>777.33</ele>
        <time>2013-06-01T14:14:29Z</time>
      </trkpt>
      <trkpt lat="45.88781" lon="2.98317">
        <ele>775.6</ele>
        <time>2013-06-01T14:14:33Z</time>
      </trkpt>
      <trkpt lat="45.8879" lon="2.98343">
        <ele>774.36</ele>
        <time>2013-06-01T14:14:39Z</time>
      </trkpt>
      <trkpt lat="45.88798" lon="2.98369">
        <ele>772.03</ele>
        <time>2013-06-01T14:14:43Z</time>
      </trkpt>
      <trkpt lat="45.888" lon="2.98399">
        <ele>769.38</ele>
        <time>2013-06-01T14:14:47Z</time>
      </trkpt>
      <trkpt lat="45.88799" lon="2.98425">
        <ele>767.72</ele>
        <time>2013-06-01T14:14:51Z</time>
      </trkpt>
      <trkpt lat="45.88806" lon="2.9845">
        <ele>765.56</ele>
        <time>2013-06-01T14:15:16Z</time>
      </trkpt>
      <trkpt lat="45.88825" lon="2.98465">
        <ele>763.1</ele>
        <time>2013-06-01T14:15:21Z</time>
      </trkpt>
      <trkpt lat="45.88844" lon="2.98472">
        <ele>760.77</ele>
        <time>2013-06-01T14:15:26Z</time>
      </trkpt>
      <trkpt lat="45.88864" lon="2.98476">
        <ele>760.03</ele>
        <time>2013-06-01T14:15:31Z</time>
      </trkpt>
      <trkpt lat="45.88888" lon="2.98489">
        <ele>760.76</ele>
        <time>2013-06-01T14:15:41Z</time>
      </trkpt>
      <trkpt lat="45.88908" lon="2.98481">
        <ele>761.05</ele>
        <time>2013-06-01T14:16:10Z</time>
      </trkpt>
      <trkpt lat="45.88927" lon="2.98489">
        <ele>761.62</ele>
        <time>2013-06-01T14:16:15Z</time>
      </trkpt>
      <trkpt lat="45.88947" lon="2.98496">
        <ele>762.08</ele>
        <time>2013-06-01T14:16:20Z</time>
      </trkpt>
      <trkpt lat="45.8897" lon="2.98496">
        <ele>761.84</ele>
        <time>2013-06-01T14:16:27Z</time>
      </trkpt>
      <trkpt lat="45.88989" lon="2.98487">
        <ele>761.8</ele>
        <time>2013-06-01T14:16:34Z</time>
      </trkpt>
      <trkpt lat="45.89009" lon="2.98491">
        <ele>761.8</ele>
        <time>2013-06-01T14:16:40Z</time>
      </trkpt>
      <trkpt lat="45.8903" lon="2.98496">
        <ele>761.8</ele>
        <time>2013-06-01T14:16:46Z</time>
      </trkpt>
      <trkpt lat="45.89048" lon="2.98502">
        <ele>761.8</ele>
        <time>2013-06-01T14:16:50Z</time>
      </trkpt>
      <trkpt lat="45.89069" lon="2.98506">
        <ele>762.48</ele>
        <time>2013-06-01T14:16:54Z</time>
      </trkpt>
      <trkpt lat="45.8909" lon="2.98508">
        <ele>763.28</ele>
        <time>2013-06-01T14:16:58Z</time>
      </trkpt>
      <trkpt lat="45.8911" lon="2.98506">
        <ele>763.68</ele>
        <time>2013-06-01T14:17:03Z</time>
      </trkpt>
      <trkpt lat="45.89129" lon="2.985">
        <ele>763.78</ele>
        <time>2013-06-01T14:17:09Z</time>
      </trkpt>
      <trkpt lat="45.89149" lon="2.98498">
        <ele>763.8</ele>
        <time>2013-06-01T14:17:18Z</time>
      </trkpt>
      <trkpt lat="45.89168" lon="2.98489">
        <ele>763.04</ele>
        <time>2013-06-01T14:17:26Z</time>
      </trkpt>
      <trkpt lat="45.89189" lon="2.98481">
        <ele>762.84</ele>
        <time>2013-06-01T14:17:32Z</time>
      </trkpt>
      <trkpt lat="45.89208" lon="2.98478">
        <ele>762.81</ele>
        <time>2013-06-01T14:17:38Z</time>
      </trkpt>
      <trkpt lat="45.89226" lon="2.98481">
        <ele>763.05</ele>
        <time>2013-06-01T14:17:43Z</time>
      </trkpt>
      <trkpt lat="45.89247" lon="2.98481">
        <ele>763.62</ele>
        <time>2013-06-01T14:17:48Z</time>
      </trkpt>
      <trkpt lat="45.89268" lon="2.9847">
        <ele>764.33</ele>
        <time>2013-06-01T14:17:53Z</time>
      </trkpt>
      <trkpt lat="45.89285" lon="2.98457">
        <ele>764.65</ele>
        <time>2013-06-01T14:17:57Z</time>
      </trkpt>
      <trkpt lat="45.89303" lon="2.98444">
        <ele>766.02</ele>
        <time>2013-06-01T14:18:01Z</time>
      </trkpt>
      <trkpt lat="45.89321" lon="2.98431">
        <ele>768.75</ele>
        <time>2013-06-01T14:18:05Z</time>
      </trkpt>
      <trkpt lat="45.89339" lon="2.98423">
        <ele>770.59</ele>
        <time>2013-06-01T14:18:09Z</time>
      </trkpt>
      <trkpt lat="45.89357" lon="2.98418">
        <ele>771.99</ele>
        <time>2013-06-01T14:18:13Z</time>
      </trkpt>
      <trkpt lat="45.89378" lon="2.98412">
        <ele>772.61</ele>
        <time>2013-06-01T14:18:18Z</time>
      </trkpt>
      <trkpt lat="45.89398" lon="2.9841">
        <ele>773.33</ele>
        <time>2013-06-01T14:18:23Z</time>
      </trkpt>
      <trkpt lat="45.89418" lon="2.98414">
        <ele>773.69</ele>
        <time>2013-06-01T14:18:28Z</time>
      </trkpt>
      <trkpt lat="45.8944" lon="2.98418">
        <ele>773.77</ele>
        <time>2013-06-01T14:18:33Z</time>
      </trkpt>
      <trkpt lat="45.89458" lon="2.9842">
        <ele>774.23</ele>
        <time>2013-06-01T14:18:38Z</time>
      </trkpt>
      <trkpt lat="45.89478" lon="2.9842">
        <ele>774.7</ele>
        <time>2013-06-01T14:18:44Z</time>
      </trkpt>
      <trkpt lat="45.89498" lon="2.9842">
        <ele>774.78</ele>
        <time>2013-06-01T14:18:50Z</time>
      </trkpt>
      <trkpt lat="45.89517" lon="2.98423">
        <ele>774.8</ele>
        <time>2013-06-01T14:18:56Z</time>
      </trkpt>
      <trkpt lat="45.89536" lon="2.98423">
        <ele>775.56</ele>
        <time>2013-06-01T14:19:02Z</time>
      </trkpt>
      <trkpt lat="45.89555" lon="2.98425">
        <ele>775.74</ele>
        <time>2013-06-01T14:19:07Z</time>
      </trkpt>
      <trkpt lat="45.89575" lon="2.98427">
        <ele>776.04</ele>
        <time>2013-06-01T14:19:12Z</time>
      </trkpt>
      <trkpt lat="45.89597" lon="2.98427">
        <ele>776.62</ele>
        <time>2013-06-01T14:19:17Z</time>
      </trkpt>
      <trkpt lat="45.89615" lon="2.98435">
        <ele>776.77</ele>
        <time>2013-06-01T14:19:24Z</time>
      </trkpt>
      <trkpt lat="45.89615" lon="2.98465">
        <ele>776.8</ele>
        <time>2013-06-01T14:19:31Z</time>
      </trkpt>
      <trkpt lat="45.89614" lon="2.98493">
        <ele>777.24</ele>
        <time>2013-06-01T14:19:37Z</time>
      </trkpt>
      <trkpt lat="45.89607" lon="2.98521">
        <ele>777.7</ele>
        <time>2013-06-01T14:19:43Z</time>
      </trkpt>
      <trkpt lat="45.89599" lon="2.98547">
        <ele>777.79</ele>
        <time>2013-06-01T14:19:50Z</time>
      </trkpt>
      <trkpt lat="45.89587" lon="2.98571">
        <ele>777.8</ele>
        <time>2013-06-01T14:19:57Z</time>
      </trkpt>
      <trkpt lat="45.89577" lon="2.98594">
        <ele>777.8</ele>
        <time>2013-06-01T14:20:02Z</time>
      </trkpt>
      <trkpt lat="45.89568" lon="2.98618">
        <ele>777.8</ele>
        <time>2013-06-01T14:20:07Z</time>
      </trkpt>
      <trkpt lat="45.8956" lon="2.98646">
        <ele>777.8</ele>
        <time>2013-06-01T14:20:12Z</time>
      </trkpt>
      <trkpt lat="45.89556" lon="2.98674">
        <ele>778.56</ele>
        <time>2013-06-01T14:20:22Z</time>
      </trkpt>
      <trkpt lat="45.89551" lon="2.98702">
        <ele>780.17</ele>
        <time>2013-06-01T14:20:39Z</time>
      </trkpt>
      <trkpt lat="45.89544" lon="2.98725">
        <ele>781.8</ele>
        <time>2013-06-01T14:21:23Z</time>
      </trkpt>
      <trkpt lat="45.89533" lon="2.98747">
        <ele>782.48</ele>
        <time>2013-06-01T14:21:29Z</time>
      </trkpt>
      <trkpt lat="45.89525" lon="2.9877">
        <ele>782.72</ele>
        <time>2013-06-01T14:21:34Z</time>
      </trkpt>
      <trkpt lat="45.89517" lon="2.988">
        <ele>782.78</ele>
        <time>2013-06-01T14:21:39Z</time>
      </trkpt>
      <trkpt lat="45.89512" lon="2.9883">
        <ele>782.79</ele>
        <time>2013-06-01T14:21:44Z</time>
      </trkpt>
      <trkpt lat="45.89507" lon="2.98862">
        <ele>782.8</ele>
        <time>2013-06-01T14:21:49Z</time>
      </trkpt>
      <trkpt lat="45.89504" lon="2.98888">
        <ele>782.8</ele>
        <time>2013-06-01T14:21:53Z</time>
      </trkpt>
      <trkpt lat="45.89498" lon="2.98914">
        <ele>782.8</ele>
        <time>2013-06-01T14:21:57Z</time>
      </trkpt>
      <trkpt lat="45.89489" lon="2.9894">
        <ele>782.22</ele>
        <time>2013-06-01T14:22:01Z</time>
      </trkpt>
      <trkpt lat="45.89478" lon="2.98963">
        <ele>782.37</ele>
        <time>2013-06-01T14:22:05Z</time>
      </trkpt>
      <trkpt lat="45.89469" lon="2.98991">
        <ele>784.61</ele>
        <time>2013-06-01T14:22:09Z</time>
      </trkpt>
      <trkpt lat="45.89466" lon="2.99017">
        <ele>786.31</ele>
        <time>2013-06-01T14:22:12Z</time>
      </trkpt>
      <trkpt lat="45.89462" lon="2.99047">
        <ele>787.75</ele>
        <time>2013-06-01T14:22:15Z</time>
      </trkpt>
      <trkpt lat="45.89459" lon="2.99075">
        <ele>788.36</ele>
        <time>2013-06-01T14:22:18Z</time>
      </trkpt>
      <trkpt lat="45.89455" lon="2.99101">
        <ele>788.61</ele>
        <time>2013-06-01T14:22:21Z</time>
      </trkpt>
      <trkpt lat="45.89441" lon="2.99129">
        <ele>788.72</ele>
        <time>2013-06-01T14:22:24Z</time>
      </trkpt>
      <trkpt lat="45.89428" lon="2.99159">
        <ele>789.34</ele>
        <time>2013-06-01T14:22:27Z</time>
      </trkpt>
      <trkpt lat="45.89423" lon="2.99189">
        <ele>789.61</ele>
        <time>2013-06-01T14:22:30Z</time>
      </trkpt>
      <trkpt lat="45.89426" lon="2.99221">
        <ele>789.28</ele>
        <time>2013-06-01T14:22:33Z</time>
      </trkpt>
      <trkpt lat="45.8943" lon="2.99251">
        <ele>788.56</ele>
        <time>2013-06-01T14:22:36Z</time>
      </trkpt>
      <trkpt lat="45.89437" lon="2.99283">
        <ele>787.68</ele>
        <time>2013-06-01T14:22:39Z</time>
      </trkpt>
      <trkpt lat="45.89441" lon="2.99313">
        <ele>786.74</ele>
        <time>2013-06-01T14:22:42Z</time>
      </trkpt>
      <trkpt lat="45.89444" lon="2.99341">
        <ele>786.19</ele>
        <time>2013-06-01T14:22:45Z</time>
      </trkpt>
      <trkpt lat="45.89447" lon="2.99369">
        <ele>785.53</ele>
        <time>2013-06-01T14:22:48Z</time>
      </trkpt>
      <trkpt lat="45.89451" lon="2.99397">
        <ele>784.53</ele>
        <time>2013-06-01T14:22:51Z</time>
      </trkpt>
      <trkpt lat="45.89454" lon="2.99425">
        <ele>783.28</ele>
        <time>2013-06-01T14:22:54Z</time>
      </trkpt>
      <trkpt lat="45.89458" lon="2.99453">
        <ele>782.17</ele>
        <time>2013-06-01T14:22:57Z</time>
      </trkpt>
      <trkpt lat="45.89465" lon="2.99478">
        <ele>781.38</ele>
        <time>2013-06-01T14:23:00Z</time>
      </trkpt>
      <trkpt lat="45.89474" lon="2.99504">
        <ele>781.04</ele>
        <time>2013-06-01T14:23:03Z</time>
      </trkpt>
      <trkpt lat="45.89484" lon="2.9953">
        <ele>780.9</ele>
        <time>2013-06-01T14:23:06Z</time>
      </trkpt>
      <trkpt lat="45.89491" lon="2.99556">
        <ele>781.42</ele>
        <time>2013-06-01T14:23:09Z</time>
      </trkpt>
      <trkpt lat="45.89498" lon="2.99588">
        <ele>781.68</ele>
        <time>2013-06-01T14:23:13Z</time>
      </trkpt>
      <trkpt lat="45.89503" lon="2.9962">
        <ele>781.76</ele>
        <time>2013-06-01T14:23:17Z</time>
      </trkpt>
      <trkpt lat="45.8951" lon="2.99648">
        <ele>781.78</ele>
        <time>2013-06-01T14:23:20Z</time>
      </trkpt>
      <trkpt lat="45.89521" lon="2.99676">
        <ele>781.79</ele>
        <time>2013-06-01T14:23:23Z</time>
      </trkpt>
      <trkpt lat="45.89538" lon="2.99701">
        <ele>781.8</ele>
        <time>2013-06-01T14:23:26Z</time>
      </trkpt>
      <trkpt lat="45.89555" lon="2.99731">
        <ele>781.8</ele>
        <time>2013-06-01T14:23:29Z</time>
      </trkpt>
      <trkpt lat="45.8957" lon="2.99759">
        <ele>782.05</ele>
        <time>2013-06-01T14:23:32Z</time>
      </trkpt>
      <trkpt lat="45.89586" lon="2.99787">
        <ele>782.48</ele>
        <time>2013-06-01T14:23:35Z</time>
      </trkpt>
      <trkpt lat="45.896" lon="2.99811">
        <ele>782.67</ele>
        <time>2013-06-01T14:23:38Z</time>
      </trkpt>
      <trkpt lat="45.89607" lon="2.99839">
        <ele>782.74</ele>
        <time>2013-06-01T14:23:41Z</time>
      </trkpt>
      <trkpt lat="45.89609" lon="2.99869">
        <ele>782.78</ele>
        <time>2013-06-01T14:23:44Z</time>
      </trkpt>
      <trkpt lat="45.89606" lon="2.99903">
        <ele>782.79</ele>
        <time>2013-06-01T14:23:47Z</time>
      </trkpt>
      <trkpt lat="45.89608" lon="2.99929">
        <ele>782.79</ele>
        <time>2013-06-01T14:23:49Z</time>
      </trkpt>
      <trkpt lat="45.89614" lon="2.99955">
        <ele>782.8</ele>
        <time>2013-06-01T14:23:51Z</time>
      </trkpt>
      <trkpt lat="45.8962" lon="2.9998">
        <ele>782.8</ele>
        <time>2013-06-01T14:23:53Z</time>
      </trkpt>
      <trkpt lat="45.89632" lon="3.00002">
        <ele>782.8</ele>
        <time>2013-06-01T14:23:55Z</time>
      </trkpt>
      <trkpt lat="45.89646" lon="3.00021">
        <ele>782.36</ele>
        <time>2013-06-01T14:23:57Z</time>
      </trkpt>
      <trkpt lat="45.89668" lon="3.00043">
        <ele>782.04</ele>
        <time>2013-06-01T14:24:00Z</time>
      </trkpt>
      <trkpt lat="45.89691" lon="3.00062">
        <ele>781.9</ele>
        <time>2013-06-01T14:24:03Z</time>
      </trkpt>
      <trkpt lat="45.89706" lon="3.00077">
        <ele>781.86</ele>
        <time>2013-06-01T14:24:05Z</time>
      </trkpt>
      <trkpt lat="45.89726" lon="3.00098">
        <ele>781.39</ele>
        <time>2013-06-01T14:24:08Z</time>
      </trkpt>
      <trkpt lat="45.89748" lon="3.0012">
        <ele>780.8</ele>
        <time>2013-06-01T14:24:11Z</time>
      </trkpt>
      <trkpt lat="45.89769" lon="3.00141">
        <ele>780.22</ele>
        <time>2013-06-01T14:24:14Z</time>
      </trkpt>
      <trkpt lat="45.89784" lon="3.00165">
        <ele>779.4</ele>
        <time>2013-06-01T14:24:17Z</time>
      </trkpt>
      <trkpt lat="45.8979" lon="3.00193">
        <ele>778.74</ele>
        <time>2013-06-01T14:24:21Z</time>
      </trkpt>
      <trkpt lat="45.89772" lon="3.00214">
        <ele>777.44</ele>
        <time>2013-06-01T14:24:26Z</time>
      </trkpt>
      <trkpt lat="45.89759" lon="3.00238">
        <ele>776.42</ele>
        <time>2013-06-01T14:24:30Z</time>
      </trkpt>
      <trkpt lat="45.89749" lon="3.00264">
        <ele>775.81</ele>
        <time>2013-06-01T14:24:33Z</time>
      </trkpt>
      <trkpt lat="45.89739" lon="3.00289">
        <ele>775.23</ele>
        <time>2013-06-01T14:24:36Z</time>
      </trkpt>
      <trkpt lat="45.89731" lon="3.00313">
        <ele>774.73</ele>
        <time>2013-06-01T14:24:39Z</time>
      </trkpt>
      <trkpt lat="45.89722" lon="3.00339">
        <ele>774.09</ele>
        <time>2013-06-01T14:24:43Z</time>
      </trkpt>
      <trkpt lat="45.89712" lon="3.00362">
        <ele>773.85</ele>
        <time>2013-06-01T14:24:49Z</time>
      </trkpt>
      <trkpt lat="45.89698" lon="3.00392">
        <ele>773.38</ele>
        <time>2013-06-01T14:24:53Z</time>
      </trkpt>
      <trkpt lat="45.89687" lon="3.0042">
        <ele>773.04</ele>
        <time>2013-06-01T14:24:56Z</time>
      </trkpt>
      <trkpt lat="45.89674" lon="3.00452">
        <ele>772.9</ele>
        <time>2013-06-01T14:24:59Z</time>
      </trkpt>
      <trkpt lat="45.89663" lon="3.0048">
        <ele>772.84</ele>
        <time>2013-06-01T14:25:02Z</time>
      </trkpt>
      <trkpt lat="45.89651" lon="3.00508">
        <ele>772.82</ele>
        <time>2013-06-01T14:25:05Z</time>
      </trkpt>
      <trkpt lat="45.89642" lon="3.00534">
        <ele>772.37</ele>
        <time>2013-06-01T14:25:09Z</time>
      </trkpt>
      <trkpt lat="45.89633" lon="3.0056">
        <ele>771.93</ele>
        <time>2013-06-01T14:25:14Z</time>
      </trkpt>
      <trkpt lat="45.89622" lon="3.00586">
        <ele>771.83</ele>
        <time>2013-06-01T14:25:19Z</time>
      </trkpt>
      <trkpt lat="45.89613" lon="3.00611">
        <ele>771.81</ele>
        <time>2013-06-01T14:25:23Z</time>
      </trkpt>
      <trkpt lat="45.896" lon="3.00641">
        <ele>771.55</ele>
        <time>2013-06-01T14:25:27Z</time>
      </trkpt>
      <trkpt lat="45.89587" lon="3.00661">
        <ele>771.55</ele>
        <time>2013-06-01T14:25:30Z</time>
      </trkpt>
      <trkpt lat="45.8957" lon="3.00678">
        <ele>771.7</ele>
        <time>2013-06-01T14:25:33Z</time>
      </trkpt>
      <trkpt lat="45.8955" lon="3.00695">
        <ele>771.18</ele>
        <time>2013-06-01T14:25:36Z</time>
      </trkpt>
      <trkpt lat="45.89528" lon="3.00712">
        <ele>770.96</ele>
        <time>2013-06-01T14:25:39Z</time>
      </trkpt>
      <trkpt lat="45.89507" lon="3.00729">
        <ele>770.29</ele>
        <time>2013-06-01T14:25:42Z</time>
      </trkpt>
      <trkpt lat="45.89491" lon="3.00749">
        <ele>769.76</ele>
        <time>2013-06-01T14:25:45Z</time>
      </trkpt>
      <trkpt lat="45.89475" lon="3.00774">
        <ele>769.2</ele>
        <time>2013-06-01T14:25:48Z</time>
      </trkpt>
      <trkpt lat="45.89456" lon="3.00802">
        <ele>768.97</ele>
        <time>2013-06-01T14:25:51Z</time>
      </trkpt>
      <trkpt lat="45.89438" lon="3.00832">
        <ele>768.62</ele>
        <time>2013-06-01T14:25:54Z</time>
      </trkpt>
      <trkpt lat="45.89419" lon="3.0086">
        <ele>768.15</ele>
        <time>2013-06-01T14:25:57Z</time>
      </trkpt>
      <trkpt lat="45.89403" lon="3.00886">
        <ele>767.37</ele>
        <time>2013-06-01T14:26:00Z</time>
      </trkpt>
      <trkpt lat="45.89393" lon="3.00907">
        <ele>766.17</ele>
        <time>2013-06-01T14:26:05Z</time>
      </trkpt>
      <trkpt lat="45.8938" lon="3.00933">
        <ele>765.6</ele>
        <time>2013-06-01T14:26:12Z</time>
      </trkpt>
      <trkpt lat="45.89366" lon="3.00957">
        <ele>763</ele>
        <time>2013-06-01T14:26:16Z</time>
      </trkpt>
      <trkpt lat="45.89355" lon="3.00978">
        <ele>761.29</ele>
        <time>2013-06-01T14:26:19Z</time>
      </trkpt>
      <trkpt lat="45.89344" lon="3.01">
        <ele>759.6</ele>
        <time>2013-06-01T14:26:22Z</time>
      </trkpt>
      <trkpt lat="45.89334" lon="3.01021">
        <ele>758.56</ele>
        <time>2013-06-01T14:26:25Z</time>
      </trkpt>
      <trkpt lat="45.89323" lon="3.01043">
        <ele>757.87</ele>
        <time>2013-06-01T14:26:28Z</time>
      </trkpt>
      <trkpt lat="45.89311" lon="3.01068">
        <ele>757.14</ele>
        <time>2013-06-01T14:26:32Z</time>
      </trkpt>
      <trkpt lat="45.893" lon="3.01094">
        <ele>756.5</ele>
        <time>2013-06-01T14:26:35Z</time>
      </trkpt>
      <trkpt lat="45.89289" lon="3.0112">
        <ele>755.85</ele>
        <time>2013-06-01T14:26:38Z</time>
      </trkpt>
      <trkpt lat="45.89276" lon="3.01146">
        <ele>755.24</ele>
        <time>2013-06-01T14:26:41Z</time>
      </trkpt>
      <trkpt lat="45.89262" lon="3.01171">
        <ele>754.55</ele>
        <time>2013-06-01T14:26:44Z</time>
      </trkpt>
      <trkpt lat="45.89246" lon="3.01193">
        <ele>754.11</ele>
        <time>2013-06-01T14:26:47Z</time>
      </trkpt>
      <trkpt lat="45.89233" lon="3.01216">
        <ele>753.93</ele>
        <time>2013-06-01T14:26:50Z</time>
      </trkpt>
      <trkpt lat="45.89222" lon="3.01238">
        <ele>753.28</ele>
        <time>2013-06-01T14:26:53Z</time>
      </trkpt>
      <trkpt lat="45.89213" lon="3.01261">
        <ele>753</ele>
        <time>2013-06-01T14:26:56Z</time>
      </trkpt>
      <trkpt lat="45.89201" lon="3.01289">
        <ele>752.86</ele>
        <time>2013-06-01T14:27:00Z</time>
      </trkpt>
      <trkpt lat="45.89185" lon="3.01313">
        <ele>753.4</ele>
        <time>2013-06-01T14:27:04Z</time>
      </trkpt>
      <trkpt lat="45.89167" lon="3.01332">
        <ele>753.63</ele>
        <time>2013-06-01T14:27:07Z</time>
      </trkpt>
      <trkpt lat="45.89149" lon="3.01349">
        <ele>753.48</ele>
        <time>2013-06-01T14:27:10Z</time>
      </trkpt>
      <trkpt lat="45.89132" lon="3.01367">
        <ele>753.01</ele>
        <time>2013-06-01T14:27:14Z</time>
      </trkpt>
      <trkpt lat="45.89118" lon="3.01384">
        <ele>752.4</ele>
        <time>2013-06-01T14:27:20Z</time>
      </trkpt>
      <trkpt lat="45.89117" lon="3.01412">
        <ele>751.8</ele>
        <time>2013-06-01T14:27:56Z</time>
      </trkpt>
      <trkpt lat="45.89128" lon="3.01435">
        <ele>751.04</ele>
        <time>2013-06-01T14:28:06Z</time>
      </trkpt>
      <trkpt lat="45.89137" lon="3.01459">
        <ele>750.58</ele>
        <time>2013-06-01T14:28:13Z</time>
      </trkpt>
      <trkpt lat="45.89145" lon="3.01485">
        <ele>748.1</ele>
        <time>2013-06-01T14:28:18Z</time>
      </trkpt>
      <trkpt lat="45.89147" lon="3.0151">
        <ele>746.96</ele>
        <time>2013-06-01T14:28:22Z</time>
      </trkpt>
      <trkpt lat="45.89149" lon="3.01536">
        <ele>746.29</ele>
        <time>2013-06-01T14:28:25Z</time>
      </trkpt>
      <trkpt lat="45.8915" lon="3.01568">
        <ele>746.26</ele>
        <time>2013-06-01T14:28:28Z</time>
      </trkpt>
      <trkpt lat="45.89154" lon="3.016">
        <ele>746.57</ele>
        <time>2013-06-01T14:28:31Z</time>
      </trkpt>
      <trkpt lat="45.8916" lon="3.01633">
        <ele>746.7</ele>
        <time>2013-06-01T14:28:34Z</time>
      </trkpt>
      <trkpt lat="45.89166" lon="3.01663">
        <ele>747.09</ele>
        <time>2013-06-01T14:28:37Z</time>
      </trkpt>
      <trkpt lat="45.89174" lon="3.01693">
        <ele>746.34</ele>
        <time>2013-06-01T14:28:40Z</time>
      </trkpt>
      <trkpt lat="45.89178" lon="3.01723">
        <ele>745.59</ele>
        <time>2013-06-01T14:28:43Z</time>
      </trkpt>
      <trkpt lat="45.89182" lon="3.01749">
        <ele>745.13</ele>
        <time>2013-06-01T14:28:46Z</time>
      </trkpt>
      <trkpt lat="45.89186" lon="3.01776">
        <ele>744.9</ele>
        <time>2013-06-01T14:28:50Z</time>
      </trkpt>
      <trkpt lat="45.89181" lon="3.01806">
        <ele>745.27</ele>
        <time>2013-06-01T14:28:54Z</time>
      </trkpt>
      <trkpt lat="45.89179" lon="3.01832">
        <ele>746.01</ele>
        <time>2013-06-01T14:28:57Z</time>
      </trkpt>
      <trkpt lat="45.89177" lon="3.01867">
        <ele>745.64</ele>
        <time>2013-06-01T14:29:00Z</time>
      </trkpt>
      <trkpt lat="45.89176" lon="3.01901">
        <ele>744.9</ele>
        <time>2013-06-01T14:29:03Z</time>
      </trkpt>
      <trkpt lat="45.89185" lon="3.01931">
        <ele>743.83</ele>
        <time>2013-06-01T14:29:06Z</time>
      </trkpt>
      <trkpt lat="45.89204" lon="3.01933">
        <ele>742.55</ele>
        <time>2013-06-01T14:29:09Z</time>
      </trkpt>
      <trkpt lat="45.89224" lon="3.0192">
        <ele>740.09</ele>
        <time>2013-06-01T14:29:13Z</time>
      </trkpt>
      <trkpt lat="45.89242" lon="3.01903">
        <ele>738.09</ele>
        <time>2013-06-01T14:29:17Z</time>
      </trkpt>
      <trkpt lat="45.89257" lon="3.01888">
        <ele>737.1</ele>
        <time>2013-06-01T14:29:22Z</time>
      </trkpt>
      <trkpt lat="45.89278" lon="3.01901">
        <ele>736.28</ele>
        <time>2013-06-01T14:29:28Z</time>
      </trkpt>
      <trkpt lat="45.89293" lon="3.01918">
        <ele>735.27</ele>
        <time>2013-06-01T14:29:32Z</time>
      </trkpt>
      <trkpt lat="45.89308" lon="3.01933">
        <ele>734.91</ele>
        <time>2013-06-01T14:29:37Z</time>
      </trkpt>
      <trkpt lat="45.89325" lon="3.01942">
        <ele>734.83</ele>
        <time>2013-06-01T14:29:42Z</time>
      </trkpt>
      <trkpt lat="45.89344" lon="3.01952">
        <ele>734.81</ele>
        <time>2013-06-01T14:29:47Z</time>
      </trkpt>
      <trkpt lat="45.89364" lon="3.01967">
        <ele>735.38</ele>
        <time>2013-06-01T14:29:52Z</time>
      </trkpt>
      <trkpt lat="45.89384" lon="3.0198">
        <ele>735.7</ele>
        <time>2013-06-01T14:29:57Z</time>
      </trkpt>
      <trkpt lat="45.89401" lon="3.01989">
        <ele>735.77</ele>
        <time>2013-06-01T14:30:01Z</time>
      </trkpt>
      <trkpt lat="45.89418" lon="3.02002">
        <ele>735.54</ele>
        <time>2013-06-01T14:30:05Z</time>
      </trkpt>
      <trkpt lat="45.89438" lon="3.02012">
        <ele>735.03</ele>
        <time>2013-06-01T14:30:09Z</time>
      </trkpt>
      <trkpt lat="45.89455" lon="3.02027">
        <ele>734.46</ele>
        <time>2013-06-01T14:30:12Z</time>
      </trkpt>
      <trkpt lat="45.89473" lon="3.02047">
        <ele>733.64</ele>
        <time>2013-06-01T14:30:15Z</time>
      </trkpt>
      <trkpt lat="45.89494" lon="3.02066">
        <ele>732.72</ele>
        <time>2013-06-01T14:30:18Z</time>
      </trkpt>
      <trkpt lat="45.89514" lon="3.02088">
        <ele>731.61</ele>
        <time>2013-06-01T14:30:21Z</time>
      </trkpt>
      <trkpt lat="45.89529" lon="3.02103">
        <ele>730.82</ele>
        <time>2013-06-01T14:30:23Z</time>
      </trkpt>
      <trkpt lat="45.89544" lon="3.02118">
        <ele>730.12</ele>
        <time>2013-06-01T14:30:25Z</time>
      </trkpt>
      <trkpt lat="45.89559" lon="3.02135">
        <ele>729.54</ele>
        <time>2013-06-01T14:30:27Z</time>
      </trkpt>
      <trkpt lat="45.89574" lon="3.0215">
        <ele>729.22</ele>
        <time>2013-06-01T14:30:29Z</time>
      </trkpt>
      <trkpt lat="45.8959" lon="3.02169">
        <ele>728.78</ele>
        <time>2013-06-01T14:30:31Z</time>
      </trkpt>
      <trkpt lat="45.89605" lon="3.02186">
        <ele>728.35</ele>
        <time>2013-06-01T14:30:33Z</time>
      </trkpt>
      <trkpt lat="45.89624" lon="3.02193">
        <ele>728.03</ele>
        <time>2013-06-01T14:30:36Z</time>
      </trkpt>
      <trkpt lat="45.8964" lon="3.02173">
        <ele>727.9</ele>
        <time>2013-06-01T14:30:39Z</time>
      </trkpt>
      <trkpt lat="45.89651" lon="3.0215">
        <ele>728.41</ele>
        <time>2013-06-01T14:30:43Z</time>
      </trkpt>
      <trkpt lat="45.89656" lon="3.02176">
        <ele>727.42</ele>
        <time>2013-06-01T14:30:51Z</time>
      </trkpt>
      <trkpt lat="45.89657" lon="3.02206">
        <ele>725.01</ele>
        <time>2013-06-01T14:31:00Z</time>
      </trkpt>
      <trkpt lat="45.89646" lon="3.02229">
        <ele>722.66</ele>
        <time>2013-06-01T14:31:08Z</time>
      </trkpt>
      <trkpt lat="45.89625" lon="3.02233">
        <ele>720.9</ele>
        <time>2013-06-01T14:31:15Z</time>
      </trkpt>
      <trkpt lat="45.89607" lon="3.02229">
        <ele>717.43</ele>
        <time>2013-06-01T14:31:19Z</time>
      </trkpt>
      <trkpt lat="45.89587" lon="3.02225">
        <ele>711.88</ele>
        <time>2013-06-01T14:31:23Z</time>
      </trkpt>
      <trkpt lat="45.89569" lon="3.02236">
        <ele>708.25</ele>
        <time>2013-06-01T14:31:26Z</time>
      </trkpt>
      <trkpt lat="45.89555" lon="3.02261">
        <ele>704.16</ele>
        <time>2013-06-01T14:31:29Z</time>
      </trkpt>
      <trkpt lat="45.89543" lon="3.02289">
        <ele>699.23</ele>
        <time>2013-06-01T14:31:33Z</time>
      </trkpt>
      <trkpt lat="45.89542" lon="3.02319">
        <ele>694.48</ele>
        <time>2013-06-01T14:31:38Z</time>
      </trkpt>
      <trkpt lat="45.89544" lon="3.02349">
        <ele>691.14</ele>
        <time>2013-06-01T14:31:42Z</time>
      </trkpt>
      <trkpt lat="45.89546" lon="3.02377">
        <ele>689.35</ele>
        <time>2013-06-01T14:31:45Z</time>
      </trkpt>
      <trkpt lat="45.89549" lon="3.02405">
        <ele>687.62</ele>
        <time>2013-06-01T14:31:48Z</time>
      </trkpt>
      <trkpt lat="45.89553" lon="3.02435">
        <ele>686.13</ele>
        <time>2013-06-01T14:31:51Z</time>
      </trkpt>
      <trkpt lat="45.89554" lon="3.02465">
        <ele>684.67</ele>
        <time>2013-06-01T14:31:54Z</time>
      </trkpt>
      <trkpt lat="45.89551" lon="3.02495">
        <ele>682.9</ele>
        <time>2013-06-01T14:31:57Z</time>
      </trkpt>
      <trkpt lat="45.89543" lon="3.02525">
        <ele>680.67</ele>
        <time>2013-06-01T14:32:00Z</time>
      </trkpt>
      <trkpt lat="45.89544" lon="3.02553">
        <ele>678.32</ele>
        <time>2013-06-01T14:32:03Z</time>
      </trkpt>
      <trkpt lat="45.89545" lon="3.02581">
        <ele>676.43</ele>
        <time>2013-06-01T14:32:06Z</time>
      </trkpt>
      <trkpt lat="45.89555" lon="3.02613">
        <ele>673.8</ele>
        <time>2013-06-01T14:32:10Z</time>
      </trkpt>
      <trkpt lat="45.8957" lon="3.02639">
        <ele>671.17</ele>
        <time>2013-06-01T14:32:14Z</time>
      </trkpt>
      <trkpt lat="45.89579" lon="3.02667">
        <ele>670.63</ele>
        <time>2013-06-01T14:32:17Z</time>
      </trkpt>
      <trkpt lat="45.89587" lon="3.02695">
        <ele>670.98</ele>
        <time>2013-06-01T14:32:20Z</time>
      </trkpt>
      <trkpt lat="45.89572" lon="3.02721">
        <ele>671.17</ele>
        <time>2013-06-01T14:32:25Z</time>
      </trkpt>
      <trkpt lat="45.8955" lon="3.02733">
        <ele>669.79</ele>
        <time>2013-06-01T14:32:29Z</time>
      </trkpt>
      <trkpt lat="45.89535" lon="3.02755">
        <ele>668.62</ele>
        <time>2013-06-01T14:32:38Z</time>
      </trkpt>
      <trkpt lat="45.89521" lon="3.02772">
        <ele>667.08</ele>
        <time>2013-06-01T14:32:45Z</time>
      </trkpt>
      <trkpt lat="45.89511" lon="3.02794">
        <ele>663.23</ele>
        <time>2013-06-01T14:32:48Z</time>
      </trkpt>
      <trkpt lat="45.89501" lon="3.02819">
        <ele>657.81</ele>
        <time>2013-06-01T14:32:51Z</time>
      </trkpt>
      <trkpt lat="45.89494" lon="3.02854">
        <ele>653.07</ele>
        <time>2013-06-01T14:32:54Z</time>
      </trkpt>
      <trkpt lat="45.89486" lon="3.02888">
        <ele>649.58</ele>
        <time>2013-06-01T14:32:57Z</time>
      </trkpt>
      <trkpt lat="45.8948" lon="3.02924">
        <ele>647.4</ele>
        <time>2013-06-01T14:33:00Z</time>
      </trkpt>
      <trkpt lat="45.89471" lon="3.02961">
        <ele>645.89</ele>
        <time>2013-06-01T14:33:03Z</time>
      </trkpt>
      <trkpt lat="45.89462" lon="3.02984">
        <ele>645.67</ele>
        <time>2013-06-01T14:33:05Z</time>
      </trkpt>
      <trkpt lat="45.89444" lon="3.03012">
        <ele>645.74</ele>
        <time>2013-06-01T14:33:08Z</time>
      </trkpt>
      <trkpt lat="45.89432" lon="3.03034">
        <ele>645.33</ele>
        <time>2013-06-01T14:33:10Z</time>
      </trkpt>
      <trkpt lat="45.89422" lon="3.03055">
        <ele>645.54</ele>
        <time>2013-06-01T14:33:12Z</time>
      </trkpt>
      <trkpt lat="45.89414" lon="3.03081">
        <ele>645.65</ele>
        <time>2013-06-01T14:33:14Z</time>
      </trkpt>
      <trkpt lat="45.89408" lon="3.03107">
        <ele>645.72</ele>
        <time>2013-06-01T14:33:16Z</time>
      </trkpt>
      <trkpt lat="45.89398" lon="3.03139">
        <ele>645.76</ele>
        <time>2013-06-01T14:33:19Z</time>
      </trkpt>
      <trkpt lat="45.89391" lon="3.03167">
        <ele>645.78</ele>
        <time>2013-06-01T14:33:22Z</time>
      </trkpt>
      <trkpt lat="45.89388" lon="3.03193">
        <ele>645.54</ele>
        <time>2013-06-01T14:33:25Z</time>
      </trkpt>
      <trkpt lat="45.89391" lon="3.03223">
        <ele>644.35</ele>
        <time>2013-06-01T14:33:29Z</time>
      </trkpt>
      <trkpt lat="45.89394" lon="3.03253">
        <ele>644.99</ele>
        <time>2013-06-01T14:33:33Z</time>
      </trkpt>
      <trkpt lat="45.89394" lon="3.03285">
        <ele>646.66</ele>
        <time>2013-06-01T14:33:37Z</time>
      </trkpt>
      <trkpt lat="45.89393" lon="3.03317">
        <ele>647.88</ele>
        <time>2013-06-01T14:33:41Z</time>
      </trkpt>
      <trkpt lat="45.89391" lon="3.03347">
        <ele>648.26</ele>
        <time>2013-06-01T14:33:45Z</time>
      </trkpt>
      <trkpt lat="45.89384" lon="3.03377">
        <ele>647.94</ele>
        <time>2013-06-01T14:33:49Z</time>
      </trkpt>
      <trkpt lat="45.8937" lon="3.03396">
        <ele>647.55</ele>
        <time>2013-06-01T14:33:59Z</time>
      </trkpt>
      <trkpt lat="45.89353" lon="3.03416">
        <ele>647.77</ele>
        <time>2013-06-01T14:34:07Z</time>
      </trkpt>
      <trkpt lat="45.8933" lon="3.0342">
        <ele>648.62</ele>
        <time>2013-06-01T14:34:17Z</time>
      </trkpt>
      <trkpt lat="45.89311" lon="3.03431">
        <ele>650.02</ele>
        <time>2013-06-01T14:34:22Z</time>
      </trkpt>
      <trkpt lat="45.89291" lon="3.03422">
        <ele>651.05</ele>
        <time>2013-06-01T14:34:46Z</time>
      </trkpt>
      <trkpt lat="45.89278" lon="3.03446">
        <ele>651.72</ele>
        <time>2013-06-01T14:34:54Z</time>
      </trkpt>
      <trkpt lat="45.89279" lon="3.03478">
        <ele>651.79</ele>
        <time>2013-06-01T14:35:02Z</time>
      </trkpt>
      <trkpt lat="45.89282" lon="3.03504">
        <ele>651.55</ele>
        <time>2013-06-01T14:35:08Z</time>
      </trkpt>
      <trkpt lat="45.89288" lon="3.03534">
        <ele>649.47</ele>
        <time>2013-06-01T14:35:18Z</time>
      </trkpt>
      <trkpt lat="45.89297" lon="3.0356">
        <ele>645.73</ele>
        <time>2013-06-01T14:35:29Z</time>
      </trkpt>
      <trkpt lat="45.89299" lon="3.0359">
        <ele>641.97</ele>
        <time>2013-06-01T14:35:37Z</time>
      </trkpt>
      <trkpt lat="45.89299" lon="3.03617">
        <ele>638.47</ele>
        <time>2013-06-01T14:35:44Z</time>
      </trkpt>
      <trkpt lat="45.89305" lon="3.03654">
        <ele>636.2</ele>
        <time>2013-06-01T14:35:52Z</time>
      </trkpt>
      <trkpt lat="45.8931" lon="3.0368">
        <ele>635.17</ele>
        <time>2013-06-01T14:35:59Z</time>
      </trkpt>
      <trkpt lat="45.89308" lon="3.03718">
        <ele>634.83</ele>
        <time>2013-06-01T14:36:08Z</time>
      </trkpt>
      <trkpt lat="45.89296" lon="3.0374">
        <ele>637.57</ele>
        <time>2013-06-01T14:38:05Z</time>
      </trkpt>
      <trkpt lat="45.8929" lon="3.03766">
        <ele>638.38</ele>
        <time>2013-06-01T14:38:29Z</time>
      </trkpt>
      <trkpt lat="45.89271" lon="3.03763">
        <ele>638.55</ele>
        <time>2013-06-01T14:40:28Z</time>
      </trkpt>
      <trkpt lat="45.89254" lon="3.03755">
        <ele>637.9</ele>
        <time>2013-06-01T14:40:35Z</time>
      </trkpt>
      <trkpt lat="45.89238" lon="3.03742">
        <ele>637.37</ele>
        <time>2013-06-01T14:40:43Z</time>
      </trkpt>
      <trkpt lat="45.89221" lon="3.03731">
        <ele>635.84</ele>
        <time>2013-06-01T14:40:51Z</time>
      </trkpt>
      <trkpt lat="45.89203" lon="3.0372">
        <ele>632.71</ele>
        <time>2013-06-01T14:40:57Z</time>
      </trkpt>
      <trkpt lat="45.89185" lon="3.03725">
        <ele>628.73</ele>
        <time>2013-06-01T14:41:03Z</time>
      </trkpt>
      <trkpt lat="45.89174" lon="3.03746">
        <ele>623.56</ele>
        <time>2013-06-01T14:41:12Z</time>
      </trkpt>
      <trkpt lat="45.89179" lon="3.03772">
        <ele>619.39</ele>
        <time>2013-06-01T14:41:19Z</time>
      </trkpt>
      <trkpt lat="45.89186" lon="3.03798">
        <ele>615.67</ele>
        <time>2013-06-01T14:41:25Z</time>
      </trkpt>
      <trkpt lat="45.89187" lon="3.03826">
        <ele>612.54</ele>
        <time>2013-06-01T14:41:31Z</time>
      </trkpt>
      <trkpt lat="45.8919" lon="3.03854">
        <ele>608.57</ele>
        <time>2013-06-01T14:41:38Z</time>
      </trkpt>
      <trkpt lat="45.89192" lon="3.03884">
        <ele>605.52</ele>
        <time>2013-06-01T14:41:44Z</time>
      </trkpt>
      <trkpt lat="45.89175" lon="3.03905">
        <ele>601.98</ele>
        <time>2013-06-01T14:41:50Z</time>
      </trkpt>
      <trkpt lat="45.89156" lon="3.03914">
        <ele>592.73</ele>
        <time>2013-06-01T14:41:54Z</time>
      </trkpt>
      <trkpt lat="45.89137" lon="3.03924">
        <ele>583.85</ele>
        <time>2013-06-01T14:41:58Z</time>
      </trkpt>
      <trkpt lat="45.89118" lon="3.03933">
        <ele>580</ele>
        <time>2013-06-01T14:42:03Z</time>
      </trkpt>
      <trkpt lat="45.89092" lon="3.03937">
        <ele>578.05</ele>
        <time>2013-06-01T14:42:11Z</time>
      </trkpt>
      <trkpt lat="45.89073" lon="3.03952">
        <ele>578.61</ele>
        <time>2013-06-01T14:42:17Z</time>
      </trkpt>
      <trkpt lat="45.89057" lon="3.03965">
        <ele>580.3</ele>
        <time>2013-06-01T14:42:51Z</time>
      </trkpt>
      <trkpt lat="45.89043" lon="3.03982">
        <ele>584.69</ele>
        <time>2013-06-01T14:44:45Z</time>
      </trkpt>
      <trkpt lat="45.89026" lon="3.03991">
        <ele>590.79</ele>
        <time>2013-06-01T14:45:24Z</time>
      </trkpt>
      <trkpt lat="45.89018" lon="3.04017">
        <ele>598.8</ele>
        <time>2013-06-01T14:52:42Z</time>
      </trkpt>
      <trkpt lat="45.8901" lon="3.04042">
        <ele>598.04</ele>
        <time>2013-06-01T14:52:47Z</time>
      </trkpt>
      <trkpt lat="45.89013" lon="3.04068">
        <ele>596.72</ele>
        <time>2013-06-01T14:52:53Z</time>
      </trkpt>
      <trkpt lat="45.88997" lon="3.04087">
        <ele>590.04</ele>
        <time>2013-06-01T14:53:00Z</time>
      </trkpt>
      <trkpt lat="45.88979" lon="3.04085">
        <ele>583.46</ele>
        <time>2013-06-01T14:53:03Z</time>
      </trkpt>
      <trkpt lat="45.8896" lon="3.04072">
        <ele>574.72</ele>
        <time>2013-06-01T14:53:08Z</time>
      </trkpt>
      <trkpt lat="45.88954" lon="3.041">
        <ele>569.97</ele>
        <time>2013-06-01T14:53:24Z</time>
      </trkpt>
      <trkpt lat="45.88966" lon="3.04122">
        <ele>568.74</ele>
        <time>2013-06-01T14:53:32Z</time>
      </trkpt>
      <trkpt lat="45.88977" lon="3.04147">
        <ele>566.15</ele>
        <time>2013-06-01T14:53:42Z</time>
      </trkpt>
      <trkpt lat="45.88984" lon="3.04175">
        <ele>562.35</ele>
        <time>2013-06-01T14:53:46Z</time>
      </trkpt>
      <trkpt lat="45.88991" lon="3.04205">
        <ele>559.82</ele>
        <time>2013-06-01T14:53:52Z</time>
      </trkpt>
      <trkpt lat="45.88999" lon="3.04231">
        <ele>558.6</ele>
        <time>2013-06-01T14:53:57Z</time>
      </trkpt>
      <trkpt lat="45.89012" lon="3.04259">
        <ele>554.4</ele>
        <time>2013-06-01T14:54:01Z</time>
      </trkpt>
      <trkpt lat="45.89018" lon="3.04285">
        <ele>551.4</ele>
        <time>2013-06-01T14:54:06Z</time>
      </trkpt>
      <trkpt lat="45.89025" lon="3.04311">
        <ele>549.87</ele>
        <time>2013-06-01T14:54:10Z</time>
      </trkpt>
      <trkpt lat="45.89036" lon="3.04336">
        <ele>549.05</ele>
        <time>2013-06-01T14:54:15Z</time>
      </trkpt>
      <trkpt lat="45.89048" lon="3.0436">
        <ele>547.85</ele>
        <time>2013-06-01T14:54:20Z</time>
      </trkpt>
      <trkpt lat="45.89063" lon="3.04381">
        <ele>541.55</ele>
        <time>2013-06-01T14:54:25Z</time>
      </trkpt>
      <trkpt lat="45.89077" lon="3.04401">
        <ele>537.24</ele>
        <time>2013-06-01T14:54:30Z</time>
      </trkpt>
      <trkpt lat="45.89093" lon="3.04414">
        <ele>534.87</ele>
        <time>2013-06-01T14:54:36Z</time>
      </trkpt>
      <trkpt lat="45.89114" lon="3.04422">
        <ele>529.24</ele>
        <time>2013-06-01T14:54:41Z</time>
      </trkpt>
      <trkpt lat="45.89131" lon="3.04431">
        <ele>525.85</ele>
        <time>2013-06-01T14:54:46Z</time>
      </trkpt>
      <trkpt lat="45.8915" lon="3.04437">
        <ele>523.46</ele>
        <time>2013-06-01T14:54:51Z</time>
      </trkpt>
      <trkpt lat="45.89173" lon="3.04444">
        <ele>521.96</ele>
        <time>2013-06-01T14:54:59Z</time>
      </trkpt>
      <trkpt lat="45.89158" lon="3.04463">
        <ele>523.28</ele>
        <time>2013-06-01T14:55:16Z</time>
      </trkpt>
      <trkpt lat="45.89141" lon="3.04471">
        <ele>522.37</ele>
        <time>2013-06-01T14:55:20Z</time>
      </trkpt>
      <trkpt lat="45.89122" lon="3.04478">
        <ele>519.6</ele>
        <time>2013-06-01T14:55:24Z</time>
      </trkpt>
      <trkpt lat="45.89102" lon="3.04474">
        <ele>515.86</ele>
        <time>2013-06-01T14:55:30Z</time>
      </trkpt>
      <trkpt lat="45.89079" lon="3.04467">
        <ele>505.06</ele>
        <time>2013-06-01T14:55:35Z</time>
      </trkpt>
      <trkpt lat="45.89063" lon="3.04454">
        <ele>497.5</ele>
        <time>2013-06-01T14:55:38Z</time>
      </trkpt>
      <trkpt lat="45.89047" lon="3.04439">
        <ele>487.58</ele>
        <time>2013-06-01T14:55:42Z</time>
      </trkpt>
      <trkpt lat="45.89028" lon="3.04422">
        <ele>479.73</ele>
        <time>2013-06-01T14:55:46Z</time>
      </trkpt>
      <trkpt lat="45.89009" lon="3.04403">
        <ele>471.78</ele>
        <time>2013-06-01T14:55:50Z</time>
      </trkpt>
      <trkpt lat="45.88994" lon="3.04384">
        <ele>465.2</ele>
        <time>2013-06-01T14:55:54Z</time>
      </trkpt>
      <trkpt lat="45.88979" lon="3.04362">
        <ele>458.37</ele>
        <time>2013-06-01T14:55:58Z</time>
      </trkpt>
      <trkpt lat="45.88962" lon="3.04341">
        <ele>448.39</ele>
        <time>2013-06-01T14:56:02Z</time>
      </trkpt>
      <trkpt lat="45.88943" lon="3.04313">
        <ele>443.79</ele>
        <time>2013-06-01T14:56:08Z</time>
      </trkpt>
      <trkpt lat="45.88951" lon="3.04338">
        <ele>471.61</ele>
        <time>2013-06-01T14:56:32Z</time>
      </trkpt>
      <trkpt lat="45.88948" lon="3.04364">
        <ele>479.64</ele>
        <time>2013-06-01T14:56:36Z</time>
      </trkpt>
      <trkpt lat="45.88956" lon="3.04388">
        <ele>487.17</ele>
        <time>2013-06-01T14:56:40Z</time>
      </trkpt>
      <trkpt lat="45.8897" lon="3.04409">
        <ele>491.09</ele>
        <time>2013-06-01T14:56:48Z</time>
      </trkpt>
      <trkpt lat="45.88983" lon="3.04429">
        <ele>490.23</ele>
        <time>2013-06-01T14:56:51Z</time>
      </trkpt>
      <trkpt lat="45.88987" lon="3.04456">
        <ele>489.55</ele>
        <time>2013-06-01T14:57:57Z</time>
      </trkpt>
      <trkpt lat="45.88975" lon="3.04478">
        <ele>495.83</ele>
        <time>2013-06-01T14:58:02Z</time>
      </trkpt>
      <trkpt lat="45.88957" lon="3.04471">
        <ele>498.09</ele>
        <time>2013-06-01T14:58:07Z</time>
      </trkpt>
      <trkpt lat="45.88937" lon="3.04454">
        <ele>498.14</ele>
        <time>2013-06-01T14:58:11Z</time>
      </trkpt>
      <trkpt lat="45.88921" lon="3.04439">
        <ele>496.39</ele>
        <time>2013-06-01T14:58:15Z</time>
      </trkpt>
      <trkpt lat="45.88906" lon="3.04422">
        <ele>493.81</ele>
        <time>2013-06-01T14:58:20Z</time>
      </trkpt>
      <trkpt lat="45.88885" lon="3.04418">
        <ele>489.39</ele>
        <time>2013-06-01T14:58:26Z</time>
      </trkpt>
      <trkpt lat="45.88871" lon="3.04396">
        <ele>481.94</ele>
        <time>2013-06-01T14:58:37Z</time>
      </trkpt>
      <trkpt lat="45.88851" lon="3.04384">
        <ele>469.25</ele>
        <time>2013-06-01T14:58:52Z</time>
      </trkpt>
      <trkpt lat="45.88836" lon="3.04364">
        <ele>463.97</ele>
        <time>2013-06-01T14:58:58Z</time>
      </trkpt>
      <trkpt lat="45.8882" lon="3.04351">
        <ele>458.54</ele>
        <time>2013-06-01T14:59:09Z</time>
      </trkpt>
      <trkpt lat="45.88811" lon="3.04326">
        <ele>453.49</ele>
        <time>2013-06-01T15:00:00Z</time>
      </trkpt>
      <trkpt lat="45.88802" lon="3.04298">
        <ele>451.77</ele>
        <time>2013-06-01T15:00:07Z</time>
      </trkpt>
      <trkpt lat="45.88784" lon="3.04278">
        <ele>450.65</ele>
        <time>2013-06-01T15:00:15Z</time>
      </trkpt>
      <trkpt lat="45.88771" lon="3.04259">
        <ele>449.58</ele>
        <time>2013-06-01T15:00:27Z</time>
      </trkpt>
      <trkpt lat="45.88765" lon="3.04229">
        <ele>448.83</ele>
        <time>2013-06-01T15:00:38Z</time>
      </trkpt>
      <trkpt lat="45.88759" lon="3.04201">
        <ele>449.62</ele>
        <time>2013-06-01T15:00:48Z</time>
      </trkpt>
      <trkpt lat="45.88747" lon="3.04175">
        <ele>450.86</ele>
        <time>2013-06-01T15:00:59Z</time>
      </trkpt>
      <trkpt lat="45.88746" lon="3.04147">
        <ele>453.96</ele>
        <time>2013-06-01T15:01:24Z</time>
      </trkpt>
      <trkpt lat="45.88746" lon="3.04117">
        <ele>455.04</ele>
        <time>2013-06-01T15:01:29Z</time>
      </trkpt>
      <trkpt lat="45.88746" lon="3.0409">
        <ele>456.62</ele>
        <time>2013-06-01T15:01:37Z</time>
      </trkpt>
      <trkpt lat="45.88733" lon="3.0407">
        <ele>465.17</ele>
        <time>2013-06-01T15:02:21Z</time>
      </trkpt>
      <trkpt lat="45.88737" lon="3.04044">
        <ele>477.11</ele>
        <time>2013-06-01T15:02:47Z</time>
      </trkpt>
      <trkpt lat="45.88745" lon="3.04021">
        <ele>483.03</ele>
        <time>2013-06-01T15:02:57Z</time>
      </trkpt>
      <trkpt lat="45.88753" lon="3.03997">
        <ele>488.74</ele>
        <time>2013-06-01T15:03:10Z</time>
      </trkpt>
      <trkpt lat="45.88767" lon="3.03978">
        <ele>491.35</ele>
        <time>2013-06-01T15:03:20Z</time>
      </trkpt>
      <trkpt lat="45.8878" lon="3.03959">
        <ele>492.42</ele>
        <time>2013-06-01T15:03:27Z</time>
      </trkpt>
      <trkpt lat="45.88788" lon="3.03935">
        <ele>494.39</ele>
        <time>2013-06-01T15:03:37Z</time>
      </trkpt>
      <trkpt lat="45.88791" lon="3.03909">
        <ele>497.25</ele>
        <time>2013-06-01T15:03:51Z</time>
      </trkpt>
      <trkpt lat="45.88771" lon="3.03905">
        <ele>501.11</ele>
        <time>2013-06-01T15:04:12Z</time>
      </trkpt>
      <trkpt lat="45.88756" lon="3.0389">
        <ele>503.51</ele>
        <time>2013-06-01T15:04:27Z</time>
      </trkpt>
      <trkpt lat="45.88746" lon="3.03866">
        <ele>503.87</ele>
        <time>2013-06-01T15:04:41Z</time>
      </trkpt>
      <trkpt lat="45.88736" lon="3.03843">
        <ele>503.8</ele>
        <time>2013-06-01T15:04:55Z</time>
      </trkpt>
      <trkpt lat="45.88723" lon="3.03821">
        <ele>504.48</ele>
        <time>2013-06-01T15:05:05Z</time>
      </trkpt>
      <trkpt lat="45.88709" lon="3.03802">
        <ele>505.86</ele>
        <time>2013-06-01T15:05:17Z</time>
      </trkpt>
      <trkpt lat="45.88695" lon="3.03785">
        <ele>508.92</ele>
        <time>2013-06-01T15:05:30Z</time>
      </trkpt>
      <trkpt lat="45.88683" lon="3.03763">
        <ele>513.67</ele>
        <time>2013-06-01T15:05:40Z</time>
      </trkpt>
      <trkpt lat="45.88671" lon="3.03742">
        <ele>517.52</ele>
        <time>2013-06-01T15:05:51Z</time>
      </trkpt>
      <trkpt lat="45.88658" lon="3.0372">
        <ele>518.73</ele>
        <time>2013-06-01T15:06:01Z</time>
      </trkpt>
      <trkpt lat="45.88644" lon="3.03703">
        <ele>519.04</ele>
        <time>2013-06-01T15:06:11Z</time>
      </trkpt>
      <trkpt lat="45.88629" lon="3.03686">
        <ele>520.7</ele>
        <time>2013-06-01T15:06:23Z</time>
      </trkpt>
      <trkpt lat="45.88616" lon="3.03665">
        <ele>520.79</ele>
        <time>2013-06-01T15:06:34Z</time>
      </trkpt>
      <trkpt lat="45.88606" lon="3.03641">
        <ele>520.8</ele>
        <time>2013-06-01T15:06:41Z</time>
      </trkpt>
      <trkpt lat="45.88593" lon="3.0362">
        <ele>520.22</ele>
        <time>2013-06-01T15:06:52Z</time>
      </trkpt>
      <trkpt lat="45.88582" lon="3.03598">
        <ele>519.24</ele>
        <time>2013-06-01T15:07:03Z</time>
      </trkpt>
      <trkpt lat="45.88574" lon="3.03572">
        <ele>516.55</ele>
        <time>2013-06-01T15:07:14Z</time>
      </trkpt>
      <trkpt lat="45.88565" lon="3.03549">
        <ele>519.23</ele>
        <time>2013-06-01T15:07:22Z</time>
      </trkpt>
      <trkpt lat="45.88559" lon="3.03523">
        <ele>523.19</ele>
        <time>2013-06-01T15:07:32Z</time>
      </trkpt>
      <trkpt lat="45.88555" lon="3.03497">
        <ele>526.6</ele>
        <time>2013-06-01T15:07:47Z</time>
      </trkpt>
      <trkpt lat="45.88554" lon="3.03469">
        <ele>524.2</ele>
        <time>2013-06-01T15:07:59Z</time>
      </trkpt>
      <trkpt lat="45.88553" lon="3.03442">
        <ele>519.63</ele>
        <time>2013-06-01T15:08:09Z</time>
      </trkpt>
      <trkpt lat="45.88549" lon="3.03416">
        <ele>519.26</ele>
        <time>2013-06-01T15:08:21Z</time>
      </trkpt>
      <trkpt lat="45.88542" lon="3.03392">
        <ele>521.76</ele>
        <time>2013-06-01T15:08:32Z</time>
      </trkpt>
      <trkpt lat="45.88534" lon="3.03369">
        <ele>526.49</ele>
        <time>2013-06-01T15:08:41Z</time>
      </trkpt>
      <trkpt lat="45.88526" lon="3.03345">
        <ele>530.61</ele>
        <time>2013-06-01T15:08:50Z</time>
      </trkpt>
      <trkpt lat="45.88517" lon="3.03321">
        <ele>535.26</ele>
        <time>2013-06-01T15:09:01Z</time>
      </trkpt>
      <trkpt lat="45.88516" lon="3.03293">
        <ele>537.4</ele>
        <time>2013-06-01T15:09:11Z</time>
      </trkpt>
      <trkpt lat="45.88504" lon="3.03272">
        <ele>541.62</ele>
        <time>2013-06-01T15:09:23Z</time>
      </trkpt>
      <trkpt lat="45.88489" lon="3.03291">
        <ele>543.93</ele>
        <time>2013-06-01T15:09:29Z</time>
      </trkpt>
      <trkpt lat="45.88485" lon="3.03317">
        <ele>546.02</ele>
        <time>2013-06-01T15:09:37Z</time>
      </trkpt>
      <trkpt lat="45.88485" lon="3.03345">
        <ele>547.38</ele>
        <time>2013-06-01T15:09:44Z</time>
      </trkpt>
      <trkpt lat="45.88486" lon="3.03373">
        <ele>547.74</ele>
        <time>2013-06-01T15:09:51Z</time>
      </trkpt>
      <trkpt lat="45.88491" lon="3.03399">
        <ele>547.22</ele>
        <time>2013-06-01T15:10:00Z</time>
      </trkpt>
      <trkpt lat="45.88493" lon="3.03424">
        <ele>546.43</ele>
        <time>2013-06-01T15:10:11Z</time>
      </trkpt>
      <trkpt lat="45.8849" lon="3.0345">
        <ele>548.16</ele>
        <time>2013-06-01T15:10:19Z</time>
      </trkpt>
      <trkpt lat="45.88483" lon="3.03476">
        <ele>550.2</ele>
        <time>2013-06-01T15:10:28Z</time>
      </trkpt>
      <trkpt lat="45.88477" lon="3.03502">
        <ele>552.45</ele>
        <time>2013-06-01T15:10:38Z</time>
      </trkpt>
      <trkpt lat="45.88469" lon="3.03525">
        <ele>553.7</ele>
        <time>2013-06-01T15:10:47Z</time>
      </trkpt>
      <trkpt lat="45.88456" lon="3.03547">
        <ele>553.8</ele>
        <time>2013-06-01T15:11:04Z</time>
      </trkpt>
      <trkpt lat="45.88445" lon="3.0357">
        <ele>554.56</ele>
        <time>2013-06-01T15:11:12Z</time>
      </trkpt>
      <trkpt lat="45.88443" lon="3.03598">
        <ele>556.07</ele>
        <time>2013-06-01T15:11:19Z</time>
      </trkpt>
      <trkpt lat="45.88445" lon="3.03626">
        <ele>557.6</ele>
        <time>2013-06-01T15:11:25Z</time>
      </trkpt>
      <trkpt lat="45.88453" lon="3.03652">
        <ele>559.71</ele>
        <time>2013-06-01T15:11:31Z</time>
      </trkpt>
      <trkpt lat="45.88462" lon="3.03675">
        <ele>561.8</ele>
        <time>2013-06-01T15:11:37Z</time>
      </trkpt>
      <trkpt lat="45.88475" lon="3.03697">
        <ele>564.07</ele>
        <time>2013-06-01T15:11:44Z</time>
      </trkpt>
      <trkpt lat="45.88488" lon="3.03718">
        <ele>565.96</ele>
        <time>2013-06-01T15:11:51Z</time>
      </trkpt>
      <trkpt lat="45.88502" lon="3.03738">
        <ele>567.85</ele>
        <time>2013-06-01T15:11:57Z</time>
      </trkpt>
      <trkpt lat="45.88495" lon="3.03763">
        <ele>571.7</ele>
        <time>2013-06-01T15:12:35Z</time>
      </trkpt>
      <trkpt lat="45.88476" lon="3.03757">
        <ele>581.8</ele>
        <time>2013-06-01T15:18:35Z</time>
      </trkpt>
      <trkpt lat="45.88464" lon="3.03738">
        <ele>582.79</ele>
        <time>2013-06-01T15:19:02Z</time>
      </trkpt>
      <trkpt lat="45.88447" lon="3.0372">
        <ele>583.38</ele>
        <time>2013-06-01T15:19:10Z</time>
      </trkpt>
      <trkpt lat="45.88431" lon="3.03701">
        <ele>584.32</ele>
        <time>2013-06-01T15:19:17Z</time>
      </trkpt>
      <trkpt lat="45.88415" lon="3.0368">
        <ele>584.46</ele>
        <time>2013-06-01T15:19:23Z</time>
      </trkpt>
      <trkpt lat="45.88402" lon="3.0366">
        <ele>584.01</ele>
        <time>2013-06-01T15:19:27Z</time>
      </trkpt>
      <trkpt lat="45.88388" lon="3.03639">
        <ele>583.85</ele>
        <time>2013-06-01T15:19:32Z</time>
      </trkpt>
      <trkpt lat="45.88376" lon="3.03617">
        <ele>583.81</ele>
        <time>2013-06-01T15:19:38Z</time>
      </trkpt>
      <trkpt lat="45.88372" lon="3.0359">
        <ele>583.8</ele>
        <time>2013-06-01T15:19:45Z</time>
      </trkpt>
      <trkpt lat="45.88379" lon="3.03564">
        <ele>583.8</ele>
        <time>2013-06-01T15:19:51Z</time>
      </trkpt>
      <trkpt lat="45.88391" lon="3.03542">
        <ele>584.24</ele>
        <time>2013-06-01T15:19:59Z</time>
      </trkpt>
      <trkpt lat="45.88402" lon="3.03521">
        <ele>585.78</ele>
        <time>2013-06-01T15:20:09Z</time>
      </trkpt>
      <trkpt lat="45.88405" lon="3.03495">
        <ele>587.49</ele>
        <time>2013-06-01T15:20:18Z</time>
      </trkpt>
      <trkpt lat="45.884" lon="3.03469">
        <ele>589.44</ele>
        <time>2013-06-01T15:20:28Z</time>
      </trkpt>
      <trkpt lat="45.88394" lon="3.03444">
        <ele>591.2</ele>
        <time>2013-06-01T15:20:35Z</time>
      </trkpt>
      <trkpt lat="45.88384" lon="3.0342">
        <ele>592.63</ele>
        <time>2013-06-01T15:20:45Z</time>
      </trkpt>
      <trkpt lat="45.88373" lon="3.03399">
        <ele>591.97</ele>
        <time>2013-06-01T15:20:56Z</time>
      </trkpt>
      <trkpt lat="45.88362" lon="3.03377">
        <ele>591.81</ele>
        <time>2013-06-01T15:21:06Z</time>
      </trkpt>
      <trkpt lat="45.8835" lon="3.03356">
        <ele>593.3</ele>
        <time>2013-06-01T15:21:15Z</time>
      </trkpt>
      <trkpt lat="45.88337" lon="3.03332">
        <ele>595.25</ele>
        <time>2013-06-01T15:21:25Z</time>
      </trkpt>
      <trkpt lat="45.88326" lon="3.03306">
        <ele>597.86</ele>
        <time>2013-06-01T15:21:34Z</time>
      </trkpt>
      <trkpt lat="45.88315" lon="3.03285">
        <ele>600.69</ele>
        <time>2013-06-01T15:21:42Z</time>
      </trkpt>
      <trkpt lat="45.88304" lon="3.03263">
        <ele>604.63</ele>
        <time>2013-06-01T15:21:51Z</time>
      </trkpt>
      <trkpt lat="45.88292" lon="3.0324">
        <ele>609.48</ele>
        <time>2013-06-01T15:22:00Z</time>
      </trkpt>
      <trkpt lat="45.8828" lon="3.03218">
        <ele>613.22</ele>
        <time>2013-06-01T15:22:08Z</time>
      </trkpt>
      <trkpt lat="45.88267" lon="3.03197">
        <ele>618.33</ele>
        <time>2013-06-01T15:22:19Z</time>
      </trkpt>
      <trkpt lat="45.88253" lon="3.0318">
        <ele>622.49</ele>
        <time>2013-06-01T15:22:33Z</time>
      </trkpt>
      <trkpt lat="45.88238" lon="3.03165">
        <ele>624.47</ele>
        <time>2013-06-01T15:22:49Z</time>
      </trkpt>
      <trkpt lat="45.8822" lon="3.03171">
        <ele>628.95</ele>
        <time>2013-06-01T15:23:12Z</time>
      </trkpt>
      <trkpt lat="45.88218" lon="3.03197">
        <ele>633.29</ele>
        <time>2013-06-01T15:23:28Z</time>
      </trkpt>
      <trkpt lat="45.88223" lon="3.03223">
        <ele>636.85</ele>
        <time>2013-06-01T15:23:40Z</time>
      </trkpt>
      <trkpt lat="45.88226" lon="3.03248">
        <ele>640.12</ele>
        <time>2013-06-01T15:23:50Z</time>
      </trkpt>
      <trkpt lat="45.88225" lon="3.03274">
        <ele>643.26</ele>
        <time>2013-06-01T15:24:03Z</time>
      </trkpt>
      <trkpt lat="45.88226" lon="3.033">
        <ele>645.73</ele>
        <time>2013-06-01T15:24:11Z</time>
      </trkpt>
      <trkpt lat="45.8823" lon="3.03326">
        <ele>649.82</ele>
        <time>2013-06-01T15:24:23Z</time>
      </trkpt>
      <trkpt lat="45.88235" lon="3.03351">
        <ele>653.87</ele>
        <time>2013-06-01T15:24:36Z</time>
      </trkpt>
      <trkpt lat="45.88232" lon="3.03377">
        <ele>658.33</ele>
        <time>2013-06-01T15:24:52Z</time>
      </trkpt>
      <trkpt lat="45.88221" lon="3.03399">
        <ele>666.8</ele>
        <time>2013-06-01T15:26:54Z</time>
      </trkpt>
      <trkpt lat="45.88205" lon="3.03411">
        <ele>668.56</ele>
        <time>2013-06-01T15:27:06Z</time>
      </trkpt>
      <trkpt lat="45.88189" lon="3.03427">
        <ele>669.51</ele>
        <time>2013-06-01T15:27:11Z</time>
      </trkpt>
      <trkpt lat="45.88169" lon="3.03435">
        <ele>669.5</ele>
        <time>2013-06-01T15:27:17Z</time>
      </trkpt>
      <trkpt lat="45.88147" lon="3.03439">
        <ele>668.1</ele>
        <time>2013-06-01T15:27:23Z</time>
      </trkpt>
      <trkpt lat="45.88129" lon="3.03439">
        <ele>665.99</ele>
        <time>2013-06-01T15:27:28Z</time>
      </trkpt>
      <trkpt lat="45.88108" lon="3.03442">
        <ele>662.6</ele>
        <time>2013-06-01T15:27:34Z</time>
      </trkpt>
      <trkpt lat="45.88089" lon="3.03442">
        <ele>659.53</ele>
        <time>2013-06-01T15:27:40Z</time>
      </trkpt>
      <trkpt lat="45.88071" lon="3.03446">
        <ele>656.04</ele>
        <time>2013-06-01T15:27:47Z</time>
      </trkpt>
      <trkpt lat="45.88052" lon="3.03448">
        <ele>652.98</ele>
        <time>2013-06-01T15:27:54Z</time>
      </trkpt>
      <trkpt lat="45.88033" lon="3.03454">
        <ele>649.5</ele>
        <time>2013-06-01T15:28:01Z</time>
      </trkpt>
      <trkpt lat="45.88014" lon="3.03459">
        <ele>645.98</ele>
        <time>2013-06-01T15:28:09Z</time>
      </trkpt>
      <trkpt lat="45.87995" lon="3.03461">
        <ele>644.96</ele>
        <time>2013-06-01T15:28:16Z</time>
      </trkpt>
      <trkpt lat="45.87974" lon="3.03461">
        <ele>645.27</ele>
        <time>2013-06-01T15:28:21Z</time>
      </trkpt>
      <trkpt lat="45.87956" lon="3.03463">
        <ele>646.8</ele>
        <time>2013-06-01T15:28:26Z</time>
      </trkpt>
      <trkpt lat="45.87939" lon="3.03472">
        <ele>650.23</ele>
        <time>2013-06-01T15:28:37Z</time>
      </trkpt>
      <trkpt lat="45.87922" lon="3.03484">
        <ele>652.44</ele>
        <time>2013-06-01T15:28:50Z</time>
      </trkpt>
      <trkpt lat="45.87909" lon="3.03504">
        <ele>653.62</ele>
        <time>2013-06-01T15:29:07Z</time>
      </trkpt>
      <trkpt lat="45.87883" lon="3.03519">
        <ele>661.02</ele>
        <time>2013-06-01T15:29:24Z</time>
      </trkpt>
      <trkpt lat="45.87866" lon="3.03532">
        <ele>669.99</ele>
        <time>2013-06-01T15:29:28Z</time>
      </trkpt>
      <trkpt lat="45.8785" lon="3.03545">
        <ele>674.36</ele>
        <time>2013-06-01T15:29:31Z</time>
      </trkpt>
      <trkpt lat="45.87831" lon="3.03562">
        <ele>676.93</ele>
        <time>2013-06-01T15:29:34Z</time>
      </trkpt>
      <trkpt lat="45.87811" lon="3.03575">
        <ele>677.57</ele>
        <time>2013-06-01T15:29:37Z</time>
      </trkpt>
      <trkpt lat="45.87794" lon="3.0359">
        <ele>676.88</ele>
        <time>2013-06-01T15:29:40Z</time>
      </trkpt>
      <trkpt lat="45.87775" lon="3.03602">
        <ele>674.99</ele>
        <time>2013-06-01T15:29:43Z</time>
      </trkpt>
      <trkpt lat="45.87754" lon="3.03609">
        <ele>671.88</ele>
        <time>2013-06-01T15:29:46Z</time>
      </trkpt>
      <trkpt lat="45.87736" lon="3.03617">
        <ele>668.58</ele>
        <time>2013-06-01T15:29:49Z</time>
      </trkpt>
      <trkpt lat="45.87715" lon="3.03628">
        <ele>658.7</ele>
        <time>2013-06-01T15:29:54Z</time>
      </trkpt>
      <trkpt lat="45.87694" lon="3.03637">
        <ele>646.87</ele>
        <time>2013-06-01T15:29:58Z</time>
      </trkpt>
      <trkpt lat="45.87677" lon="3.03648">
        <ele>636.44</ele>
        <time>2013-06-01T15:30:02Z</time>
      </trkpt>
      <trkpt lat="45.87657" lon="3.03669">
        <ele>628.16</ele>
        <time>2013-06-01T15:30:12Z</time>
      </trkpt>
      <trkpt lat="45.87638" lon="3.03675">
        <ele>625.61</ele>
        <time>2013-06-01T15:30:17Z</time>
      </trkpt>
      <trkpt lat="45.87621" lon="3.03665">
        <ele>622.75</ele>
        <time>2013-06-01T15:30:20Z</time>
      </trkpt>
      <trkpt lat="45.87602" lon="3.03648">
        <ele>619.08</ele>
        <time>2013-06-01T15:30:27Z</time>
      </trkpt>
      <trkpt lat="45.87579" lon="3.03622">
        <ele>618.38</ele>
        <time>2013-06-01T15:31:11Z</time>
      </trkpt>
      <trkpt lat="45.87564" lon="3.03607">
        <ele>619.49</ele>
        <time>2013-06-01T15:31:15Z</time>
      </trkpt>
      <trkpt lat="45.87552" lon="3.03585">
        <ele>620.57</ele>
        <time>2013-06-01T15:31:21Z</time>
      </trkpt>
      <trkpt lat="45.87541" lon="3.03562">
        <ele>620.74</ele>
        <time>2013-06-01T15:31:26Z</time>
      </trkpt>
      <trkpt lat="45.87527" lon="3.0354">
        <ele>620.79</ele>
        <time>2013-06-01T15:31:32Z</time>
      </trkpt>
      <trkpt lat="45.87511" lon="3.03527">
        <ele>620.36</ele>
        <time>2013-06-01T15:31:35Z</time>
      </trkpt>
      <trkpt lat="45.87487" lon="3.0351">
        <ele>619.35</ele>
        <time>2013-06-01T15:31:38Z</time>
      </trkpt>
      <trkpt lat="45.8747" lon="3.03502">
        <ele>618.42</ele>
        <time>2013-06-01T15:31:40Z</time>
      </trkpt>
      <trkpt lat="45.87453" lon="3.03491">
        <ele>617.27</ele>
        <time>2013-06-01T15:31:42Z</time>
      </trkpt>
      <trkpt lat="45.87433" lon="3.0348">
        <ele>615.98</ele>
        <time>2013-06-01T15:31:45Z</time>
      </trkpt>
      <trkpt lat="45.87413" lon="3.03476">
        <ele>614.32</ele>
        <time>2013-06-01T15:31:50Z</time>
      </trkpt>
      <trkpt lat="45.87395" lon="3.03472">
        <ele>612.87</ele>
        <time>2013-06-01T15:32:23Z</time>
      </trkpt>
      <trkpt lat="45.87375" lon="3.03465">
        <ele>611.94</ele>
        <time>2013-06-01T15:32:30Z</time>
      </trkpt>
      <trkpt lat="45.87357" lon="3.0345">
        <ele>610.95</ele>
        <time>2013-06-01T15:32:37Z</time>
      </trkpt>
      <trkpt lat="45.87339" lon="3.03444">
        <ele>610</ele>
        <time>2013-06-01T15:32:43Z</time>
      </trkpt>
      <trkpt lat="45.87322" lon="3.03459">
        <ele>607.88</ele>
        <time>2013-06-01T15:32:52Z</time>
      </trkpt>
      <trkpt lat="45.8731" lon="3.03435">
        <ele>604.83</ele>
        <time>2013-06-01T15:33:00Z</time>
      </trkpt>
      <trkpt lat="45.87294" lon="3.03452">
        <ele>594.58</ele>
        <time>2013-06-01T15:33:09Z</time>
      </trkpt>
      <trkpt lat="45.87281" lon="3.03431">
        <ele>588.68</ele>
        <time>2013-06-01T15:33:13Z</time>
      </trkpt>
      <trkpt lat="45.87278" lon="3.03401">
        <ele>585.75</ele>
        <time>2013-06-01T15:33:16Z</time>
      </trkpt>
      <trkpt lat="45.87282" lon="3.03375">
        <ele>583.06</ele>
        <time>2013-06-01T15:33:21Z</time>
      </trkpt>
      <trkpt lat="45.87293" lon="3.03354">
        <ele>581.34</ele>
        <time>2013-06-01T15:33:27Z</time>
      </trkpt>
      <trkpt lat="45.87306" lon="3.0333">
        <ele>579.32</ele>
        <time>2013-06-01T15:33:34Z</time>
      </trkpt>
      <trkpt lat="45.87319" lon="3.03308">
        <ele>577.27</ele>
        <time>2013-06-01T15:33:42Z</time>
      </trkpt>
      <trkpt lat="45.87333" lon="3.03285">
        <ele>573.85</ele>
        <time>2013-06-01T15:33:56Z</time>
      </trkpt>
      <trkpt lat="45.87348" lon="3.03266">
        <ele>572.04</ele>
        <time>2013-06-01T15:34:27Z</time>
      </trkpt>
      <trkpt lat="45.87363" lon="3.03248">
        <ele>571.01</ele>
        <time>2013-06-01T15:34:34Z</time>
      </trkpt>
      <trkpt lat="45.87379" lon="3.03231">
        <ele>569.81</ele>
        <time>2013-06-01T15:34:42Z</time>
      </trkpt>
      <trkpt lat="45.87355" lon="3.0321">
        <ele>568.69</ele>
        <time>2013-06-01T15:35:00Z</time>
      </trkpt>
      <trkpt lat="45.8734" lon="3.0319">
        <ele>567.85</ele>
        <time>2013-06-01T15:35:07Z</time>
      </trkpt>
      <trkpt lat="45.87325" lon="3.03167">
        <ele>566.05</ele>
        <time>2013-06-01T15:35:13Z</time>
      </trkpt>
      <trkpt lat="45.87314" lon="3.03141">
        <ele>564.62</ele>
        <time>2013-06-01T15:35:17Z</time>
      </trkpt>
      <trkpt lat="45.87305" lon="3.03113">
        <ele>564.06</ele>
        <time>2013-06-01T15:35:21Z</time>
      </trkpt>
      <trkpt lat="45.87297" lon="3.03087">
        <ele>563.88</ele>
        <time>2013-06-01T15:35:25Z</time>
      </trkpt>
      <trkpt lat="45.8729" lon="3.03062">
        <ele>563.24</ele>
        <time>2013-06-01T15:35:30Z</time>
      </trkpt>
      <trkpt lat="45.87282" lon="3.03038">
        <ele>562.86</ele>
        <time>2013-06-01T15:35:37Z</time>
      </trkpt>
      <trkpt lat="45.87274" lon="3.03015">
        <ele>562.82</ele>
        <time>2013-06-01T15:35:41Z</time>
      </trkpt>
      <trkpt lat="45.87263" lon="3.02991">
        <ele>562.37</ele>
        <time>2013-06-01T15:35:46Z</time>
      </trkpt>
      <trkpt lat="45.87247" lon="3.02969">
        <ele>561.11</ele>
        <time>2013-06-01T15:35:53Z</time>
      </trkpt>
      <trkpt lat="45.8723" lon="3.0295">
        <ele>561.73</ele>
        <time>2013-06-01T15:35:57Z</time>
      </trkpt>
      <trkpt lat="45.87211" lon="3.02929">
        <ele>563.23</ele>
        <time>2013-06-01T15:36:02Z</time>
      </trkpt>
      <trkpt lat="45.87198" lon="3.02907">
        <ele>563.66</ele>
        <time>2013-06-01T15:36:07Z</time>
      </trkpt>
      <trkpt lat="45.87184" lon="3.02888">
        <ele>562.94</ele>
        <time>2013-06-01T15:36:12Z</time>
      </trkpt>
      <trkpt lat="45.87171" lon="3.02866">
        <ele>559.72</ele>
        <time>2013-06-01T15:36:21Z</time>
      </trkpt>
      <trkpt lat="45.8716" lon="3.02839">
        <ele>558.96</ele>
        <time>2013-06-01T15:36:27Z</time>
      </trkpt>
      <trkpt lat="45.87154" lon="3.02811">
        <ele>559.67</ele>
        <time>2013-06-01T15:36:32Z</time>
      </trkpt>
      <trkpt lat="45.87144" lon="3.02783">
        <ele>562.04</ele>
        <time>2013-06-01T15:36:37Z</time>
      </trkpt>
      <trkpt lat="45.87131" lon="3.02761">
        <ele>564.83</ele>
        <time>2013-06-01T15:36:43Z</time>
      </trkpt>
      <trkpt lat="45.87117" lon="3.02744">
        <ele>566.54</ele>
        <time>2013-06-01T15:36:50Z</time>
      </trkpt>
    </trkseg>
  </trk>
</gpx>